[[{"header":{"parameterUnit":"m.s-1","parameterCategory":1,"la1":31.0,"la2":29.5877,"lo1":-88.7671,"lo2":-86.6584,"dy":0.0162,"dx":0.0185,"nx":115,"ny":88,"refTime":"2023-04-20T18:00:00:Z","depth":0,"parameterNumber":2,"parameterNumberName":"U-component_of_WINDS"},"data":[0.0,0.0,0.0,0.0,0.0,0.0,0.0,0.0,0.0,0.0,0.0,0.0,0.0,0.0,0.0,0.0,0.0,0.0,0.0,0.0,0.0,0.0,0.0,0.0,0.0,0.0,0.0,0.0,0.0,0.0,0.0,0.0,0.0,0.0,0.0,0.0,0.0,0.0,0.0,0.0,0.0,0.0,0.0,0.0,0.0,0.0,0.0,0.0,0.0,0.0,0.0,0.0,0.0,0.0,0.0,0.0,0.0,0.0,0.0,0.0,0.0,0.0,0.0,0.0,0.0,0.0,0.0,0.0,0.0,0.0,0.0,0.0,0.0,0.0,0.0,0.0,0.0,0.0,0.0,0.0,0.0,0.0,0.0,0.0,0.0,0.0,0.0,0.0,0.0,0.0,0.0,0.0,0.0,0.0,0.0,0.0,0.0,0.0,0.0,0.0,0.0,0.0,0.0,0.0,0.0,0.0,0.0,0.0,0.0,0.0,0.0,0.0,0.0,0.0,0.0,0.0,0.0,0.0,0.0,0.0,0.0,0.0,0.0,0.0,0.0,0.0,0.0,0.0,0.0,0.0,0.0,0.0,0.0,0.0,0.0,0.0,0.0,0.0,0.0,0.0,0.0,0.0,0.0,0.0,0.0,0.0,0.0,0.0,0.0,0.0,0.0,0.0,0.0,0.0,0.0,0.0,0.0,0.0,0.0,0.0,0.0,0.0,0.0,0.0,0.0,0.0,0.0,0.0,0.0,0.0,0.0,0.0,0.0,0.0,0.0,0.0,0.0,0.0,0.0,0.0,0.0,0.0,0.0,0.0,0.0,0.0,0.0,0.0,0.0,0.0,0.0,0.0,0.0,0.0,0.0,0.0,0.0,0.0,0.0,0.0,0.0,0.0,0.0,0.0,0.0,0.0,0.0,0.0,0.0,0.0,0.0,0.0,0.0,0.0,0.0,0.0,0.0,0.0,0.0,0.0,0.0,0.0,0.0,0.0,0.0,0.0,0.0,0.0,0.0,0.0,0.0,0.0,0.0,0.0,0.0,0.0,0.0,0.0,0.0,0.0,0.0,0.0,0.0,0.0,0.0,0.0,0.0,0.0,0.0,0.0,0.0,0.0,0.0,0.0,0.0,0.0,0.0,0.0,0.0,0.0,0.0,0.0,0.0,0.0,0.0,0.0,0.0,0.0,0.0,0.0,0.0,0.0,0.0,0.0,0.0,0.0,0.0,0.0,0.0,0.0,0.0,0.0,0.0,0.0,0.0,0.0,0.0,0.0,0.0,0.0,0.0,0.0,0.0,0.0,0.0,0.0,0.0,0.0,0.0,0.0,0.0,0.0,0.0,0.0,0.0,0.0,0.0,0.0,0.0,0.0,0.0,0.0,0.0,0.0,0.0,0.0,0.0,0.0,0.0,0.0,0.0,0.0,0.0,0.0,0.0,0.0,0.0,0.0,0.0,0.0,0.0,0.0,0.0,0.0,0.0,0.0,0.0,0.0,0.0,0.0,0.0,0.0,0.0,0.0,0.0,0.0,0.0,0.0,0.0,0.0,0.0,0.0,0.0,0.0,0.0,0.0,0.0,0.0,0.0,0.0,0.0,0.0,0.0,0.0,0.0,0.0,0.0,0.0,0.0,0.0,0.0,0.0,0.0,0.0,0.0,0.0,0.0,0.0,0.0,0.0,0.0,0.0,0.0,0.0,0.0,0.0,0.0,0.0,0.0,0.0,0.0,0.0,0.0,0.0,0.0,0.0,0.0,0.0,0.0,0.0,0.0,0.0,0.0,0.0,0.0,0.0,0.0,0.0,0.0,0.0,0.0,0.0,0.0,0.0,0.0,0.0,0.0,0.0,0.0,0.0,0.0,0.0,0.0,0.0,0.0,0.0,0.0,0.0,0.0,0.0,0.0,0.0,0.0,0.0,0.0,0.0,0.0,0.0,0.0,0.0,0.0,0.0,0.0,0.0,0.0,0.0,0.0,0.0,0.0,0.0,0.0,0.0,0.0,0.0,0.0,0.0,0.0,0.0,0.0,0.0,0.0,0.0,0.0,0.0,0.0,0.0,0.0,0.0,0.0,0.0,0.0,0.0,0.0,0.0,0.0,0.0,0.0,0.0,0.0,0.0,0.0,0.0,0.0,0.0,0.0,0.0,0.0,0.0,0.0,0.0,0.0,0.0,0.0,0.0,0.0,0.0,0.0,0.0,0.0,0.0,0.0,0.0,0.0,0.0,0.0,0.0,0.0,0.0,0.0,0.0,0.0,0.0,0.0,0.0,0.0,0.0,0.0,0.0,0.0,0.0,0.0,0.0,0.0,0.0,0.0,0.0,0.0,0.0,0.0,0.0,0.0,0.0,0.0,0.0,0.0,0.0,0.0,0.0,0.0,0.0,0.0,0.0,0.0,0.0,0.0,0.0,0.0,0.0,0.0,0.0,0.0,0.0,0.0,0.0,0.0,0.0,0.0,0.0,0.0,0.0,0.0,0.0,0.0,0.0,0.0,0.0,0.0,0.0,0.0,0.0,0.0,0.0,0.0,0.0,0.0,0.0,0.0,0.0,0.0,0.0,0.0,0.0,0.0,0.0,0.0,0.0,0.0,0.0,0.0,0.0,0.0,0.0,0.0,0.0,0.0,0.0,0.0,0.0,0.0,0.0,0.0,0.0,0.0,0.0,0.0,0.0,0.0,0.0,0.0,0.0,0.0,0.0,0.0,0.0,0.0,0.0,0.0,0.0,0.0,0.0,0.0,0.0,0.0,0.0,0.0,0.0,0.0,0.0,0.0,0.0,0.0,0.0,0.0,0.0,0.0,0.0,0.0,0.0,0.0,0.0,0.0,0.0,0.0,0.0,0.0,0.0,0.0,0.0,0.0,0.0,0.0,0.0,0.0,0.0,0.0,0.0,0.0,0.0,0.0,0.0,0.0,0.0,0.0,0.0,0.0,0.0,0.0,0.0,0.0,0.0,0.0,0.0,0.0,0.0,0.0,0.0,0.0,0.0,0.0,0.0,0.0,0.0,0.0,0.0,0.0,0.0,0.0,0.0,0.0,0.0,0.0,0.0,0.0,0.0,0.0,0.0,0.0,0.0,0.0,0.0,0.0,0.0,0.0,0.0,0.0,0.0,0.0,0.0,0.0,0.0,0.0,0.0,0.0,0.0,0.0,0.0,0.0,0.0,0.0,0.0,0.0,0.0,0.0,0.0,0.0,0.0,0.0,0.0,0.0,0.0,0.0,0.0,0.0,0.0,0.0,0.0,0.0,0.0,0.0,0.0,0.0,0.0,0.0,0.0,0.0,0.0,0.0,0.0,0.0,0.0,0.0,0.0,0.0,0.0,0.0,0.0,0.0,0.0,0.0,0.0,0.0,0.0,0.0,0.0,0.0,0.0,0.0,0.0,0.0,0.0,0.0,0.0,0.0,0.0,0.0,0.0,0.0,0.0,0.0,0.0,0.0,0.0,0.0,0.0,0.0,0.0,0.0,0.0,0.0,0.0,0.0,0.0,0.0,0.0,0.0,0.0,0.0,0.0,0.0,0.0,0.0,0.0,0.0,0.0,0.0,0.0,0.0,0.0,0.0,0.0,0.0,0.0,0.0,0.0,0.0,0.0,0.0,0.0,0.0,0.0,0.0,0.0,0.0,0.0,0.0,0.0,0.0,0.0,0.0,0.0,0.0,0.0,0.0,0.0,0.0,0.0,0.0,0.0,0.0,0.0,0.0,0.0,0.0,0.0,0.0,0.0,0.0,0.0,0.0,0.0,0.0,0.0,0.0,0.0,0.0,0.0,0.0,0.0,0.0,0.0,0.0,0.0,0.0,0.0,0.0,0.0,0.0,0.0,0.0,0.0,0.0,0.0,0.0,0.0,0.0,0.0,0.0,0.0,0.0,0.0,0.0,0.0,0.0,0.0,0.0,0.0,0.0,0.0,0.0,0.0,0.0,0.0,0.0,0.0,0.0,0.0,0.0,0.0,0.0,0.0,0.0,0.0,0.0,0.0,0.0,0.0,0.0,0.0,0.0,0.0,0.0,0.0,0.0,0.0,0.0,0.0,0.0,0.0,0.0,0.0,0.0,0.0,0.0,0.0,0.0,0.0,0.0,0.0,0.0,0.0,0.0,0.0,0.0,0.0,0.0,0.0,0.0,0.0,0.0,0.0,0.0,0.0,0.0,0.0,0.0,0.0,0.0,0.0,0.0,0.0,0.0,0.0,0.0,0.0,0.0,0.0,0.0,0.0,0.0,0.0,0.0,0.0,0.0,0.0,0.0,0.0,5.3848,0.0,0.0,0.0,0.0,0.0,0.0,0.0,0.0,0.0,0.0,0.0,0.0,0.0,0.0,0.0,0.0,0.0,0.0,0.0,0.0,0.0,0.0,0.0,0.0,0.0,0.0,0.0,0.0,0.0,0.0,0.0,0.0,0.0,0.0,0.0,0.0,0.0,0.0,0.0,0.0,0.0,0.0,0.0,0.0,0.0,0.0,0.0,0.0,0.0,0.0,0.0,0.0,0.0,0.0,0.0,0.0,0.0,0.0,0.0,0.0,0.0,0.0,0.0,0.0,0.0,0.0,0.0,0.0,0.0,0.0,0.0,0.0,0.0,0.0,0.0,0.0,0.0,0.0,0.0,0.0,0.0,0.0,0.0,0.0,0.0,0.0,0.0,0.0,0.0,0.0,0.0,0.0,0.0,0.0,0.0,0.0,0.0,0.0,0.0,0.0,0.0,0.0,0.0,0.0,0.0,0.0,0.0,0.0,0.0,0.0,5.6191,5.6582,5.623,5.5371,5.4043,0.0,0.0,0.0,0.0,0.0,0.0,0.0,0.0,0.0,0.0,0.0,0.0,0.0,0.0,0.0,0.0,0.0,0.0,0.0,0.0,0.0,0.0,0.0,0.0,0.0,0.0,0.0,0.0,0.0,0.0,0.0,0.0,0.0,0.0,0.0,0.0,0.0,0.0,0.0,0.0,0.0,0.0,0.0,0.0,0.0,0.0,0.0,0.0,0.0,0.0,0.0,0.0,0.0,0.0,0.0,0.0,0.0,0.0,0.0,0.0,0.0,0.0,0.0,0.0,0.0,0.0,0.0,0.0,0.0,0.0,0.0,0.0,0.0,0.0,0.0,0.0,0.0,0.0,0.0,0.0,0.0,0.0,0.0,0.0,0.0,0.0,0.0,0.0,0.0,0.0,0.0,0.0,0.0,0.0,0.0,0.0,0.0,0.0,0.0,0.0,0.0,0.0,0.0,0.0,0.0,0.0,0.0,0.0,0.0,0.0,0.0,0.0,5.6621,5.5781,5.4043,0.0,0.0,0.0,0.0,0.0,0.0,0.0,0.0,0.0,0.0,0.0,0.0,0.0,0.0,0.0,0.0,0.0,0.0,0.0,0.0,0.0,0.0,0.0,0.0,0.0,0.0,0.0,0.0,0.0,0.0,0.0,0.0,0.0,0.0,0.0,0.0,0.0,0.0,0.0,0.0,0.0,0.0,0.0,0.0,0.0,0.0,0.0,0.0,0.0,0.0,0.0,0.0,0.0,0.0,0.0,0.0,0.0,0.0,0.0,0.0,0.0,0.0,0.0,0.0,0.0,0.0,0.0,0.0,0.0,0.0,0.0,0.0,0.0,0.0,0.0,0.0,0.0,0.0,0.0,0.0,0.0,0.0,0.0,0.0,0.0,0.0,0.0,0.0,0.0,0.0,0.0,0.0,0.0,0.0,0.0,0.0,0.0,0.0,0.0,0.0,0.0,0.0,0.0,0.0,0.0,0.0,0.0,0.0,0.0,0.0,5.6621,5.6621,5.6601,0.0,5.4043,0.0,0.0,0.0,0.0,0.0,0.0,0.0,0.0,0.0,0.0,0.0,0.0,0.0,0.0,0.0,0.0,0.0,0.0,0.0,0.0,0.0,0.0,0.0,0.0,0.0,0.0,0.0,0.0,0.0,0.0,0.0,0.0,0.0,0.0,0.0,0.0,0.0,0.0,0.0,0.0,0.0,0.0,0.0,0.0,0.0,0.0,0.0,0.0,0.0,0.0,0.0,0.0,0.0,0.0,0.0,0.0,0.0,0.0,0.0,0.0,0.0,0.0,0.0,0.0,0.0,0.0,0.0,0.0,0.0,0.0,0.0,0.0,0.0,0.0,0.0,0.0,0.0,0.0,0.0,0.0,0.0,0.0,0.0,0.0,0.0,0.0,0.0,0.0,0.0,0.0,0.0,0.0,0.0,0.0,0.0,0.0,0.0,0.0,0.0,0.0,0.0,0.0,0.0,0.0,0.0,0.0,0.0,0.0,0.0,0.0,5.6621,5.6621,5.5605,5.4726,0.0,0.0,0.0,0.0,0.0,0.0,0.0,0.0,0.0,0.0,0.0,0.0,0.0,0.0,0.0,0.0,0.0,0.0,0.0,0.0,0.0,0.0,0.0,0.0,0.0,0.0,0.0,0.0,0.0,0.0,0.0,0.0,0.0,0.0,0.0,0.0,0.0,0.0,0.0,0.0,0.0,0.0,0.0,0.0,0.0,0.0,0.0,0.0,0.0,0.0,0.0,0.0,0.0,0.0,0.0,0.0,0.0,0.0,0.0,0.0,0.0,0.0,0.0,0.0,0.0,0.0,0.0,0.0,0.0,0.0,0.0,0.0,0.0,0.0,0.0,0.0,0.0,0.0,0.0,0.0,0.0,0.0,0.0,0.0,0.0,0.0,0.0,0.0,0.0,0.0,0.0,0.0,0.0,0.0,0.0,0.0,0.0,0.0,0.0,0.0,0.0,0.0,0.0,0.0,0.0,0.0,0.0,0.0,0.0,0.0,5.6621,5.6621,5.6523,5.4922,5.3984,5.3984,0.0,0.0,0.0,0.0,0.0,0.0,0.0,0.0,0.0,0.0,0.0,0.0,0.0,0.0,0.0,0.0,0.0,0.0,0.0,0.0,0.0,0.0,0.0,0.0,0.0,0.0,0.0,0.0,0.0,0.0,0.0,0.0,0.0,0.0,0.0,0.0,0.0,0.0,0.0,0.0,0.0,0.0,0.0,0.0,0.0,0.0,0.0,0.0,0.0,0.0,0.0,0.0,0.0,0.0,0.0,0.0,0.0,0.0,0.0,0.0,0.0,0.0,0.0,0.0,0.0,0.0,0.0,0.0,0.0,0.0,0.0,0.0,0.0,0.0,0.0,0.0,0.0,0.0,0.0,0.0,0.0,0.0,0.0,0.0,0.0,0.0,0.0,0.0,0.0,0.0,0.0,0.0,0.0,0.0,0.0,0.0,0.0,0.0,0.0,0.0,0.0,0.0,0.0,0.0,0.0,0.0,0.0,0.0,5.6621,5.6621,5.6621,5.6562,5.4902,5.3984,0.0,0.0,0.0,0.0,0.0,0.0,0.0,0.0,0.0,0.0,0.0,0.0,0.0,0.0,0.0,0.0,0.0,0.0,0.0,0.0,0.0,0.0,0.0,0.0,0.0,0.0,0.0,0.0,0.0,0.0,0.0,0.0,0.0,0.0,0.0,0.0,0.0,0.0,0.0,0.0,0.0,0.0,0.0,0.0,0.0,0.0,0.0,0.0,0.0,0.0,0.0,0.0,0.0,0.0,0.0,0.0,0.0,0.0,0.0,0.0,0.0,0.0,0.0,0.0,0.0,0.0,0.0,0.0,0.0,0.0,0.0,0.0,0.0,0.0,0.0,0.0,0.0,0.0,0.0,0.0,0.0,0.0,0.0,0.0,0.0,0.0,0.0,0.0,0.0,0.0,0.0,0.0,0.0,0.0,0.0,0.0,0.0,0.0,0.0,0.0,0.0,0.0,0.0,0.0,0.0,0.0,0.0,0.0,0.0,5.6582,5.6621,5.6621,5.6543,5.4922,5.3984,0.0,0.0,0.0,0.0,0.0,0.0,0.0,0.0,0.0,0.0,0.0,0.0,0.0,0.0,0.0,0.0,0.0,0.0,0.0,0.0,0.0,0.0,0.0,0.0,0.0,0.0,0.0,0.0,0.0,0.0,0.0,0.0,0.0,0.0,0.0,0.0,0.0,0.0,0.0,0.0,0.0,0.0,0.0,0.0,0.0,0.0,0.0,0.0,0.0,0.0,0.0,0.0,0.0,0.0,0.0,0.0,0.0,0.0,0.0,0.0,0.0,0.0,0.0,0.0,0.0,0.0,0.0,0.0,0.0,0.0,0.0,0.0,0.0,0.0,0.0,0.0,0.0,0.0,0.0,0.0,0.0,0.0,0.0,0.0,0.0,0.0,0.0,0.0,0.0,0.0,0.0,0.0,0.0,0.0,0.0,0.0,0.0,0.0,0.0,0.0,0.0,0.0,0.0,0.0,0.0,0.0,0.0,0.0,0.0,5.6562,0.0,5.6465,5.6152,5.4765,5.3867,0.0,0.0,0.0,0.0,0.0,0.0,0.0,0.0,0.0,0.0,0.0,0.0,0.0,0.0,0.0,0.0,0.0,0.0,0.0,0.0,0.0,0.0,0.0,0.0,0.0,0.0,0.0,0.0,0.0,0.0,0.0,0.0,0.0,0.0,0.0,0.0,0.0,0.0,0.0,0.0,0.0,0.0,0.0,0.0,0.0,0.0,0.0,0.0,0.0,0.0,0.0,0.0,0.0,0.0,0.0,0.0,0.0,0.0,0.0,0.0,0.0,0.0,0.0,0.0,0.0,0.0,0.0,0.0,0.0,0.0,0.0,0.0,0.0,0.0,0.0,0.0,0.0,0.0,0.0,0.0,0.0,0.0,0.0,0.0,0.0,0.0,0.0,0.0,0.0,0.0,0.0,0.0,0.0,0.0,0.0,0.0,0.0,0.0,0.0,0.0,0.0,0.0,0.0,0.0,0.0,0.0,0.0,0.0,5.5703,5.6562,5.6621,5.6211,5.5332,5.4473,5.3594,0.0,0.0,0.0,0.0,0.0,0.0,0.0,0.0,0.0,0.0,0.0,0.0,0.0,0.0,0.0,0.0,0.0,0.0,0.0,0.0,0.0,0.0,0.0,0.0,0.0,0.0,0.0,0.0,0.0,0.0,0.0,0.0,0.0,0.0,0.0,0.0,0.0,0.0,0.0,0.0,0.0,0.0,0.0,0.0,0.0,0.0,0.0,0.0,0.0,0.0,0.0,0.0,0.0,0.0,0.0,0.0,0.0,0.0,0.0,0.0,0.0,0.0,0.0,0.0,0.0,0.0,0.0,0.0,0.0,0.0,0.0,0.0,0.0,0.0,0.0,0.0,0.0,0.0,0.0,0.0,0.0,0.0,0.0,0.0,0.0,0.0,0.0,0.0,0.0,0.0,0.0,0.0,0.0,0.0,0.0,0.0,0.0,0.0,0.0,0.0,0.0,0.0,0.0,0.0,0.0,0.0,0.0,0.0,0.0,5.6562,5.6621,5.6172,5.5332,5.4453,5.3574,0.0,0.0,0.0,0.0,0.0,0.0,0.0,0.0,0.0,0.0,0.0,0.0,0.0,0.0,0.0,0.0,0.0,0.0,0.0,0.0,0.0,0.0,0.0,0.0,0.0,0.0,0.0,0.0,0.0,0.0,0.0,0.0,0.0,0.0,0.0,0.0,0.0,0.0,0.0,0.0,0.0,0.0,0.0,0.0,0.0,0.0,0.0,0.0,0.0,0.0,0.0,0.0,0.0,0.0,0.0,0.0,0.0,0.0,0.0,0.0,0.0,0.0,0.0,0.0,0.0,0.0,0.0,0.0,0.0,0.0,0.0,0.0,0.0,0.0,0.0,0.0,0.0,0.0,0.0,0.0,0.0,0.0,0.0,0.0,0.0,0.0,0.0,0.0,0.0,0.0,0.0,0.0,0.0,0.0,0.0,0.0,0.0,0.0,0.0,0.0,0.0,0.0,0.0,0.0,0.0,0.0,0.0,0.0,0.0,5.6523,5.6621,5.6035,5.4844,5.4277,5.3437,5.2226,0.0,0.0,0.0,0.0,0.0,0.0,0.0,0.0,0.0,0.0,0.0,0.0,0.0,0.0,0.0,0.0,0.0,0.0,0.0,0.0,0.0,0.0,0.0,0.0,0.0,0.0,0.0,0.0,0.0,0.0,0.0,0.0,0.0,0.0,0.0,0.0,0.0,0.0,0.0,0.0,0.0,0.0,0.0,0.0,0.0,0.0,0.0,0.0,0.0,0.0,0.0,0.0,0.0,0.0,0.0,0.0,0.0,0.0,0.0,0.0,0.0,0.0,0.0,0.0,0.0,0.0,0.0,0.0,0.0,0.0,0.0,0.0,0.0,0.0,0.0,0.0,0.0,0.0,0.0,0.0,0.0,0.0,0.0,0.0,0.0,0.0,0.0,0.0,0.0,0.0,0.0,0.0,0.0,0.0,0.0,0.0,0.0,0.0,0.0,0.0,0.0,0.0,0.0,0.0,0.0,0.0,0.0,0.0,5.6504,5.6582,5.5801,5.416,5.4043,5.3203,0.0,0.0,0.0,0.0,0.0,0.0,0.0,0.0,0.0,0.0,0.0,0.0,0.0,0.0,0.0,0.0,0.0,0.0,0.0,0.0,0.0,0.0,0.0,0.0,0.0,0.0,0.0,0.0,0.0,0.0,0.0,0.0,0.0,0.0,0.0,0.0,0.0,0.0,0.0,0.0,0.0,0.0,0.0,0.0,0.0,0.0,0.0,0.0,0.0,0.0,0.0,0.0,0.0,0.0,0.0,0.0,0.0,0.0,0.0,0.0,0.0,0.0,0.0,0.0,0.0,0.0,0.0,0.0,0.0,0.0,0.0,0.0,0.0,0.0,0.0,0.0,0.0,0.0,0.0,0.0,0.0,0.0,0.0,0.0,0.0,0.0,0.0,0.0,0.0,0.0,0.0,0.0,0.0,0.0,0.0,0.0,0.0,0.0,0.0,0.0,0.0,0.0,0.0,0.0,0.0,0.0,0.0,0.0,0.0,5.5605,5.6269,5.6094,5.5,5.4336,5.3476,0.0,0.0,0.0,0.0,0.0,0.0,0.0,0.0,0.0,0.0,0.0,0.0,0.0,0.0,0.0,0.0,0.0,0.0,0.0,0.0,0.0,0.0,0.0,0.0,0.0,0.0,0.0,0.0,0.0,0.0,0.0,0.0,0.0,0.0,0.0,0.0,0.0,0.0,0.0,0.0,0.0,0.0,0.0,0.0,0.0,0.0,0.0,0.0,0.0,0.0,0.0,0.0,0.0,0.0,0.0,0.0,0.0,0.0,0.0,0.0,0.0,0.0,0.0,0.0,0.0,0.0,0.0,0.0,0.0,0.0,0.0,0.0,0.0,0.0,0.0,0.0,0.0,0.0,0.0,0.0,0.0,0.0,0.0,0.0,0.0,0.0,0.0,0.0,0.0,0.0,0.0,0.0,0.0,0.0,0.0,0.0,0.0,0.0,0.0,0.0,0.0,0.0,0.0,0.0,0.0,0.0,0.0,0.0,5.4433,5.5293,5.6152,5.6348,5.5859,5.4648,5.3574,0.0,0.0,0.0,0.0,0.0,0.0,0.0,0.0,0.0,0.0,0.0,0.0,0.0,0.0,0.0,0.0,0.0,0.0,0.0,0.0,0.0,0.0,0.0,0.0,0.0,0.0,0.0,0.0,0.0,0.0,0.0,0.0,0.0,0.0,0.0,0.0,0.0,0.0,0.0,0.0,0.0,0.0,0.0,0.0,0.0,0.0,0.0,0.0,0.0,0.0,0.0,0.0,0.0,0.0,0.0,0.0,0.0,0.0,0.0,0.0,0.0,0.0,0.0,0.0,0.0,0.0,0.0,0.0,0.0,0.0,0.0,0.0,0.0,0.0,0.0,0.0,0.0,0.0,0.0,0.0,0.0,0.0,0.0,0.0,0.0,0.0,0.0,0.0,0.0,0.0,0.0,0.0,0.0,0.0,0.0,0.0,0.0,0.0,0.0,0.0,0.0,0.0,0.0,0.0,0.0,0.0,0.0,0.0,5.4433,5.5273,5.6152,5.6601,5.6562,5.4922,5.3633,0.0,0.0,0.0,0.0,0.0,0.0,0.0,0.0,0.0,0.0,0.0,0.0,0.0,0.0,0.0,0.0,0.0,0.0,0.0,0.0,0.0,0.0,0.0,0.0,0.0,0.0,0.0,0.0,0.0,0.0,0.0,0.0,0.0,0.0,0.0,0.0,0.0,0.0,0.0,0.0,0.0,0.0,0.0,0.0,0.0,0.0,0.0,0.0,0.0,0.0,0.0,0.0,0.0,0.0,0.0,0.0,0.0,0.0,0.0,0.0,0.0,0.0,0.0,0.0,0.0,0.0,0.0,0.0,0.0,0.0,0.0,0.0,0.0,0.0,0.0,0.0,0.0,0.0,0.0,0.0,0.0,0.0,0.0,0.0,0.0,0.0,0.0,0.0,0.0,0.0,0.0,0.0,0.0,0.0,0.0,0.0,0.0,0.0,0.0,0.0,0.0,0.0,0.0,0.0,0.0,0.0,0.0,0.0,5.4414,5.5293,5.6152,5.6621,5.6582,5.4922,5.3926,0.0,0.0,0.0,0.0,0.0,0.0,0.0,0.0,0.0,0.0,0.0,0.0,0.0,0.0,0.0,0.0,0.0,0.0,0.0,0.0,0.0,0.0,0.0,0.0,0.0,0.0,0.0,0.0,0.0,0.0,0.0,0.0,0.0,0.0,0.0,0.0,0.0,0.0,0.0,0.0,0.0,0.0,0.0,0.0,0.0,0.0,0.0,0.0,5.0683,0.0,0.0,0.0,0.0,0.0,0.0,0.0,0.0,0.0,0.0,0.0,0.0,0.0,0.0,0.0,0.0,0.0,0.0,0.0,0.0,0.0,0.0,0.0,0.0,0.0,0.0,0.0,0.0,0.0,0.0,0.0,0.0,0.0,0.0,0.0,0.0,0.0,0.0,0.0,0.0,0.0,0.0,0.0,0.0,0.0,0.0,0.0,0.0,0.0,0.0,0.0,0.0,0.0,0.0,0.0,0.0,0.0,0.0,0.0,5.4219,5.4707,5.5937,5.6621,5.6543,5.4922,5.3984,0.0,0.0,0.0,0.0,0.0,0.0,0.0,0.0,0.0,0.0,0.0,0.0,0.0,0.0,0.0,0.0,0.0,0.0,0.0,0.0,0.0,0.0,0.0,0.0,0.0,0.0,0.0,0.0,0.0,0.0,0.0,0.0,0.0,0.0,0.0,0.0,0.0,0.0,0.0,0.0,0.0,0.0,0.0,0.0,0.0,0.0,0.0,0.0,0.0,0.0,0.0,0.0,0.0,0.0,0.0,0.0,0.0,0.0,0.0,0.0,0.0,0.0,0.0,0.0,0.0,0.0,0.0,0.0,0.0,0.0,0.0,0.0,0.0,0.0,0.0,0.0,0.0,0.0,0.0,0.0,0.0,0.0,0.0,0.0,0.0,0.0,0.0,0.0,0.0,0.0,0.0,0.0,0.0,0.0,0.0,0.0,0.0,0.0,0.0,0.0,0.0,0.0,0.0,0.0,0.0,0.0,0.0,5.2988,5.3867,5.4062,5.5586,5.6465,5.6562,5.4922,5.3984,5.3926,0.0,0.0,0.0,0.0,0.0,0.0,0.0,0.0,0.0,0.0,0.0,0.0,0.0,0.0,0.0,0.0,0.0,0.0,0.0,0.0,0.0,0.0,0.0,0.0,0.0,0.0,0.0,0.0,0.0,0.0,0.0,0.0,0.0,0.0,0.0,0.0,0.0,0.0,5.0948,5.2281,0.0,0.0,0.0,0.0,0.0,0.0,0.0,0.0,5.0683,0.0,0.0,0.0,0.0,0.0,0.0,0.0,0.0,0.0,0.0,0.0,0.0,0.0,0.0,0.0,0.0,0.0,0.0,0.0,0.0,0.0,0.0,0.0,0.0,0.0,0.0,0.0,0.0,0.0,0.0,0.0,0.0,0.0,0.0,0.0,0.0,0.0,0.0,0.0,0.0,0.0,0.0,0.0,0.0,0.0,0.0,0.0,0.0,0.0,0.0,0.0,0.0,0.0,0.0,0.0,0.0,5.1406,5.2402,5.3281,5.3984,5.498,5.5859,5.6504,5.4922,5.3984,5.3887,0.0,0.0,0.0,0.0,0.0,0.0,0.0,0.0,0.0,0.0,0.0,0.0,0.0,0.0,0.0,0.0,0.0,0.0,0.0,0.0,0.0,0.0,0.0,0.0,0.0,0.0,0.0,0.0,0.0,0.0,0.0,0.0,0.0,0.0,0.0,0.0,0.0,0.0,0.0,5.2567,5.3507,0.0,0.0,0.0,0.0,0.0,0.0,0.0,0.0,5.0683,0.0,0.0,0.0,0.0,0.0,0.0,0.0,0.0,0.0,0.0,0.0,0.0,0.0,0.0,0.0,0.0,0.0,0.0,0.0,0.0,0.0,0.0,0.0,0.0,0.0,0.0,0.0,0.0,0.0,0.0,0.0,0.0,0.0,0.0,0.0,0.0,0.0,0.0,0.0,0.0,0.0,0.0,0.0,0.0,0.0,0.0,0.0,0.0,0.0,0.0,0.0,0.0,0.0,0.0,0.0,5.1445,5.2266,5.291,5.334,5.418,5.4824,5.5215,5.4004,5.334,0.0,0.0,0.0,0.0,0.0,0.0,0.0,0.0,0.0,0.0,0.0,0.0,0.0,0.0,0.0,0.0,0.0,0.0,0.0,0.0,0.0,0.0,0.0,0.0,0.0,0.0,0.0,0.0,0.0,0.0,0.0,0.0,0.0,0.0,0.0,0.0,0.0,0.0,0.0,0.0,5.2931,5.3659,5.4953,0.0,0.0,0.0,0.0,0.0,0.0,5.1278,5.1124,0.0,0.0,0.0,0.0,0.0,0.0,0.0,0.0,0.0,0.0,0.0,0.0,0.0,0.0,0.0,0.0,0.0,0.0,0.0,0.0,0.0,0.0,0.0,0.0,0.0,0.0,0.0,0.0,0.0,0.0,0.0,0.0,0.0,0.0,0.0,0.0,0.0,0.0,0.0,0.0,0.0,0.0,0.0,0.0,0.0,0.0,0.0,0.0,0.0,0.0,0.0,0.0,0.0,0.0,0.0,5.1426,5.209,5.2519,5.2715,5.3379,5.3828,5.3965,5.3164,5.2695,0.0,0.0,0.0,0.0,0.0,0.0,0.0,0.0,0.0,0.0,0.0,0.0,0.0,0.0,0.0,0.0,0.0,0.0,0.0,0.0,0.0,0.0,0.0,0.0,0.0,0.0,0.0,0.0,0.0,0.0,0.0,0.0,0.0,0.0,0.0,0.0,0.0,0.0,0.0,0.0,0.0,5.3793,5.5453,5.5011,0.0,0.0,0.0,0.0,5.1947,5.1773,0.0,0.0,0.0,0.0,0.0,0.0,0.0,0.0,0.0,0.0,0.0,0.0,0.0,0.0,0.0,0.0,0.0,0.0,0.0,0.0,0.0,0.0,0.0,0.0,0.0,0.0,0.0,0.0,0.0,0.0,0.0,0.0,0.0,0.0,0.0,0.0,0.0,0.0,0.0,0.0,0.0,0.0,0.0,0.0,0.0,0.0,0.0,0.0,0.0,0.0,0.0,0.0,0.0,0.0,0.0,0.0,5.1387,5.1484,5.1933,5.2656,5.2812,5.3223,5.3945,5.3144,5.2695,0.0,0.0,0.0,0.0,0.0,0.0,0.0,0.0,0.0,0.0,0.0,0.0,0.0,0.0,0.0,0.0,0.0,0.0,0.0,0.0,0.0,0.0,0.0,0.0,0.0,0.0,0.0,0.0,0.0,0.0,0.0,0.0,0.0,0.0,0.0,0.0,0.0,0.0,0.0,0.0,0.0,5.3793,5.5472,5.5011,5.4511,0.0,0.0,5.2811,5.1947,5.1708,0.0,0.0,0.0,0.0,0.0,0.0,0.0,0.0,0.0,0.0,0.0,0.0,0.0,0.0,0.0,0.0,0.0,0.0,0.0,0.0,0.0,0.0,0.0,0.0,0.0,0.0,0.0,0.0,0.0,0.0,0.0,0.0,0.0,0.0,0.0,0.0,0.0,0.0,0.0,0.0,0.0,0.0,0.0,0.0,0.0,0.0,0.0,0.0,0.0,0.0,0.0,0.0,0.0,0.0,0.0,5.1387,5.1387,5.1387,5.1582,5.1953,5.1953,5.2148,5.2519,5.2168,5.1973,0.0,0.0,0.0,0.0,0.0,0.0,0.0,0.0,0.0,0.0,0.0,0.0,0.0,0.0,0.0,0.0,0.0,0.0,0.0,0.0,0.0,0.0,0.0,0.0,0.0,0.0,0.0,0.0,0.0,0.0,0.0,0.0,0.0,0.0,0.0,0.0,0.0,0.0,0.0,0.0,0.0,0.0,5.4857,5.5107,0.0,0.0,0.0,5.4015,5.2583,0.0,0.0,0.0,0.0,0.0,0.0,0.0,0.0,0.0,0.0,0.0,0.0,0.0,0.0,0.0,0.0,0.0,0.0,0.0,0.0,0.0,0.0,0.0,0.0,0.0,0.0,0.0,0.0,0.0,0.0,0.0,0.0,0.0,0.0,0.0,0.0,0.0,0.0,0.0,0.0,0.0,0.0,0.0,0.0,0.0,0.0,0.0,0.0,0.0,0.0,0.0,0.0,0.0,0.0,0.0,0.0,0.0,5.1387,5.1387,5.1387,5.1387,5.1387,5.1387,5.1387,5.1387,0.0,0.0,0.0,0.0,0.0,0.0,0.0,0.0,0.0,0.0,0.0,0.0,0.0,0.0,0.0,0.0,0.0,0.0,0.0,0.0,0.0,0.0,0.0,0.0,0.0,0.0,0.0,4.5861,0.0,0.0,0.0,0.0,0.0,0.0,0.0,0.0,0.0,0.0,0.0,0.0,0.0,0.0,5.3507,5.4374,5.5162,5.566,0.0,0.0,5.4905,5.3077,5.2755,5.2082,0.0,0.0,0.0,0.0,0.0,0.0,0.0,0.0,0.0,0.0,0.0,0.0,0.0,0.0,0.0,0.0,0.0,0.0,0.0,0.0,0.0,0.0,0.0,0.0,0.0,0.0,0.0,0.0,0.0,0.0,0.0,0.0,0.0,0.0,0.0,0.0,0.0,0.0,0.0,0.0,0.0,0.0,0.0,0.0,0.0,0.0,0.0,0.0,0.0,0.0,0.0,0.0,0.0,0.0,5.1387,5.1387,5.1387,5.1387,5.1387,5.1387,5.1387,5.1387,5.1387,5.1387,0.0,0.0,0.0,0.0,0.0,0.0,0.0,0.0,0.0,0.0,0.0,0.0,0.0,0.0,0.0,0.0,0.0,0.0,0.0,0.0,0.0,0.0,0.0,0.0,0.0,0.0,0.0,0.0,0.0,0.0,0.0,0.0,0.0,0.0,0.0,0.0,0.0,0.0,0.0,0.0,0.0,5.3509,5.4393,5.5138,5.5596,0.0,5.5432,5.4715,5.3053,5.2601,5.184,5.0191,0.0,0.0,0.0,0.0,0.0,0.0,0.0,0.0,0.0,0.0,0.0,0.0,0.0,0.0,0.0,0.0,0.0,0.0,0.0,0.0,0.0,0.0,0.0,0.0,0.0,0.0,0.0,0.0,0.0,0.0,0.0,0.0,0.0,0.0,0.0,0.0,0.0,0.0,0.0,0.0,0.0,0.0,0.0,0.0,0.0,0.0,0.0,0.0,0.0,0.0,0.0,0.0,0.0,5.1387,5.1387,5.1387,5.1387,5.1387,5.1387,5.1387,5.1387,5.1402,5.1162,0.0,0.0,0.0,0.0,0.0,0.0,0.0,0.0,0.0,0.0,0.0,0.0,0.0,0.0,0.0,0.0,0.0,0.0,0.0,0.0,0.0,0.0,0.0,0.0,0.0,0.0,0.0,0.0,4.58,4.58,4.58,0.0,0.0,0.0,0.0,0.0,0.0,0.0,0.0,0.0,0.0,5.2723,5.3567,5.435,0.0,0.0,5.5383,5.4664,5.2848,5.2437,5.1726,4.9889,4.92,0.0,0.0,0.0,0.0,0.0,0.0,0.0,0.0,0.0,0.0,0.0,0.0,0.0,0.0,0.0,0.0,0.0,0.0,0.0,0.0,0.0,0.0,0.0,0.0,0.0,0.0,0.0,0.0,0.0,0.0,0.0,0.0,0.0,0.0,0.0,0.0,0.0,0.0,0.0,0.0,0.0,0.0,0.0,0.0,0.0,0.0,0.0,0.0,0.0,0.0,0.0,0.0,5.1387,5.1387,5.1387,5.1387,5.1387,5.1387,5.1386,5.1385,5.1177,5.0777,0.0,0.0,0.0,0.0,0.0,0.0,0.0,0.0,0.0,0.0,0.0,0.0,0.0,0.0,0.0,0.0,0.0,0.0,0.0,0.0,0.0,0.0,0.0,0.0,0.0,0.0,0.0,0.0,4.58,4.58,4.58,0.0,0.0,0.0,0.0,0.0,0.0,0.0,0.0,0.0,0.0,5.2107,5.27,5.3464,5.4127,5.4585,5.4537,5.3865,5.2238,5.1887,5.1266,4.964,0.0,0.0,0.0,0.0,0.0,0.0,0.0,0.0,0.0,0.0,0.0,0.0,0.0,0.0,0.0,0.0,0.0,0.0,0.0,0.0,0.0,0.0,0.0,0.0,0.0,0.0,0.0,4.58,0.0,0.0,4.5893,0.0,0.0,0.0,0.0,0.0,0.0,0.0,0.0,0.0,0.0,0.0,0.0,0.0,0.0,0.0,0.0,0.0,0.0,0.0,0.0,0.0,0.0,5.1387,5.1387,5.1328,5.1348,5.1348,5.1367,5.1344,5.1327,5.0621,5.0207,5.0149,0.0,0.0,0.0,0.0,0.0,0.0,0.0,0.0,0.0,0.0,0.0,0.0,0.0,0.0,0.0,0.0,0.0,0.0,0.0,0.0,0.0,0.0,0.0,0.0,0.0,0.0,4.58,4.58,4.58,0.0,0.0,0.0,0.0,0.0,0.0,0.0,0.0,0.0,4.8246,5.0354,5.1856,5.1849,5.2516,5.3004,5.2924,5.2748,5.2237,5.1197,5.0877,5.0429,0.0,0.0,0.0,0.0,0.0,0.0,0.0,0.0,0.0,0.0,0.0,0.0,0.0,0.0,0.0,0.0,0.0,0.0,0.0,0.0,0.0,0.0,0.0,0.0,0.0,0.0,0.0,4.5731,4.581,0.0,0.0,0.0,0.0,0.0,0.0,0.0,0.0,0.0,0.0,0.0,4.5929,4.5941,0.0,0.0,0.0,0.0,0.0,0.0,0.0,0.0,0.0,0.0,0.0,0.0,5.0564,5.0566,5.0019,4.9746,4.9726,4.9721,4.9732,4.9739,4.9485,4.9032,4.8415,0.0,0.0,0.0,0.0,0.0,0.0,0.0,0.0,0.0,0.0,0.0,0.0,0.0,0.0,0.0,0.0,0.0,0.0,0.0,0.0,0.0,0.0,0.0,0.0,0.0,4.58,0.0,0.0,0.0,0.0,0.0,0.0,0.0,0.0,0.0,0.0,0.0,4.7612,4.8083,4.9317,5.0566,5.1657,5.1951,5.2217,0.0,0.0,0.0,0.0,0.0,0.0,0.0,0.0,0.0,0.0,0.0,0.0,0.0,0.0,4.7807,4.7566,4.705,4.6387,4.5592,0.0,0.0,0.0,0.0,0.0,0.0,0.0,0.0,0.0,0.0,0.0,0.0,0.0,0.0,4.5735,0.0,4.581,0.0,0.0,0.0,0.0,0.0,0.0,0.0,0.0,4.5861,4.5861,4.588,4.5899,4.5893,0.0,4.5953,4.6047,0.0,0.0,0.0,0.0,0.0,0.0,0.0,0.0,4.9703,4.9726,4.9199,4.8886,4.8884,4.8889,4.8899,4.888,4.8584,4.801,4.7099,4.6567,4.625,0.0,0.0,0.0,0.0,0.0,0.0,0.0,0.0,0.0,0.0,0.0,0.0,0.0,0.0,0.0,0.0,0.0,0.0,0.0,0.0,0.0,0.0,0.0,4.58,0.0,0.0,0.0,0.0,0.0,0.0,0.0,0.0,0.0,4.5715,4.6471,4.7287,4.8007,4.8779,4.9794,5.1149,0.0,0.0,0.0,0.0,0.0,0.0,0.0,4.9865,4.9123,4.8943,4.8837,4.8839,4.8527,4.829,4.8144,0.0,0.0,4.698,4.6281,4.5434,4.4607,4.3934,4.3444,4.3367,4.3214,4.3057,0.0,0.0,0.0,0.0,0.0,0.0,0.0,0.0,4.5673,4.5742,0.0,4.58,0.0,0.0,0.0,0.0,0.0,4.58,0.0,0.0,4.578,4.58,4.58,4.586,4.5893,4.5893,4.5956,4.5994,4.6007,4.6138,0.0,0.0,0.0,0.0,0.0,0.0,4.8843,4.8867,4.8808,4.8806,4.8786,4.8802,4.8782,4.8763,4.7927,4.7099,4.6362,4.6259,4.6203,4.6203,4.613,0.0,0.0,0.0,0.0,0.0,0.0,0.0,0.0,0.0,0.0,0.0,0.0,0.0,0.0,0.0,0.0,0.0,0.0,0.0,0.0,4.5847,0.0,0.0,0.0,0.0,0.0,0.0,0.0,0.0,0.0,0.0,4.5715,4.6414,4.7246,4.7964,0.0,0.0,0.0,0.0,5.0231,5.005,4.989,4.9692,4.9358,4.9262,4.9131,4.8925,0.0,0.0,4.8568,4.7885,4.7332,4.7279,4.6489,4.5901,4.608,4.5366,4.447,4.3699,4.3375,4.3177,4.3123,4.2956,4.2807,4.6913,0.0,0.0,0.0,0.0,4.5586,4.5603,4.562,4.5693,4.5709,4.5742,4.5715,0.0,0.0,0.0,0.0,0.0,0.0,4.5727,4.5727,4.5746,4.5727,4.5746,4.5776,4.5844,4.5844,4.5893,4.5925,4.5941,4.6056,4.6158,4.6215,0.0,0.0,0.0,0.0,4.7979,4.7949,4.7363,4.7048,4.7025,4.7045,4.7057,4.7025,4.6791,4.6504,4.6242,4.6209,4.6176,4.6127,4.6111,0.0,0.0,0.0,0.0,0.0,0.0,0.0,0.0,0.0,0.0,0.0,0.0,0.0,0.0,0.0,0.0,0.0,0.0,0.0,4.5847,4.5814,4.58,0.0,0.0,0.0,0.0,0.0,0.0,0.0,0.0,0.0,4.5715,4.5912,4.6359,0.0,0.0,4.8654,4.9377,4.9891,5.0082,4.989,4.975,0.0,4.9276,4.9164,4.9049,4.8839,4.8268,4.7755,4.7684,4.6948,4.6323,4.6232,4.5443,4.4839,4.4821,4.4693,4.4181,4.3433,4.3087,4.2959,4.2905,4.2678,4.2476,4.6817,4.5586,4.5586,4.5586,4.5586,4.5586,4.5586,4.5586,4.564,4.5676,4.569,4.5687,4.5684,4.568,4.568,0.0,0.0,0.0,4.568,4.568,4.568,4.568,4.5715,4.575,4.5765,4.5815,4.5833,4.5867,4.5898,4.5986,4.6075,4.6193,0.0,0.0,4.6991,4.7038,4.7093,4.705,4.6581,4.63,4.63,4.6296,4.6288,4.6299,4.627,4.6228,4.6203,4.6174,4.613,4.6066,4.6056,4.6037,0.0,0.0,0.0,0.0,0.0,0.0,0.0,0.0,0.0,0.0,0.0,4.5953,4.5956,0.0,0.0,0.0,4.588,4.5847,4.5814,4.58,0.0,0.0,0.0,0.0,0.0,0.0,0.0,4.5805,4.5776,4.575,4.5703,4.5684,4.5995,4.6773,4.7223,4.775,4.8495,0.0,4.8998,4.8832,4.8664,4.8506,4.8239,4.8129,4.7999,4.7773,4.7223,4.6818,4.6691,4.5938,4.5315,4.5131,4.4435,4.3777,4.3737,4.3701,4.3574,4.3101,4.2842,4.2675,4.2629,4.239,4.2174,4.6394,4.5586,4.5586,4.5586,4.5586,4.5586,4.5586,4.5586,4.5586,4.562,4.5693,4.5693,4.5651,4.5565,4.5545,0.0,4.5603,4.5584,4.5623,4.57,4.568,4.568,4.57,4.57,4.5715,4.5781,4.5805,4.5841,4.5886,4.5975,4.6047,4.6093,4.6177,4.6206,4.6206,4.6269,4.629,4.6301,4.6301,4.63,4.63,4.6303,4.6299,4.6303,4.6242,4.6196,4.6169,4.6113,4.6066,4.5997,4.5983,4.596,4.5905,0.0,0.0,0.0,0.0,0.0,0.0,0.0,0.0,0.0,0.0,0.0,0.0,0.0,0.0,4.5814,4.58,0.0,4.58,4.58,0.0,0.0,0.0,4.578,4.58,4.5752,4.5684,4.5703,0.0,0.0,4.5613,4.5654,4.5926,4.6583,4.6685,4.6929,4.7609,4.7604,4.7467,4.7386,4.7156,4.6934,4.6912,4.6722,4.6527,4.6285,4.5902,4.581,4.5627,4.4894,4.4308,4.4214,4.3465,4.2899,4.2783,4.2703,4.2609,4.2724,4.257,4.2378,4.2311,4.218,4.1945,4.6394,4.5586,4.5586,4.5586,4.5586,4.5586,4.5586,4.5586,4.5586,4.5622,4.5622,4.5622,4.5274,4.46,4.4003,4.4061,4.4619,4.4639,4.5004,4.5601,4.562,4.562,4.5637,4.5673,4.5722,4.5715,4.5781,4.5833,4.5905,4.5972,4.6046,4.6093,4.6183,4.6195,4.6206,4.6273,4.629,4.6301,4.6301,4.63,4.63,4.6303,4.627,4.6234,4.6209,4.6146,4.6056,4.6017,4.5986,4.5941,4.5929,4.5925,4.5899,4.5887,0.0,0.0,0.0,0.0,0.0,0.0,0.0,0.0,0.0,4.5874,4.5847,0.0,4.5814,0.0,4.58,4.58,4.58,4.5805,0.0,0.0,4.5731,4.5712,4.5712,4.519,4.4789,4.4808,4.4758,4.4707,4.471,4.5199,4.5587,4.572,4.6244,4.6658,4.6755,4.7162,4.7371,4.72,4.6957,4.6817,4.6638,4.6457,4.6147,4.5987,4.5387,4.4876,4.4747,4.3923,4.3248,4.3228,4.2948,4.2649,4.245,4.2409,4.2328,4.224,4.2246,4.2287,4.2103,4.1892,4.1701,4.6047,4.5586,4.5586,4.5586,4.5586,4.5586,4.5586,4.5586,4.5586,4.5374,4.5009,4.4624,4.422,4.3739,4.3297,4.3355,4.3758,4.3758,4.4028,4.447,4.4489,4.447,4.4489,4.4889,4.5112,4.5179,4.5557,4.5805,4.5905,4.5929,4.5986,4.6113,4.6169,4.6203,4.6206,4.6273,4.629,4.6301,4.6306,4.6306,4.6292,4.626,4.624,4.6216,4.6169,4.6102,4.6007,4.5986,4.5972,4.5893,4.5867,4.5854,4.5852,4.5819,4.5791,0.0,0.0,0.0,0.0,0.0,0.0,0.0,0.0,0.0,0.0,0.0,4.5771,4.5757,4.5757,4.5752,4.5742,4.5757,4.5754,4.5709,4.5375,4.516,4.516,4.4411,4.3875,4.389,4.3843,4.3811,4.3794,4.4474,4.4919,4.4785,4.5475,4.5941,4.586,4.6101,4.6176,4.6043,4.5838,4.5611,4.5443,4.5216,4.501,4.4794,4.4326,4.3926,4.3735,4.326,4.2842,4.267,4.2552,4.2409,4.2222,4.2199,4.2115,4.1927,4.1927,4.1934,4.1821,4.1596,4.1346,4.5586,4.5586,4.5586,4.5586,4.5586,4.5586,4.5528,4.5432,4.5413,4.4932,4.4105,4.3278,4.2931,4.2931,4.2816,4.2835,4.2931,4.2931,4.2989,4.3085,4.3085,4.3085,4.3124,4.3816,4.427,4.4523,4.5218,4.5675,4.5886,4.5898,4.5975,4.6113,4.6181,4.6196,4.6206,4.6273,4.6293,4.6306,4.6404,4.6446,4.645,4.6401,4.6365,4.6352,4.6169,4.6066,4.5997,4.5983,4.5956,4.5893,4.5833,4.5805,4.5781,4.575,4.568,0.0,4.568,0.0,0.0,0.0,0.0,0.0,0.0,0.0,0.0,4.5795,4.5765,4.5715,4.568,4.5673,4.5689,4.5611,4.5533,4.5505,4.4804,4.4315,4.4295,4.3493,4.2903,4.2922,4.2909,4.2898,4.2864,4.3574,4.4019,4.3944,4.4532,4.4973,4.4938,4.4915,4.4851,4.4587,4.4401,4.4351,4.405,4.3793,4.3621,4.3461,4.3359,4.3104,4.2979,4.2832,4.2627,4.2369,4.2287,4.2181,4.2005,4.1962,4.1805,4.1429,4.1349,4.1341,4.1315,4.1138,4.0746,4.555,4.5586,4.5586,4.5586,4.5586,4.5586,4.5201,4.4547,4.4547,4.4085,4.3278,4.2412,4.2047,4.2008,4.1296,4.1393,4.2047,4.2047,4.2431,4.3085,4.3085,4.3085,4.3104,4.3239,4.3731,4.4465,4.4673,4.5133,4.5905,4.5898,4.5956,4.6113,4.6181,4.6196,4.6206,0.0,0.0,0.0,4.699,4.7331,4.727,4.7254,4.7223,4.7147,4.6425,0.0,4.5929,4.5932,4.588,4.5829,4.5795,0.0,0.0,0.0,0.0,0.0,0.0,0.0,0.0,0.0,0.0,0.0,4.5722,4.5712,4.5731,4.5715,4.5715,4.568,4.568,4.5696,4.5692,4.5047,4.4633,4.4542,4.3849,4.3368,4.333,4.253,4.1975,4.1956,4.1944,4.1948,4.2005,4.2621,4.3063,4.3063,4.363,4.4003,4.3964,4.4391,4.4667,4.4524,4.4248,4.3992,4.3818,4.3652,4.3424,4.3279,4.3087,4.2936,4.2832,4.258,4.2427,4.2287,4.2199,4.1987,4.171,4.1666,4.1376,4.056,4.0304,4.0249,4.0363,4.0266,3.9887,4.5531,4.5586,4.5586,4.5586,0.0,4.5141,4.4487,4.3739,4.4124,4.3605,4.2412,4.1527,4.1162,4.1143,4.07,4.0739,4.1162,4.1143,4.1393,4.1816,4.1816,4.1816,4.1816,4.2258,4.273,4.325,4.4094,4.4766,4.5304,4.5692,4.5975,4.6113,4.6181,4.6196,4.6206,4.6261,4.6307,4.6293,4.6745,4.6923,4.6874,4.6872,4.6839,4.6753,4.627,0.0,0.0,0.0,0.0,0.0,0.0,0.0,0.0,4.5651,0.0,4.5654,4.5671,4.5654,4.5654,4.5671,4.5481,4.5043,4.4636,4.4784,4.5629,4.5301,4.5032,4.5015,4.4652,4.4402,4.435,4.3965,4.3679,4.3585,4.2879,4.2401,4.2307,4.1598,4.1082,4.1063,4.1065,4.1031,4.0977,4.1647,4.2087,4.2126,4.2652,4.3061,4.3095,4.3969,4.4613,4.4411,4.4116,4.3865,4.3734,4.3566,4.3338,4.3121,4.2959,4.284,4.2606,4.2435,4.2246,4.2079,4.1927,4.1754,4.1542,4.1173,4.0682,4.012,3.9666,3.9168,3.8905,3.8928,3.8939,4.555,4.5586,4.5586,4.5586,4.5509,4.4677,4.3737,4.2893,0.0,0.0,0.0,4.0816,4.0489,4.0489,4.0489,4.0489,4.0489,4.0489,4.0489,4.0489,4.0489,4.0504,4.0562,4.1235,4.169,4.201,4.3516,4.4418,4.4742,4.553,4.5975,4.6093,4.6181,4.6203,4.6236,4.6273,4.6289,4.6301,4.6448,4.6499,4.6421,4.6424,4.6388,4.6336,4.6095,4.5964,4.5905,4.5841,4.5791,4.5781,4.5722,4.5673,4.5693,4.564,4.5586,4.5586,4.5586,4.5528,4.5393,4.5374,4.5007,4.4157,4.347,4.3717,4.5137,4.4575,4.4138,4.4085,4.3453,4.3069,4.2996,4.2823,4.2746,4.2673,4.1946,4.1468,4.1431,4.0839,4.0417,4.0362,4.0382,4.0326,4.0253,4.0826,4.1208,4.1189,4.1713,4.2196,4.2335,4.3408,4.4279,4.4229,4.4011,4.3753,4.3615,4.3444,4.3267,4.2977,4.2886,4.2742,4.24,4.2263,4.2139,4.1884,4.1692,4.1445,4.1216,4.0593,3.9964,3.9569,3.897,3.8259,3.7401,3.7545,3.77,4.5495,4.5586,4.5586,4.5586,4.5528,4.4677,4.3429,4.195,4.1316,4.0893,4.0662,4.0546,4.0489,4.0489,4.0489,4.0489,4.0489,4.0489,4.0489,4.0489,4.0489,4.0539,4.0573,4.0708,4.1195,4.2019,4.2941,4.3827,4.4711,4.5572,4.6035,4.6093,4.6157,4.6226,4.6277,4.6305,4.6289,4.6321,4.7034,4.7376,4.7318,4.7274,4.7237,4.7181,4.6355,4.5905,4.5899,4.5838,4.5781,4.5715,4.5706,4.5657,4.5603,4.5603,4.5586,4.5586,4.5586,4.5278,4.4549,4.4472,4.4124,4.3355,4.3109,4.3167,4.3412,4.3371,4.3258,4.3169,4.3015,4.2994,4.2876,4.2285,4.1871,4.1818,4.111,4.0572,4.0628,4.044,4.0289,4.0252,4.0215,4.0215,4.0157,4.0251,4.0346,4.0345,4.0886,4.1505,4.1964,4.2725,4.3445,4.3881,4.3915,4.3719,4.3513,4.3339,4.3142,4.2941,4.2736,4.2584,4.231,4.2154,4.1987,4.1841,4.1604,4.1181,4.0488,4.011,3.9378,3.8328,3.7784,3.7283,3.6535,3.6378,3.6253,4.5476,4.5586,4.5586,4.5316,4.4797,4.3506,4.2239,4.1085,4.0681,4.0489,4.0489,4.0489,4.0523,4.0558,4.0558,4.0554,4.0564,4.0564,4.0564,4.0564,4.0564,4.0564,4.0579,4.0579,4.0833,4.1345,4.2653,4.3531,4.4109,4.5354,4.6047,4.6154,4.6222,4.6264,4.6297,4.6288,4.6306,4.6303,4.6665,4.6825,4.68,4.6727,4.6666,4.6638,4.615,4.5893,4.586,4.5776,4.5715,4.5687,4.562,4.5568,4.555,4.5513,4.5303,4.488,4.4842,4.4458,4.3611,4.3131,4.2727,4.2345,4.1867,4.1601,4.1618,4.2076,4.2309,4.2272,4.1888,4.1562,4.1483,4.114,4.088,4.0883,4.0482,4.0234,4.0253,4.0215,4.0177,4.0157,4.0138,4.0137,4.0057,4.0057,3.9998,3.9937,4.0242,4.0602,4.1151,4.152,4.2118,4.3125,4.3518,4.3597,4.3444,4.3196,4.2977,4.2777,4.2562,4.2346,4.2179,4.198,4.1815,4.1604,4.1408,4.0958,4.011,3.9552,3.8708,3.7757,3.7008,3.6552,3.6088,3.5783,3.5678,4.5476,4.5586,4.5393,4.4701,4.364,4.2354,4.1296,4.0527,4.0489,4.0489,4.0504,4.0523,4.0539,4.0588,4.0603,4.0631,4.0621,4.064,4.0602,4.0615,4.0635,4.0648,4.0642,4.0642,4.0797,4.1176,4.262,4.3493,4.3928,4.5308,4.6093,4.6209,4.627,4.6287,4.6289,4.6289,4.6297,4.627,4.6209,4.6177,4.6196,4.6119,4.6056,4.6008,4.5914,4.5835,4.5805,4.575,4.5687,4.5673,4.5568,4.5495,4.5457,4.5247,4.4863,4.4269,4.4001,4.354,4.2675,4.1871,4.1393,4.1393,4.0781,4.0381,4.0419,4.0957,4.1377,4.1299,4.0802,4.0381,4.0362,4.0248,4.0176,4.0174,4.0133,4.0115,4.0096,4.0096,4.0096,4.0096,4.0077,4.0057,3.9994,3.9954,3.9895,3.9785,3.9698,3.9858,4.024,4.041,4.111,4.2117,4.2936,4.329,4.3248,4.3069,4.2828,4.2643,4.2444,4.2246,4.2048,4.1876,4.1692,4.1453,4.13,4.0728,3.9846,3.9088,3.8222,3.7256,3.6534,3.6053,3.5793,3.5508,3.5362,4.5457,4.547,4.478,4.3489,4.2117,4.187,4.1277,4.0546,4.0489,4.0489,4.0504,4.0573,4.0588,4.0588,4.0593,4.0654,4.07,4.07,4.0675,4.0694,4.0681,4.0718,4.0796,4.0815,4.1236,4.2053,4.3043,4.3909,4.4625,4.5604,4.6137,4.627,4.6303,4.6305,4.6285,4.6297,4.6273,4.6209,4.615,4.6142,4.6176,4.6075,4.5988,4.5996,4.5879,4.5805,4.5793,4.5761,4.5673,4.5622,4.555,4.5457,4.5323,4.471,4.4288,4.4154,4.3425,4.2676,4.1853,4.1015,4.0557,4.0513,4.0421,4.0289,4.0215,4.0292,4.0368,4.0423,4.0328,4.0215,4.0215,4.0157,4.012,4.0108,4.0084,4.0087,4.0095,4.0096,4.0077,4.0036,3.9996,3.9954,3.9867,3.9845,3.98,3.9727,3.9614,3.9556,3.9642,4.0011,4.0502,4.1336,4.2028,4.2671,4.2995,4.305,4.2806,4.2595,4.2404,4.221,4.2015,4.1868,4.1701,4.1408,4.123,4.0572,3.9448,3.856,3.7909,3.68,3.6112,3.5773,3.552,3.5268,3.5033,4.5476,4.5509,4.4664,4.3335,4.1828,4.1254,4.0835,4.0508,4.0489,4.0523,4.0554,4.0583,4.0612,4.066,4.0694,4.0745,4.0812,4.0837,4.0819,4.081,4.083,4.084,4.0897,4.1412,4.1868,4.2363,4.3607,4.4471,4.4943,4.578,4.6238,4.6241,4.6249,4.6246,4.6245,4.6201,4.6176,4.6146,4.6017,4.6008,4.6017,4.5975,4.5902,4.5879,4.5827,4.5754,4.568,4.5661,4.5605,4.5495,4.5419,4.515,4.4594,4.4228,4.3576,4.2621,4.1724,4.1112,4.0788,4.0425,4.0215,4.0215,4.0196,4.0177,4.0157,4.0138,4.0157,4.0177,4.0157,4.0118,4.0138,4.008,4.0059,4.0027,3.9958,3.9921,3.9911,3.9889,3.9867,3.9845,3.9826,3.9804,3.9758,3.9735,3.9731,3.9693,3.9602,3.9474,3.9429,3.9564,3.9851,4.0437,4.1071,4.1949,4.2796,4.29,4.2688,4.2472,4.2257,4.2079,4.1903,4.1754,4.1587,4.1318,4.0924,4.0179,3.8926,3.8102,3.7367,3.637,3.5827,3.556,3.5337,3.5065,3.4889,4.5323,4.5086,4.4068,4.2777,4.1424,4.0773,4.0489,4.0489,4.0489,4.0519,4.0588,4.0626,4.0668,4.072,4.0776,4.0843,4.0917,4.0932,4.1069,4.124,4.1292,4.1416,4.1675,4.2266,4.2753,4.3169,4.4241,4.4968,4.5304,4.5905,4.625,4.6208,4.6186,4.6177,4.6183,4.6122,4.6076,4.6027,4.5925,4.5854,4.5854,4.5827,4.58,4.5776,4.5731,4.5657,4.5573,4.5571,4.5495,4.538,4.5109,4.4645,4.4013,4.3512,4.2552,4.1222,4.0462,4.012,4.0117,4.0095,4.0095,4.0096,4.0096,4.0096,4.0077,4.0076,4.0036,4.0015,4.0015,3.9994,4.0034,3.9998,3.9937,3.9924,3.983,3.9773,3.9758,3.9731,3.9731,3.9708,3.9712,3.9708,3.9684,3.9684,3.9656,3.962,3.9532,3.9429,3.9339,3.9212,3.9293,3.9909,4.0514,4.1318,4.245,4.2714,4.2476,4.231,4.2127,4.197,4.1816,4.1674,4.1515,4.1202,4.053,3.9763,3.8822,3.7902,3.6925,3.6134,3.565,3.5362,3.5135,3.4936,3.4677,4.4996,4.4182,4.2604,4.147,4.0546,4.0508,4.0489,4.0489,4.0489,4.0539,4.0603,4.066,4.0732,4.0776,4.082,4.0893,4.1014,4.1065,4.151,4.2178,4.224,4.2672,4.3462,4.354,4.3937,4.4527,4.484,4.535,4.6035,4.6158,4.6206,4.6202,4.6137,4.6114,4.6085,4.6026,4.5975,4.5898,4.5822,4.5752,4.5696,4.5635,4.5637,4.569,4.5566,4.5515,4.5495,4.5437,4.5379,4.5317,4.4472,4.395,4.3735,4.2362,4.1125,4.0305,4.0155,4.0098,4.0096,4.0089,4.0087,4.0076,4.0057,4.0057,3.9975,3.9933,3.9889,3.9826,3.98,3.98,3.9867,3.9851,3.9788,3.975,3.9727,3.9708,3.9731,3.9708,3.9708,3.9708,3.9689,3.9684,3.9693,3.9645,3.9596,3.952,3.9444,3.9346,3.9229,3.9036,3.9243,3.9755,4.0372,4.1012,4.1651,4.2276,4.2476,4.2287,4.2097,4.1919,4.1754,4.1576,4.137,4.1087,4.0422,3.9673,3.8715,3.7734,3.6695,3.5943,3.5492,3.5211,3.493,3.4691,3.4464,4.4651,4.3431,4.2277,4.1296,4.0527,4.0489,4.0489,4.0489,4.0489,4.0554,4.0612,4.0654,4.075,4.0869,4.0902,4.1259,4.1797,4.1872,4.2341,4.3086,4.3124,4.3298,4.3628,4.4153,4.4563,4.4911,4.5453,4.5863,4.6086,4.6142,4.6107,4.606,4.5998,4.5964,4.5956,4.5874,4.578,4.5752,4.5665,4.5582,4.5584,4.5495,4.5458,4.5438,4.5438,4.5438,4.5376,4.5297,4.5006,4.4426,4.404,4.3349,4.2281,4.1098,4.0336,4.0011,3.9954,3.9954,3.9911,3.9902,3.9876,3.9845,3.9826,3.9845,3.9804,3.9781,3.9777,3.9735,3.9712,3.9731,3.975,3.9735,3.9717,3.9708,3.9717,3.9693,3.9698,3.9674,3.965,3.965,3.9631,3.965,3.9626,3.962,3.9571,3.9514,3.944,3.9341,3.9166,3.8989,3.898,3.908,3.9564,4.0162,4.0635,4.1761,4.2374,4.2163,4.197,4.1823,4.1666,4.1513,4.1342,4.1122,4.0492,3.9496,3.8504,3.7137,3.6158,3.5694,3.5258,3.5068,3.4818,3.4546,3.4349,4.388,4.2662,4.1739,4.1046,4.0527,4.0489,4.0489,4.0489,4.0489,4.0515,4.0607,4.0681,4.0773,4.0896,4.0987,4.1651,4.2602,4.2538,4.299,4.3946,4.3997,4.4143,4.4465,4.5011,4.5279,4.5325,4.5813,4.6091,4.6037,4.6033,4.6022,4.5964,4.5898,4.5848,4.5852,4.575,4.5668,4.5635,4.5549,4.5476,4.5438,4.5438,4.5359,4.5317,4.5317,4.5297,4.5254,4.517,4.4744,4.3935,4.3506,4.253,4.0934,4.0189,3.9845,3.9845,3.9829,3.9829,3.9781,3.9746,3.9741,3.9708,3.9708,3.9708,3.9708,3.9708,3.9703,3.9703,3.9661,3.9637,3.9674,3.9674,3.9661,3.9661,3.9688,3.9658,3.9669,3.9626,3.962,3.962,3.962,3.962,3.962,3.9602,3.9552,3.9488,3.9386,3.9259,3.9082,3.8979,3.8803,3.8614,3.9134,3.9748,4.0292,4.1196,4.2002,4.1913,4.1892,4.1727,4.1569,4.1461,4.1261,4.1087,4.0394,3.9364,3.8094,3.6678,3.5881,3.5388,3.5098,3.4922,3.4658,3.4414,3.4198,4.2643,4.1797,4.0893,4.0546,4.0489,4.0489,4.0489,4.0489,4.0489,4.0534,4.0607,4.0675,4.0754,4.0897,4.096,4.1909,4.3026,4.275,4.3415,4.4791,4.4842,4.5223,4.5869,4.5899,4.592,4.5871,4.5914,4.5917,4.5925,4.5899,4.5893,4.586,4.5824,4.5795,4.58,4.5671,4.5605,4.5568,4.5476,4.54,4.5418,4.5379,4.5378,4.5297,4.5192,4.5125,4.5084,4.5038,4.4588,4.3744,4.2858,4.152,4.0132,3.975,3.9731,3.9717,3.9709,3.9709,3.9712,3.9712,3.9707,3.9703,3.9708,3.9665,3.9684,3.9679,3.9693,3.9693,3.9551,3.9508,3.9489,3.937,3.9451,3.962,3.962,3.962,3.962,3.962,3.962,3.962,3.962,3.962,3.9602,3.9564,3.9471,3.9399,3.9276,3.9138,3.9026,3.8921,3.8755,3.8651,3.8864,3.928,3.9948,4.0613,4.1256,4.1729,4.1785,4.1709,4.1569,4.1398,4.1261,4.1041,4.0308,3.925,3.8025,3.6695,3.5857,3.5375,3.5115,3.4795,3.4545,3.4282,3.4062,4.2585,4.172,4.0854,4.0489,4.0489,4.0489,4.0489,4.0489,4.0489,4.0519,4.0598,4.0668,4.075,4.083,4.0953,4.1627,4.269,4.3076,4.4133,4.5472,4.5665,4.5784,4.5977,4.5991,4.5937,4.5867,4.5847,4.5819,4.5819,4.5776,4.5765,4.5754,4.5758,4.5726,4.5673,4.5531,4.5476,4.5457,4.538,4.5319,4.5338,4.5338,4.5297,4.5254,4.5148,4.508,4.5033,4.4967,4.4497,4.3672,4.2777,4.1501,4.009,3.9708,3.9708,3.9689,3.9717,3.9717,3.9698,3.9707,3.9677,3.965,3.965,3.9631,3.965,3.9607,3.9607,3.9532,3.9113,3.8713,3.8638,3.8171,3.8396,3.9483,3.962,3.9583,3.962,3.962,3.962,3.962,3.962,3.962,3.9602,3.9521,3.9452,3.9399,3.924,3.909,3.8958,3.8822,3.867,3.8519,3.8673,3.8865,3.9499,4.006,4.0606,4.1255,4.1541,4.1666,4.148,4.1353,4.1215,4.0851,4.01,3.9179,3.7955,3.6844,3.5988,3.5285,3.488,3.4625,3.4431,3.4167,3.3912,4.2412,4.1296,4.0719,4.0489,4.0489,4.0489,4.0489,4.0489,4.0489,4.0539,4.0603,4.064,4.0713,4.0798,4.0913,4.1473,4.2298,4.2929,4.4042,4.552,4.6016,4.6046,4.5949,4.586,4.5805,4.5761,4.5735,4.5738,4.5719,4.5687,4.5671,4.5657,4.5657,4.564,4.5586,4.5457,4.54,4.54,4.5339,4.5297,4.5277,4.5277,4.5275,4.5233,4.5148,4.508,4.5014,4.4962,4.4467,4.3523,4.2435,4.1084,3.9811,3.9661,3.9661,3.9661,3.9661,3.9656,3.9669,3.9664,3.9658,3.962,3.962,3.962,3.9564,3.9389,3.9107,3.8995,3.8357,3.785,3.7751,3.7464,3.7628,3.8507,3.8914,3.9258,3.9483,3.962,3.962,3.962,3.962,3.9577,3.9552,3.9502,3.9408,3.9328,3.9185,3.9039,3.8918,3.8799,3.8609,3.8401,3.8295,3.8596,3.9031,3.9524,3.9975,4.0665,4.1321,4.1429,4.1471,4.1331,4.118,4.0745,4.0062,3.946,3.832,3.7071,3.6111,3.5473,3.4952,3.4578,3.4349,3.4016,3.3793,4.2085,4.0566,4.0489,4.0489,4.0489,4.0489,4.0489,4.0489,4.0489,4.0539,4.0569,4.0593,4.0662,4.08,4.0849,4.1338,4.2134,4.2422,4.332,4.4699,4.5533,4.5891,4.5873,4.5791,4.5715,4.569,4.5637,4.5603,4.562,4.5603,4.5586,4.5603,4.5603,4.5586,4.5568,4.5457,4.54,4.54,4.5339,4.5297,4.5277,4.5277,4.5297,4.5275,4.517,4.5103,4.5038,4.4943,4.4405,4.336,4.1876,4.0691,3.9827,3.962,3.9602,3.9602,3.962,3.962,3.962,3.962,3.962,3.962,3.962,3.962,3.9545,3.8939,3.8469,3.8394,3.7587,3.7024,3.7024,3.6817,3.6892,3.7117,3.7938,3.8708,3.937,3.9526,3.962,3.9577,3.9577,3.9552,3.952,3.9433,3.932,3.9227,3.9082,3.8947,3.8877,3.8738,3.8578,3.8368,3.8119,3.8184,3.8582,3.9358,3.981,4.0206,4.0944,4.1385,4.138,4.1238,4.1056,4.0573,4.0189,3.9569,3.8783,3.758,3.6636,3.6042,3.5449,3.4759,3.443,3.4341,3.405,4.2085,4.0546,4.0489,4.0489,4.0489,4.0489,4.0489,4.0489,4.0489,4.0523,4.0539,4.0588,4.0646,4.0726,4.0781,4.1024,4.1473,4.2052,4.29,4.3982,4.484,4.5442,4.5732,4.5761,4.5703,4.5673,4.564,4.5586,4.5586,4.5586,4.5586,4.5586,4.5586,4.5568,4.5513,4.5438,4.54,4.538,4.5338,4.5277,4.5277,4.5277,4.5275,4.5213,4.5148,4.5061,4.5014,4.4865,4.4046,4.2655,4.2058,4.1022,3.9789,3.962,3.962,3.962,3.962,3.962,3.962,3.962,3.962,3.962,3.962,3.962,3.9583,3.8788,3.8357,3.8075,3.7099,3.6216,3.6104,3.5672,3.5638,3.6265,3.7399,3.8351,3.8713,3.9226,3.962,3.962,3.9571,3.952,3.9476,3.9376,3.9231,3.9136,3.8998,3.8888,3.8787,3.8627,3.8465,3.8238,3.8036,3.7988,3.8259,3.9085,3.9633,3.9929,4.0591,4.141,4.129,4.1093,4.0858,4.0546,4.0331,3.9861,3.9109,3.8187,3.7452,3.6686,3.624,3.5729,3.5447,3.5293,3.4784,4.2085,4.0508,4.0489,4.0489,4.0489,4.0489,4.0489,4.0489,4.0489,4.0489,4.0523,4.0539,4.0583,4.0668,4.0732,4.0837,4.1069,4.1883,4.2818,4.3789,4.4922,4.5587,4.5796,4.5771,4.5735,4.569,4.5657,4.5622,4.5603,4.5586,4.5586,4.5586,4.5568,4.5531,4.5514,4.5419,4.5419,4.5398,4.5338,4.5277,4.5277,4.5277,4.5275,4.5192,4.5125,4.5038,4.4943,4.4796,4.3919,4.2574,4.2001,4.1267,3.9802,3.962,3.962,3.962,3.962,3.962,3.962,3.962,3.962,3.962,3.962,3.962,3.9376,3.8544,3.7793,3.7624,3.6273,3.5522,3.5277,3.4864,3.5074,3.5901,3.7047,3.7925,3.8244,3.907,3.9545,3.9596,3.9546,3.9469,3.9451,3.9305,3.9171,3.9082,3.8968,3.8865,3.8719,3.8519,3.8336,3.8138,3.7967,3.7935,3.8168,3.8904,3.9704,3.9958,4.0541,4.1338,4.1233,4.1,4.0776,4.0583,4.0436,4.0119,3.943,3.8688,3.805,3.7415,3.7069,3.6653,3.6282,3.5918,3.5471,4.22,4.0642,4.0642,4.0566,4.0508,4.0489,4.0489,4.0489,4.0489,4.0504,4.0504,4.0504,4.0564,4.0621,4.0713,4.0834,4.114,4.196,4.2912,4.4043,4.5216,4.5988,4.5898,4.5808,4.5761,4.5706,4.569,4.5657,4.5603,4.5586,4.5586,4.5568,4.5531,4.5495,4.5477,4.5419,4.5379,4.5359,4.5317,4.5277,4.5256,4.5275,4.5254,4.5148,4.5103,4.501,4.4895,4.4695,4.3995,4.241,4.2152,4.1191,3.9902,3.962,3.962,3.962,3.962,3.962,3.962,3.962,3.962,3.962,3.962,3.962,3.9357,3.8319,3.7493,3.753,3.5709,3.5108,3.4961,3.4811,3.5259,3.6081,3.685,3.7549,3.8244,3.907,3.962,3.9596,3.9502,3.9469,3.938,3.9272,3.9144,3.8998,3.8902,3.8787,3.8651,3.8501,3.8271,3.807,3.7951,3.7864,3.8275,3.8762,3.9509,4.0129,4.071,4.1272,4.1163,4.0974,4.0714,4.0534,4.0387,4.0121,3.9715,3.9037,3.8463,3.8088,3.7738,3.7179,3.6632,3.638,3.5959,4.3047,4.1527,4.1508,4.1123,4.0566,4.0489,4.0527,4.0546,4.0546,4.0693,4.0611,4.0611,4.0703,4.0759,4.0943,4.1177,4.1949,4.2382,4.3112,4.466,4.5598,4.6017,4.5972,4.5854,4.5757,4.57,4.569,4.5657,4.5603,4.5586,4.5568,4.5513,4.5495,4.5457,4.5438,4.5399,4.5359,4.5338,4.5277,4.5275,4.5213,4.5213,4.517,4.5061,4.4991,4.4943,4.487,4.477,4.4221,4.3309,4.2415,4.1398,4.0046,3.9639,3.962,3.962,3.962,3.962,3.962,3.962,3.962,3.962,3.9596,3.962,3.9564,3.8657,3.8075,3.7774,3.661,3.5694,3.5587,3.5619,3.6028,3.6738,3.7512,3.8056,3.8413,3.9089,3.9514,3.952,3.9451,3.9373,3.9275,3.9183,3.9073,3.8962,3.8847,3.8738,3.8596,3.8433,3.8238,3.8002,3.7898,3.7846,3.8042,3.8744,3.9734,4.0363,4.0946,4.1215,4.1151,4.0896,4.0666,4.0436,4.0288,4.0037,3.9713,3.9487,3.8927,3.8644,3.8379,3.7987,3.7517,3.7052,3.6658,4.3566,4.245,4.2412,4.2143,4.1758,4.172,4.17,4.1736,4.1713,4.1763,4.1812,4.1808,4.1873,4.1955,4.202,4.2403,4.2909,4.3381,4.4233,4.537,4.5963,4.6037,4.5972,4.5874,4.5771,4.5696,4.5684,4.5654,4.5603,4.5568,4.555,4.5495,4.5477,4.5419,4.5398,4.5359,4.5317,4.5256,4.5254,4.5233,4.517,4.5148,4.5106,4.4991,4.4943,4.4895,4.4895,4.4789,4.4285,4.3592,4.2904,4.1867,4.0403,3.9802,3.9639,3.962,3.962,3.962,3.962,3.962,3.962,3.962,3.9571,3.9571,3.9358,3.8733,3.8278,3.7959,3.7173,3.6358,3.6384,3.6408,3.6813,3.7446,3.8013,3.8426,3.8814,3.9264,3.9546,3.9469,3.9399,3.9283,3.9183,3.9101,3.9017,3.8915,3.8803,3.87,3.8483,3.8318,3.8138,3.7967,3.7863,3.7829,3.7952,3.8744,4.0047,4.0647,4.1163,4.125,4.1202,4.0879,4.0583,4.0436,4.0238,3.9935,3.9677,3.9537,3.9325,3.887,3.8603,3.8567,3.8383,3.7728,3.7398,4.4028,4.3278,4.3278,4.3201,4.3104,4.3047,4.297,4.3025,4.3096,4.2946,4.3183,4.3225,4.3053,4.333,4.3287,4.3518,4.3989,4.4667,4.5475,4.5979,4.6046,4.6046,4.5968,4.586,4.5771,4.5696,4.5684,4.5651,4.5603,4.5531,4.5495,4.5457,4.5438,4.5399,4.5378,4.5317,4.5256,4.5213,4.5211,4.5148,4.5103,4.5061,4.5038,4.4967,4.4919,4.4895,4.487,4.4777,4.4436,4.3731,4.3476,4.257,4.1417,4.029,3.9783,3.9808,3.9752,3.962,3.962,3.962,3.962,3.9577,3.9546,3.9495,3.9308,3.892,3.8577,3.8159,3.7661,3.7098,3.7096,3.7132,3.7585,3.8184,3.8458,3.8771,3.9252,3.9469,3.9444,3.9444,3.9328,3.921,3.9156,3.9092,3.899,3.8896,3.8768,3.8643,3.8423,3.8252,3.807,3.7933,3.7828,3.8292,3.8498,3.9135,4.04,4.091,4.1363,4.1285,4.1138,4.0814,4.0551,4.0387,4.0188,3.9884,3.9642,3.9484,3.9202,3.8931,3.8766,3.8688,3.848,3.831,3.8072,4.4891,4.4102,4.4105,4.3739,4.3165,4.3124,4.3195,4.3111,4.3293,4.3236,4.3363,4.3369,4.3552,4.3597,4.3576,4.3989,4.4785,4.5476,4.5943,4.6102,4.6047,4.5983,4.5899,4.5847,4.5757,4.5696,4.5668,4.5637,4.5586,4.5531,4.5457,4.5419,4.54,4.5359,4.5317,4.5254,4.5213,4.517,4.5148,4.5061,4.5033,4.5014,4.4991,4.4938,4.4895,4.4895,4.487,4.4821,4.4688,4.4466,4.3785,4.3281,4.2626,4.1436,4.076,4.0478,4.0034,3.9771,3.9752,3.9639,3.962,3.9596,3.952,3.9514,3.9413,3.9294,3.8992,3.8842,3.8376,3.7885,3.7909,3.791,3.8334,3.8894,3.9144,3.92,3.9343,3.9328,3.9283,3.9275,3.921,3.9183,3.9101,3.9064,3.897,3.8865,3.8732,3.8611,3.8416,3.8225,3.807,3.7898,3.781,3.8522,3.9199,3.9921,4.0806,4.1139,4.1426,4.1267,4.1086,4.0796,4.0502,4.0387,4.0138,3.9781,3.9573,3.9432,3.9202,3.8876,3.8782,3.8704,3.8537,3.831,3.8123,4.5372,4.4987,4.5024,4.4793,4.4482,4.4441,4.4473,4.45,4.4544,4.4614,4.4691,4.478,4.4822,4.4898,4.4935,4.5227,4.5607,4.5897,4.6107,4.6056,4.5983,4.5925,4.5847,4.5771,4.5731,4.5703,4.5673,4.5603,4.555,4.5476,4.5438,4.54,4.5359,4.5298,4.5256,4.5213,4.517,4.5125,4.5061,4.5014,4.4962,4.4943,4.4919,4.4895,4.4895,4.4895,4.487,4.4821,4.4789,4.4669,4.4308,4.4086,4.3619,4.2916,4.1919,4.1417,4.0691,4.0209,4.0096,3.9927,3.962,3.9577,3.952,3.9444,3.9418,3.9328,3.9275,3.9136,3.9024,3.8614,3.8603,3.8603,3.8883,3.9181,3.9339,3.9346,3.9301,3.9229,3.9183,3.9156,3.9156,3.9129,3.9101,3.9017,3.895,3.8803,3.8701,3.8556,3.8404,3.8178,3.7985,3.8133,3.8133,3.8841,3.966,4.0412,4.1036,4.1367,4.1471,4.1313,4.1163,4.0875,4.0648,4.0485,4.0188,3.9781,3.9642,3.9484,3.9202,3.8914,3.8821,3.8727,3.852,3.8294,3.8164,4.5622,4.5622,4.5693,4.5687,4.57,4.5715,4.5708,4.581,4.5756,4.5796,4.6014,4.6047,4.6044,4.6157,4.6134,4.6169,4.6211,4.6127,4.6066,4.6005,4.5956,4.588,4.5805,4.5746,4.5684,4.569,4.564,4.5568,4.5513,4.5438,4.5419,4.5399,4.5338,4.5275,4.5233,4.517,4.5103,4.5014,4.4967,4.4943,4.4895,4.4895,4.4895,4.4895,4.4895,4.4895,4.4895,4.4846,4.4821,4.477,4.4707,4.4648,4.4519,4.3984,4.3299,4.2532,4.1619,4.1155,4.086,4.0322,3.9977,3.9977,3.957,3.9462,3.9373,3.9301,3.9129,3.9101,3.9064,3.9036,3.8998,3.9119,3.9156,3.9193,3.9266,3.9301,3.9229,3.9156,3.9156,3.9129,3.9101,3.9101,3.9073,3.8989,3.8921,3.8803,3.867,3.8506,3.8368,3.8092,3.8024,3.8331,3.865,3.9284,4.0037,4.0772,4.1266,4.1543,4.1488,4.1324,4.1175,4.0987,4.081,4.0534,4.0171,3.9833,3.9677,3.9484,3.9202,3.8985,3.886,3.8694,3.8504,3.8408,3.8278,4.5695,4.568,4.5687,4.5688,4.5694,4.5757,4.5791,4.5814,4.5925,4.6014,4.6095,4.616,4.619,4.6209,4.6215,4.6195,4.6169,4.6065,4.6016,4.5972,4.5919,4.5852,4.5795,4.5731,4.5687,4.5673,4.5622,4.5568,4.5495,4.5419,4.54,4.536,4.5317,4.5275,4.5192,4.5148,4.508,4.501,4.4962,4.4895,4.4895,4.4895,4.4895,4.4895,4.4895,4.4895,4.4895,4.487,4.4865,4.4796,4.4796,4.4764,4.4648,4.4576,4.4455,4.3856,4.2927,4.1856,4.1763,4.113,4.056,4.0416,3.9958,3.9589,3.9444,3.9328,3.9156,3.9101,3.9101,3.9082,3.9082,3.9101,3.9101,3.912,3.9147,3.9156,3.9129,3.9129,3.9129,3.9129,3.9101,3.9101,3.9101,3.9007,3.891,3.8773,3.867,3.8492,3.8404,3.8218,3.8133,3.8473,3.9276,3.9943,4.0357,4.1091,4.1442,4.1719,4.1568,4.138,4.1198,4.1047,4.0858,4.0583,4.0221,3.9969,3.9781,3.9573,3.9255,3.904,3.886,3.8639,3.8448,3.8391,3.8335,4.5722,4.5709,4.5746,4.5761,4.5757,4.5867,4.5912,4.5929,4.6016,4.6105,4.6149,4.6177,4.6222,4.6249,4.6231,4.6176,4.6127,4.6027,4.5964,4.5937,4.586,4.581,4.5731,4.5703,4.569,4.5657,4.5603,4.5531,4.5457,4.5419,4.538,4.5319,4.5317,4.5254,4.517,4.5125,4.5038,4.4967,4.4938,4.4895,4.4895,4.4895,4.4895,4.4895,4.4895,4.4895,4.4895,4.4895,4.4914,4.4846,4.4865,4.4821,4.4745,4.4693,4.464,4.4503,4.3922,4.3238,4.2712,4.1954,4.1386,4.0848,4.0359,4.0019,3.9612,3.9373,3.9256,3.9156,3.9156,3.9156,3.9082,3.9082,3.9101,3.9101,3.9101,3.9101,3.9101,3.9101,3.9101,3.9101,3.9101,3.9101,3.9073,3.896,3.891,3.8851,3.8689,3.851,3.8534,3.8651,3.86,3.8685,3.9646,4.0677,4.0966,4.1392,4.1601,4.178,4.1639,4.1471,4.1255,4.1071,4.0901,4.0728,4.0436,4.0171,3.9986,3.9677,3.9379,3.9094,3.886,3.8672,3.8537,3.8408,3.8351,4.5776,4.5757,4.5814,4.5841,4.5856,4.5964,4.6005,4.6027,4.6104,4.6158,4.6196,4.6222,4.625,4.6245,4.6209,4.6154,4.6091,4.5997,4.5929,4.588,4.5819,4.5746,4.5715,4.5687,4.5657,4.5586,4.5603,4.5513,4.5438,4.54,4.538,4.5298,4.5297,4.5233,4.5148,4.5103,4.5038,4.4919,4.4895,4.4895,4.4895,4.4895,4.4895,4.4895,4.4895,4.4895,4.4895,4.4895,4.4895,4.4895,4.4895,4.487,4.4821,4.4738,4.4685,4.4613,4.4325,4.4074,4.3492,4.2817,4.198,4.1292,4.0497,3.997,3.9556,3.9418,3.9373,3.9256,3.9275,3.9202,3.9147,3.9129,3.9129,3.9101,3.9101,3.9101,3.9101,3.9101,3.9101,3.9101,3.9101,3.9101,3.9045,3.896,3.8892,3.8862,3.8707,3.8532,3.8769,3.9067,3.9426,3.9562,4.011,4.1105,4.1546,4.1735,4.1884,4.1824,4.1684,4.1542,4.1311,4.1174,4.1024,4.0853,4.0631,4.032,4.007,3.9729,3.9484,3.9202,3.8985,3.876,3.8625,3.8497,3.8351,4.5833,4.5893,4.5886,4.5936,4.5968,4.5978,4.6027,4.6093,4.6149,4.6196,4.6225,4.625,4.6267,4.6201,4.6144,4.6091,4.6085,4.5953,4.5905,4.5874,4.5824,4.5765,4.57,4.5671,4.5676,4.5603,4.5586,4.5513,4.5419,4.5419,4.538,4.5317,4.5297,4.5213,4.5148,4.5103,4.5014,4.4919,4.4895,4.4895,4.4895,4.4895,4.4895,4.4895,4.4895,4.4895,4.4895,4.4895,4.4895,4.4895,4.4895,4.4895,4.4846,4.4764,4.4712,4.4659,4.4551,4.4383,4.4055,4.3567,4.2844,4.1811,4.0835,4.004,3.9738,3.957,3.9488,3.941,3.9373,3.932,3.9239,3.9193,3.9156,3.9147,3.912,3.9101,3.9101,3.9101,3.9101,3.9101,3.912,3.9175,3.9342,3.933,3.9013,3.8936,3.9022,3.8855,3.937,3.9734,4.0342,4.0677,4.0846,4.1448,4.2037,4.2139,4.2005,4.1894,4.1771,4.1596,4.1393,4.1276,4.1163,4.0948,4.0728,4.0419,4.0171,3.9918,3.9625,3.9309,3.9056,3.8815,3.8609,3.8497,3.8367,4.5899,4.5956,4.6007,4.6035,4.6057,4.6099,4.6138,4.6169,4.624,4.6251,4.6269,4.629,4.6275,4.6196,4.6123,4.6054,4.6037,4.5941,4.5912,4.586,4.581,4.5731,4.5684,4.5654,4.5622,4.5586,4.5549,4.5495,4.5419,4.5419,4.536,4.5298,4.5277,4.5235,4.517,4.508,4.4991,4.4919,4.4895,4.4895,4.4895,4.4895,4.4895,4.4895,4.4895,4.4895,4.4895,4.4895,4.4895,4.4895,4.4895,4.4895,4.487,4.477,4.4712,4.4685,4.4578,4.4515,4.4496,4.4139,4.367,4.2844,4.1773,4.0828,4.0352,4.0296,3.9933,3.972,3.9582,3.9642,3.9402,3.9275,3.9165,3.9147,3.9212,3.9268,3.9324,3.9454,3.9454,3.9602,3.9454,3.9342,3.9565,3.9774,3.9364,3.9029,3.9122,3.9351,3.9914,4.0436,4.1025,4.1378,4.1529,4.1685,4.2198,4.2181,4.2072,4.1927,4.1841,4.1657,4.1499,4.1401,4.129,4.1059,4.0823,4.0631,4.037,4.0121,3.9816,3.9468,3.9148,3.8892,3.8688,3.848,3.8367,4.5937,4.603,4.6084,4.6115,4.6137,4.6177,4.6209,4.6226,4.627,4.6269,4.6261,4.6275,4.6248,4.6196,4.6111,4.6056,4.5986,4.5929,4.5887,4.5833,4.5761,4.568,4.5668,4.5637,4.5605,4.5568,4.5513,4.5476,4.5419,4.5418,4.5359,4.5317,4.5277,4.5256,4.517,4.508,4.4967,4.4919,4.4895,4.4895,4.4895,4.4895,4.4895,4.4895,4.4895,4.4895,4.4895,4.4895,4.4895,4.4895,4.4895,4.4895,4.4846,4.4815,4.4764,4.4685,4.4605,4.4542,4.4515,4.4186,4.3905,4.3163,4.2412,4.168,4.1342,4.1154,4.0877,4.054,4.0345,4.0195,4.0087,4.0248,4.0244,4.0393,4.0309,4.0347,4.0281,4.029,4.0197,4.0178,4.0085,4.0215,4.0306,4.0589,4.0357,4.011,4.0391,4.0564,4.0836,4.1286,4.1692,4.1916,4.2016,4.2132,4.2287,4.2181,4.2079,4.1966,4.1881,4.1719,4.1552,4.1498,4.138,4.1134,4.0948,4.0823,4.0566,4.0271,3.9918,3.9625,3.9292,3.8936,3.8688,3.8553,3.8424,4.5991,4.6104,4.6171,4.6201,4.6189,4.6211,4.6238,4.6258,4.623,4.6219,4.6201,4.6209,4.6196,4.6154,4.6066,4.6016,4.5991,4.5932,4.5866,4.581,4.5731,4.5703,4.5654,4.564,4.5568,4.5513,4.5476,4.5438,4.5418,4.5398,4.5338,4.5317,4.5297,4.5235,4.5211,4.508,4.4986,4.4914,4.4895,4.4895,4.4895,4.4895,4.4895,4.4895,4.4895,4.4895,4.4895,4.4895,4.4895,4.4895,4.4895,4.4895,4.487,4.4821,4.477,4.4789,4.4659,4.4616,4.4552,4.3802,4.3567,4.3482,4.2919,4.2355,4.2066,4.1954,4.1822,4.141,4.1541,4.1649,4.175,4.168,4.1474,4.1334,4.1241,4.1156,4.1025,4.0987,4.0857,4.0754,4.1163,4.1497,4.1456,4.144,4.1328,4.1357,4.1651,4.1832,4.185,4.1975,4.2253,4.2243,4.2306,4.2279,4.2305,4.2205,4.2086,4.2015,4.1913,4.177,4.1631,4.1515,4.138,4.1226,4.1088,4.0901,4.0662,4.037,4.0037,3.9713,3.9332,3.8995,3.8766,3.8569,3.8497,4.6037,4.6182,4.6228,4.6223,4.6205,4.621,4.6229,4.6286,4.6241,4.6201,4.619,4.6154,4.6102,4.6066,4.6026,4.598,4.5932,4.5874,4.5805,4.58,4.5719,4.5706,4.5657,4.5605,4.5532,4.5495,4.5458,4.5438,4.5398,4.5378,4.5338,4.5277,4.5275,4.5211,4.5148,4.508,4.5033,4.4919,4.4895,4.4895,4.4895,4.4895,4.4895,4.4895,4.4895,4.4895,4.4895,4.4895,4.4895,4.4895,4.4895,4.4895,4.4895,4.4821,4.4796,4.4796,4.4712,4.4678,4.4651,4.4342,4.4213,4.3998,4.3764,4.3275,4.2994,4.2881,4.2581,4.2243,4.2262,4.2194,4.1924,4.1886,4.1753,4.1736,4.1642,4.1566,4.1529,4.151,4.1454,4.1359,4.1571,4.2062,4.2205,4.2409,4.2345,4.2154,4.2357,4.245,4.2486,4.2482,4.2598,4.2519,4.2472,4.2409,4.2305,4.2246,4.2151,4.2062,4.1973,4.1892,4.1736,4.1577,4.1471,4.1318,4.118,4.1041,4.0758,4.0468,4.0138,3.9799,3.959,3.9276,3.8969,3.8776,3.8585,4.6102,4.6212,4.6241,4.6245,4.6209,4.6212,4.6217,4.6225,4.619,4.6174,4.6158,4.6095,4.6047,4.6005,4.5949,4.5912,4.586,4.5805,4.5761,4.577,4.5742,4.5673,4.5603,4.555,4.5495,4.5477,4.5419,4.5379,4.5378,4.5337,4.5297,4.5277,4.5275,4.5192,4.5125,4.508,4.501,4.4919,4.4895,4.4895,4.4895,4.4895,4.4895,4.4895,4.4895,4.4895,4.4895,4.4895,4.4895,4.4895,4.4895,4.4895,4.487,4.4846,4.4821,4.4821,4.4796,4.4745,4.4693,4.4688,4.4561,4.4511,4.4578,4.4334,4.3893,4.378,4.3517,4.3171,4.2844,4.2844,4.2825,4.2704,4.2658,4.2632,4.2632,4.2576,4.2574,4.2621,4.2563,4.2411,4.2333,4.273,4.2959,4.3262,4.3434,4.3225,4.3043,4.3067,4.3014,4.2938,4.284,4.2724,4.2606,4.2486,4.2387,4.2328,4.2216,4.2085,4.2015,4.1977,4.185,4.1692,4.155,4.1426,4.1353,4.1169,4.0871,4.0583,4.0492,4.0341,4.0237,3.9807,3.9251,3.9062,3.8988,4.6125,4.6203,4.6204,4.6212,4.6196,4.6177,4.6162,4.6107,4.6102,4.6095,4.6095,4.6014,4.598,4.5968,4.5854,4.58,4.5786,4.5727,4.5719,4.5706,4.5693,4.5622,4.5568,4.5513,4.5476,4.5438,4.5418,4.5379,4.5337,4.5297,4.5297,4.5297,4.5275,4.5213,4.5125,4.508,4.501,4.4938,4.4895,4.4895,4.4895,4.4895,4.4895,4.4895,4.4895,4.4895,4.4895,4.4895,4.4895,4.4895,4.4895,4.4895,4.4895,4.4895,4.4895,4.4876,4.4833,4.4777,4.4726,4.4745,4.472,4.4719,4.4712,4.4674,4.4591,4.4406,4.4191,4.4146,4.4006,4.4185,4.4289,4.4195,4.4074,4.4065,4.4046,4.4027,4.4015,4.3975,4.3927,4.3781,4.3646,4.3745,4.3658,4.3899,4.3868,4.3656,4.3382,4.3246,4.3214,4.3013,4.2899,4.2783,4.2667,4.2526,4.2445,4.2387,4.231,4.218,4.2098,4.2019,4.1894,4.1789,4.1692,4.1568,4.1495,4.1435,4.154,4.1383,4.1067,4.0968,4.1052,4.0687,4.0192,3.9781,3.9578,4.6147,4.6212,4.6207,4.6181,4.6123,4.6075,4.6047,4.6027,4.6026,4.6014,4.5972,4.5899,4.586,4.5852,4.5776,4.5761,4.5731,4.5719,4.5687,4.5673,4.5676,4.5622,4.5568,4.5513,4.5476,4.5477,4.5457,4.5494,4.5416,4.5376,4.5392,4.5297,4.5545,4.5404,4.5322,4.5163,4.5147,4.5095,4.5109,4.4976,4.4976,4.4995,4.4976,4.4933,4.4919,4.4919,4.4919,4.4919,4.4919,4.4895,4.4895,4.4895,4.4895,4.4895,4.4895,4.4895,4.4876,4.4852,4.4827,4.4833,4.4833,4.4827,4.4821,4.477,4.4719,4.4667,4.4667,4.4659,4.4605,4.4597,4.4561,4.4533,4.4496,4.4477,4.4458,4.4421,4.4373,4.4344,4.4285,4.4195,4.4116,4.4036,4.4036,4.3968,4.3886,4.3832,4.3719,4.3566,4.3393,4.3196,4.3012,4.2899,4.2783,4.2667,4.2526,4.2445,4.2369,4.2251,4.2169,4.2139,4.2172,4.2053,4.1833,4.1885,4.2065,4.2358,4.2642,4.2326,4.1918,4.1954,4.1984,4.16,4.1159,4.0774,4.0442,4.6149,4.6166,4.6162,4.6099,4.6014,4.5968,4.5949,4.5929,4.5925,4.588,4.5841,4.5786,4.5761,4.5765,4.5715,4.57,4.5703,4.5654,4.5637,4.562,4.564,4.5586,4.555,4.5569,4.5495,4.5534,4.5784,4.6032,4.5974,4.628,4.6431,4.647,4.6313,4.6273,4.6366,4.6418,4.6275,4.6073,4.5775,4.5352,4.5233,4.529,4.5309,4.5076,4.5081,4.5062,4.5067,4.5067,4.5024,4.5005,4.4967,4.4967,4.4967,4.4967,4.4967,4.4986,4.4976,4.4981,4.4962,4.4938,4.4938,4.4919,4.4919,4.4846,4.4796,4.477,4.4764,4.4738,4.4678,4.4624,4.4589,4.4552,4.4533,4.4496,4.4487,4.4487,4.4458,4.4411,4.4325,4.4255,4.4165,4.4116,4.4036,4.3986,4.3936,4.3878,4.38,4.3716,4.3513,4.3376,4.316,4.3012,4.288,4.2765,4.2667,4.2562,4.2499,4.2422,4.2269,4.2276,4.2363,4.2615,4.2679,4.2765,4.2864,4.3136,4.3363,4.3113,4.2859,4.2911,4.3078,4.2898,4.2416,4.1843,4.1524,4.6158,4.6105,4.608,4.6037,4.5917,4.5899,4.5874,4.5814,4.5827,4.5805,4.5795,4.575,4.5715,4.5735,4.5703,4.5687,4.5687,4.5635,4.5637,4.5622,4.5657,4.5697,4.5834,4.5666,4.6065,4.607,4.6321,4.6877,4.705,4.7281,4.7569,4.8009,4.7818,4.7626,4.7509,4.7528,4.7411,4.7274,4.6959,4.6609,4.5986,4.5982,4.6149,4.5593,4.5464,4.5449,4.5452,4.5373,4.5316,4.5354,4.5369,4.5464,4.5502,4.5327,4.5308,4.5175,4.5181,4.5067,4.5057,4.5033,4.4991,4.4967,4.4943,4.4938,4.4914,4.4821,4.4796,4.4815,4.4764,4.4704,4.4651,4.458,4.4552,4.4515,4.4515,4.4515,4.4487,4.444,4.4354,4.4266,4.4255,4.4195,4.4153,4.4085,4.4023,4.3961,4.386,4.3777,4.3682,4.3516,4.3377,4.3196,4.3012,4.288,4.2783,4.2721,4.2687,4.2588,4.2542,4.2834,4.3302,4.3482,4.3589,4.3701,4.3886,4.3855,4.3959,4.3917,4.3958,4.4027,4.4092,4.4187,4.3775,4.3042,4.2715,4.6183,4.6166,4.6075,4.6003,4.596,4.5917,4.5899,4.586,4.588,4.5852,4.5795,4.5781,4.5746,4.5715,4.5719,4.5703,4.57,4.5851,4.5703,4.5835,4.5889,4.6387,4.6622,4.6731,4.7001,4.7561,4.7857,4.7902,4.806,4.8195,4.8214,4.8214,4.8369,4.8561,4.8542,4.8524,4.8659,4.8757,4.8817,4.8394,4.7733,4.736,4.7277,4.7086,4.7051,4.6956,4.6956,4.6988,4.7041,4.7099,4.7033,4.7029,4.701,4.6439,4.613,4.5997,4.5616,4.5464,4.5392,4.5395,4.5335,4.5175,4.5114,4.5052,4.4986,4.4895,4.487,4.4846,4.4821,4.4789,4.4731,4.4662,4.4599,4.4561,4.4524,4.4515,4.4515,4.444,4.4383,4.4354,4.4296,4.4255,4.4214,4.4141,4.411,4.4011,4.3936,4.3855,4.3795,4.3686,4.3644,4.3468,4.316,4.303,4.2971,4.3036,4.3152,4.3297,4.3376,4.3757,4.4181,4.4414,4.4609,4.4735,4.4882,4.4844,4.4876,4.5128,4.52,4.4992,4.4835,4.4778,4.4702,4.4169,4.3883,4.6195,4.6183,4.6074,4.6038,4.6022,4.5987,4.6002,4.5996,4.5977,4.5964,4.5924,4.5891,4.5844,4.581,4.581,4.5882,4.5935,4.6259,4.6413,4.6472,4.677,4.7307,4.7572,4.7734,4.7882,4.8387,4.885,4.9016,4.9301,4.9475,4.9533,4.9494,4.9668,4.9935,5.0008,5.0259,5.0448,5.0715,5.099,5.0742,4.9912,4.9356,4.8335,4.8142,4.7949,4.7966,4.7888,4.7867,4.7843,4.7824,4.7707,4.7685,4.7589,4.7302,4.7128,4.6994,4.6705,4.632,4.6244,4.6148,4.5998,4.5837,4.5696,4.5765,4.5076,4.501,4.4943,4.4919,4.487,4.484,4.4796,4.4712,4.4651,4.4605,4.4589,4.4552,4.4533,4.4487,4.444,4.444,4.4401,4.4344,4.4304,4.4228,4.4178,4.4123,4.4017,4.4011,4.3934,4.4132,4.4036,4.3901,4.3761,4.3633,4.3647,4.3733,4.3758,4.3962,4.4253,4.4675,4.5054,4.5383,4.5648,4.5658,4.5663,4.5712,4.5813,4.5837,4.5684,4.5373,4.5285,4.5266,4.5174,4.5012,4.4691,4.6152,4.6152,4.6102,4.6085,4.6095,4.6075,4.6065,4.6104,4.623,4.6298,4.6386,4.6366,4.6213,4.6099,4.6096,4.6166,4.646,4.7104,4.7326,4.7539,4.8058,4.837,4.8555,4.8691,4.8934,4.9361,4.992,5.0506,5.1024,5.1218,5.1412,5.1535,5.1936,5.2473,5.2731,5.3048,5.3137,5.2955,5.3079,5.3351,5.2471,5.1351,5.0117,4.9199,4.8605,4.8548,4.8548,4.8433,4.8451,4.845,4.8583,4.862,4.8464,4.8311,4.8118,4.7963,4.7671,4.7556,4.7573,4.7436,4.7128,4.6854,4.6675,4.6291,4.5639,4.5464,4.5394,4.529,4.5266,4.4971,4.4903,4.4859,4.4801,4.4716,4.4718,4.4674,4.4608,4.4571,4.459,4.4571,4.4515,4.4486,4.4437,4.4345,4.4296,4.424,4.4253,4.4159,4.4244,4.4698,4.4912,4.4828,4.4689,4.4583,4.4508,4.4483,4.4569,4.4953,4.5317,4.5638,4.5918,4.6185,4.6372,4.64,4.6406,4.6244,4.6084,4.6005,4.5821,4.5684,4.558,4.5475,4.5319,4.5213,4.5142,4.5996,4.6035,4.603,4.6024,4.6046,4.6044,4.6022,4.6158,4.6878,4.7149,4.7288,4.7835,4.784,4.7134,4.7128,4.7274,4.7697,4.8185,4.8289,4.8451,4.8833,4.9204,4.958,4.9873,5.0192,5.0789,5.1471,5.2037,5.2291,5.2845,5.3263,5.3195,5.3302,5.3574,5.3613,5.3935,5.4108,5.4137,5.4106,5.4098,5.3915,5.3132,5.2918,5.224,5.1727,5.1481,5.1177,5.0547,5.0317,5.0183,5.0009,4.9872,4.964,4.9295,4.9044,4.887,4.8599,4.8367,4.8326,4.8328,4.8001,4.7709,4.7532,4.7433,4.7029,4.6946,4.6824,4.6582,4.6288,4.5418,4.5242,4.516,4.5067,4.5028,4.5006,4.4925,4.4898,4.4843,4.4834,4.4834,4.4806,4.4777,4.4749,4.468,4.4651,4.4722,4.5021,4.4994,4.5055,4.5412,4.5786,4.5759,4.5621,4.5589,4.5571,4.5403,4.5488,4.5951,4.6277,4.6446,4.6649,4.6919,4.6998,4.6795,4.6637,4.6459,4.635,4.6172,4.6023,4.5906,4.5684,4.558,4.5459,4.5407,4.5266]},{"header":{"parameterUnit":"m.s-1","parameterCategory":1,"la1":31.0,"la2":29.5877,"lo1":-88.7671,"lo2":-86.6584,"dy":0.0162,"dx":0.0185,"nx":115,"ny":88,"refTime":"2023-04-20T18:00:00:Z","depth":0,"parameterNumber":3,"parameterNumberName":"V-component_of_WINDS"},"data":[0.0,0.0,0.0,0.0,0.0,0.0,0.0,0.0,0.0,0.0,0.0,0.0,0.0,0.0,0.0,0.0,0.0,0.0,0.0,0.0,0.0,0.0,0.0,0.0,0.0,0.0,0.0,0.0,0.0,0.0,0.0,0.0,0.0,0.0,0.0,0.0,0.0,0.0,0.0,0.0,0.0,0.0,0.0,0.0,0.0,0.0,0.0,0.0,0.0,0.0,0.0,0.0,0.0,0.0,0.0,0.0,0.0,0.0,0.0,0.0,0.0,0.0,0.0,0.0,0.0,0.0,0.0,0.0,0.0,0.0,0.0,0.0,0.0,0.0,0.0,0.0,0.0,0.0,0.0,0.0,0.0,0.0,0.0,0.0,0.0,0.0,0.0,0.0,0.0,0.0,0.0,0.0,0.0,0.0,0.0,0.0,0.0,0.0,0.0,0.0,0.0,0.0,0.0,0.0,0.0,0.0,0.0,0.0,0.0,0.0,0.0,0.0,0.0,0.0,0.0,0.0,0.0,0.0,0.0,0.0,0.0,0.0,0.0,0.0,0.0,0.0,0.0,0.0,0.0,0.0,0.0,0.0,0.0,0.0,0.0,0.0,0.0,0.0,0.0,0.0,0.0,0.0,0.0,0.0,0.0,0.0,0.0,0.0,0.0,0.0,0.0,0.0,0.0,0.0,0.0,0.0,0.0,0.0,0.0,0.0,0.0,0.0,0.0,0.0,0.0,0.0,0.0,0.0,0.0,0.0,0.0,0.0,0.0,0.0,0.0,0.0,0.0,0.0,0.0,0.0,0.0,0.0,0.0,0.0,0.0,0.0,0.0,0.0,0.0,0.0,0.0,0.0,0.0,0.0,0.0,0.0,0.0,0.0,0.0,0.0,0.0,0.0,0.0,0.0,0.0,0.0,0.0,0.0,0.0,0.0,0.0,0.0,0.0,0.0,0.0,0.0,0.0,0.0,0.0,0.0,0.0,0.0,0.0,0.0,0.0,0.0,0.0,0.0,0.0,0.0,0.0,0.0,0.0,0.0,0.0,0.0,0.0,0.0,0.0,0.0,0.0,0.0,0.0,0.0,0.0,0.0,0.0,0.0,0.0,0.0,0.0,0.0,0.0,0.0,0.0,0.0,0.0,0.0,0.0,0.0,0.0,0.0,0.0,0.0,0.0,0.0,0.0,0.0,0.0,0.0,0.0,0.0,0.0,0.0,0.0,0.0,0.0,0.0,0.0,0.0,0.0,0.0,0.0,0.0,0.0,0.0,0.0,0.0,0.0,0.0,0.0,0.0,0.0,0.0,0.0,0.0,0.0,0.0,0.0,0.0,0.0,0.0,0.0,0.0,0.0,0.0,0.0,0.0,0.0,0.0,0.0,0.0,0.0,0.0,0.0,0.0,0.0,0.0,0.0,0.0,0.0,0.0,0.0,0.0,0.0,0.0,0.0,0.0,0.0,0.0,0.0,0.0,0.0,0.0,0.0,0.0,0.0,0.0,0.0,0.0,0.0,0.0,0.0,0.0,0.0,0.0,0.0,0.0,0.0,0.0,0.0,0.0,0.0,0.0,0.0,0.0,0.0,0.0,0.0,0.0,0.0,0.0,0.0,0.0,0.0,0.0,0.0,0.0,0.0,0.0,0.0,0.0,0.0,0.0,0.0,0.0,0.0,0.0,0.0,0.0,0.0,0.0,0.0,0.0,0.0,0.0,0.0,0.0,0.0,0.0,0.0,0.0,0.0,0.0,0.0,0.0,0.0,0.0,0.0,0.0,0.0,0.0,0.0,0.0,0.0,0.0,0.0,0.0,0.0,0.0,0.0,0.0,0.0,0.0,0.0,0.0,0.0,0.0,0.0,0.0,0.0,0.0,0.0,0.0,0.0,0.0,0.0,0.0,0.0,0.0,0.0,0.0,0.0,0.0,0.0,0.0,0.0,0.0,0.0,0.0,0.0,0.0,0.0,0.0,0.0,0.0,0.0,0.0,0.0,0.0,0.0,0.0,0.0,0.0,0.0,0.0,0.0,0.0,0.0,0.0,0.0,0.0,0.0,0.0,0.0,0.0,0.0,0.0,0.0,0.0,0.0,0.0,0.0,0.0,0.0,0.0,0.0,0.0,0.0,0.0,0.0,0.0,0.0,0.0,0.0,0.0,0.0,0.0,0.0,0.0,0.0,0.0,0.0,0.0,0.0,0.0,0.0,0.0,0.0,0.0,0.0,0.0,0.0,0.0,0.0,0.0,0.0,0.0,0.0,0.0,0.0,0.0,0.0,0.0,0.0,0.0,0.0,0.0,0.0,0.0,0.0,0.0,0.0,0.0,0.0,0.0,0.0,0.0,0.0,0.0,0.0,0.0,0.0,0.0,0.0,0.0,0.0,0.0,0.0,0.0,0.0,0.0,0.0,0.0,0.0,0.0,0.0,0.0,0.0,0.0,0.0,0.0,0.0,0.0,0.0,0.0,0.0,0.0,0.0,0.0,0.0,0.0,0.0,0.0,0.0,0.0,0.0,0.0,0.0,0.0,0.0,0.0,0.0,0.0,0.0,0.0,0.0,0.0,0.0,0.0,0.0,0.0,0.0,0.0,0.0,0.0,0.0,0.0,0.0,0.0,0.0,0.0,0.0,0.0,0.0,0.0,0.0,0.0,0.0,0.0,0.0,0.0,0.0,0.0,0.0,0.0,0.0,0.0,0.0,0.0,0.0,0.0,0.0,0.0,0.0,0.0,0.0,0.0,0.0,0.0,0.0,0.0,0.0,0.0,0.0,0.0,0.0,0.0,0.0,0.0,0.0,0.0,0.0,0.0,0.0,0.0,0.0,0.0,0.0,0.0,0.0,0.0,0.0,0.0,0.0,0.0,0.0,0.0,0.0,0.0,0.0,0.0,0.0,0.0,0.0,0.0,0.0,0.0,0.0,0.0,0.0,0.0,0.0,0.0,0.0,0.0,0.0,0.0,0.0,0.0,0.0,0.0,0.0,0.0,0.0,0.0,0.0,0.0,0.0,0.0,0.0,0.0,0.0,0.0,0.0,0.0,0.0,0.0,0.0,0.0,0.0,0.0,0.0,0.0,0.0,0.0,0.0,0.0,0.0,0.0,0.0,0.0,0.0,0.0,0.0,0.0,0.0,0.0,0.0,0.0,0.0,0.0,0.0,0.0,0.0,0.0,0.0,0.0,0.0,0.0,0.0,0.0,0.0,0.0,0.0,0.0,0.0,0.0,0.0,0.0,0.0,0.0,0.0,0.0,0.0,0.0,0.0,0.0,0.0,0.0,0.0,0.0,0.0,0.0,0.0,0.0,0.0,0.0,0.0,0.0,0.0,0.0,0.0,0.0,0.0,0.0,0.0,0.0,0.0,0.0,0.0,0.0,0.0,0.0,0.0,0.0,0.0,0.0,0.0,0.0,0.0,0.0,0.0,0.0,0.0,0.0,0.0,0.0,0.0,0.0,0.0,0.0,0.0,0.0,0.0,0.0,0.0,0.0,0.0,0.0,0.0,0.0,0.0,0.0,0.0,0.0,0.0,0.0,0.0,0.0,0.0,0.0,0.0,0.0,0.0,0.0,0.0,0.0,0.0,0.0,0.0,0.0,0.0,0.0,0.0,0.0,0.0,0.0,0.0,0.0,0.0,0.0,0.0,0.0,0.0,0.0,0.0,0.0,0.0,0.0,0.0,0.0,0.0,0.0,0.0,0.0,0.0,0.0,0.0,0.0,0.0,0.0,0.0,0.0,0.0,0.0,0.0,0.0,0.0,0.0,0.0,0.0,0.0,0.0,0.0,0.0,0.0,0.0,0.0,0.0,0.0,0.0,0.0,0.0,0.0,0.0,0.0,0.0,0.0,0.0,0.0,0.0,0.0,0.0,0.0,0.0,0.0,0.0,0.0,0.0,0.0,0.0,0.0,0.0,0.0,0.0,0.0,0.0,0.0,0.0,0.0,0.0,0.0,0.0,0.0,0.0,0.0,0.0,0.0,0.0,0.0,0.0,0.0,0.0,0.0,0.0,0.0,0.0,0.0,0.0,0.0,0.0,0.0,0.0,0.0,0.0,0.0,0.0,0.0,0.0,0.0,0.0,0.0,0.0,0.0,0.0,0.0,0.0,0.0,0.0,0.0,0.0,0.0,0.0,0.0,0.0,0.0,0.0,0.0,0.0,0.0,0.0,0.0,0.0,0.0,0.0,0.0,0.0,0.0,0.0,0.0,0.0,0.0,0.0,0.0,0.0,0.0,0.0,0.0,0.0,0.0,0.0,0.0,0.0,0.0,0.0,0.0,0.0,0.0,0.0,0.0,0.0,0.0,0.0,0.0,0.0,0.0,0.0,0.0,0.0,0.0,0.0,0.0,0.0,0.0,0.0,0.0,0.0,0.0,0.0,0.0,0.0,0.0,0.0,0.0,0.0,0.0,0.0,0.0,0.0,0.0,0.0,0.0,0.0,0.0,0.0,0.0,0.0,0.0,0.0,0.0,0.0,0.0,0.0,0.0,0.0,0.0,0.0,0.0,0.0,0.0,0.0,0.0,0.0,0.0,0.0,0.0,0.0,0.0,0.0,0.0,0.0,0.0,0.0,0.0,0.0,0.0,0.0,0.0,0.0,0.0,0.0,0.0,0.0,0.0,0.0,0.0,0.0,0.0,0.0,0.0,0.0,0.0,0.0,0.0,0.0,0.0,0.0,0.0,0.0,0.0,0.0,0.0,0.0,0.0,0.0,0.0,0.0,0.0,0.0,0.0,0.0,0.0,0.0,0.0,0.0,0.0,0.0,0.0,0.0,0.0,0.0,0.0,0.0,0.0,0.0,0.0,0.0,0.0,0.0,0.0,0.0,0.0,0.0,0.0,0.0,0.0,0.0,0.0,0.0,0.0,0.0,0.0,0.0,0.0,0.0,0.0,0.0,0.0,0.0,0.0,0.0,0.0,0.0,0.0,0.0,0.0,0.0,0.0,0.0,0.0,0.0,0.0,0.0,0.0,0.0,0.0,0.0,0.0,0.0,0.0,0.0,0.0,0.0,0.0,0.0,0.0,0.0,0.0,0.0,0.0,0.0,0.0,0.0,0.0,0.0,0.0,0.0,0.0,0.0,0.0,0.0,0.0,0.0,0.0,0.0,0.0,0.0,0.0,0.0,0.0,0.0,0.0,0.0,0.0,0.0,0.0,0.0,0.0,0.0,0.0,0.0,0.0,0.0,0.0,0.0,0.0,0.0,0.0,0.0,0.0,0.0,0.0,0.0,0.0,0.0,0.0,0.0,0.0,0.0,0.0,0.0,0.0,0.0,0.0,0.0,0.0,0.0,0.0,0.0,0.0,0.0,0.0,0.0,0.0,0.0,0.0,0.0,0.0,0.0,0.0,0.0,0.0,0.0,0.0,0.0,0.0,0.0,0.0,0.0,0.0,0.0,0.0,0.0,0.0,0.0,0.0,0.0,0.0,0.0,0.0,0.0,0.0,0.0,0.0,0.0,0.0,0.0,0.0,0.0,0.0,0.0,0.0,0.0,0.0,0.0,0.0,0.0,0.0,0.0,0.0,0.0,0.0,0.0,0.0,0.0,0.0,0.0,0.0,0.0,0.0,0.0,0.0,0.0,0.0,0.0,0.0,0.0,0.0,0.0,0.0,0.0,0.0,0.0,0.0,0.0,0.0,0.0,0.0,0.0,0.0,0.0,0.0,0.0,0.0,0.0,0.0,0.0,0.0,0.0,0.0,0.0,0.0,0.0,0.0,0.0,0.0,0.0,0.0,0.0,0.0,0.0,0.0,0.0,0.0,0.0,0.0,0.0,0.0,0.0,0.0,0.0,0.0,0.0,0.0,0.0,0.0,0.0,0.0,0.0,0.0,0.0,0.0,0.0,0.0,0.0,0.0,0.0,0.0,0.0,0.0,0.0,0.0,0.0,0.0,0.0,0.0,0.0,0.0,0.0,0.0,0.0,0.0,0.0,0.0,0.0,0.0,0.0,0.0,0.0,0.0,0.0,0.0,0.0,0.0,0.0,0.0,0.0,0.0,0.0,0.0,0.0,0.0,0.0,0.0,0.0,0.0,0.0,0.0,0.0,0.0,0.0,0.0,0.0,0.0,0.0,0.0,0.0,0.0,0.0,0.0,0.0,0.0,0.0,0.0,0.0,0.0,0.0,0.0,0.0,0.0,0.0,0.0,0.0,0.0,0.0,0.0,0.0,0.0,0.0,0.0,0.0,0.0,0.0,0.0,0.0,0.0,0.0,0.0,0.0,0.0,0.0,0.0,0.0,0.0,0.0,0.0,0.0,0.0,0.0,0.0,0.0,0.0,0.0,0.0,0.0,0.0,0.0,0.0,0.0,0.0,0.0,0.0,0.0,0.0,0.0,0.0,0.0,0.0,0.0,0.0,0.0,0.0,0.0,0.0,0.0,0.0,0.0,0.0,0.0,0.0,0.0,0.0,0.0,0.0,0.0,0.0,0.0,0.0,0.0,0.0,0.0,0.0,0.0,0.0,0.0,0.0,0.0,0.0,0.0,0.0,0.0,0.0,0.0,0.0,0.0,0.0,0.0,0.0,0.0,0.0,0.0,0.0,0.0,0.0,0.0,0.0,0.0,0.0,0.0,0.0,0.0,0.0,0.0,0.0,0.0,0.0,0.0,0.0,0.0,0.0,0.0,0.0,0.0,0.0,0.0,0.0,0.0,0.0,0.0,0.0,0.0,0.0,0.0,0.0,0.0,0.0,0.0,0.0,0.0,0.0,0.0,0.0,0.0,0.0,0.0,0.0,0.0,0.0,0.0,0.0,0.0,0.0,0.0,0.0,0.0,0.0,0.0,0.0,0.0,0.0,0.0,0.0,0.0,0.0,0.0,0.0,0.0,0.0,0.0,0.0,0.0,0.0,0.0,0.0,0.0,0.0,0.0,0.0,0.0,0.0,0.0,0.0,0.0,0.0,0.0,0.0,0.0,0.0,0.0,0.0,0.0,0.0,0.0,0.0,0.0,0.0,0.0,0.0,0.0,0.0,0.0,0.0,0.0,0.0,0.0,0.0,0.0,0.0,0.0,0.0,0.0,0.0,0.0,0.0,0.0,0.0,0.0,0.0,0.0,0.0,0.0,0.0,0.0,0.0,0.0,0.0,0.0,0.0,0.0,0.0,0.0,0.0,0.0,0.0,0.0,0.0,0.0,0.0,0.0,0.0,0.0,0.0,0.0,0.0,0.0,0.0,0.0,0.0,0.0,0.0,0.0,0.0,0.0,0.0,0.0,0.0,0.0,0.0,0.0,0.0,0.0,0.0,0.0,0.0,0.0,0.0,0.0,0.0,0.0,0.0,0.0,0.0,0.0,0.0,0.0,0.0,0.0,0.0,0.0,0.0,0.0,0.0,0.0,0.0,0.0,0.0,0.0,0.0,0.0,0.0,0.0,0.0,0.0,0.0,0.0,0.0,0.0,0.0,0.0,0.0,0.0,0.0,0.0,0.0,0.0,0.0,0.0,0.0,0.0,0.0,0.0,0.0,0.0,0.0,0.0,0.0,0.0,0.0,0.0,0.0,0.0,0.0,0.0,0.0,0.0,0.0,0.0,0.0,0.0,0.0,0.0,0.0,0.0,0.0,0.0,0.0,0.0,0.0,0.0,0.0,0.0,0.0,0.0,0.0,0.0,0.0,0.0,0.0,0.0,0.0,0.0,0.0,0.0,0.0,0.0,0.0,0.0,0.0,0.0,0.0,0.0,0.0,0.0,0.0,0.0,0.0,0.0,0.0,0.0,0.0,0.0,0.0,0.0,0.0,0.0,0.0,0.0,0.0,0.0,0.0,0.0,0.0,0.0,0.0,0.0,0.0,0.0,0.0,0.0,0.0,0.0,0.0,0.0,0.0,0.0,0.0,0.0,0.0,0.0,0.0,0.0,0.0,0.0,0.0,0.0,0.0,0.0,0.0,0.0,0.0,0.0,0.0,0.0,0.0,0.0,0.0,0.0,0.0,0.0,0.0,0.0,0.0,0.0,0.0,0.0,0.0,0.0,0.0,0.0,0.0,0.0,0.0,0.0,0.0,0.0,0.0,0.0,0.0,0.0,0.0,0.0,0.0,0.0,0.0,0.0,0.0,0.0,0.0,0.0,0.0,0.0,0.0,0.0,0.0,0.0,0.0,0.0,0.0,0.0,0.0,0.0,0.0,0.0,0.0,0.0,0.0,0.0,0.0,0.0,0.0,0.0,0.0,0.0,0.0,0.0,0.0,0.0,0.0,0.0,0.0,0.0,0.0,0.0,0.0,0.0,0.0,0.0,0.0,0.0,0.0,0.0,0.0,0.0,0.0,0.0,0.0,0.0,0.0,0.0,0.0,0.0,0.0,0.0,0.0,0.0,0.0,0.0,0.0,0.0,0.0,0.0,0.0,0.0,0.0,0.0,0.0,0.0,0.0,0.0,0.0,0.0,0.0,0.0,0.0,0.0,0.0,0.0,0.0,0.0,0.0,0.0,0.0,0.0,0.0,0.0,0.0,0.0,0.0,0.0,0.0,0.0,0.0,0.0,0.0,0.0,0.0,0.0,0.0,0.0,0.0,0.0,0.0,0.0,0.0,0.0,0.0,0.0,0.0,0.0,0.0,0.0,0.0,0.0,0.0,0.0,0.0,0.0,0.0,0.0,0.0,0.0,0.0,0.0,0.0,0.0,0.0,0.0,0.0,0.0,0.0,0.0,0.0,0.0,0.0,0.0,0.0,0.0,0.0,0.0,0.0,0.0,0.0,0.0,0.0,0.0,0.0,0.0,0.0,0.0,0.0,0.0,0.0,0.0,0.0,0.0,0.0,0.0,0.0,0.0,0.0,0.0,0.0,0.0,0.0,0.0,0.0,0.0,0.0,0.0,0.0,0.0,0.0,0.0,0.0,0.0,0.0,0.0,0.0,0.0,0.0,0.0,0.0,0.0,0.0,0.0,0.0,0.0,0.0,0.0,0.0,0.0,0.0,0.0,0.0,0.0,0.0,0.0,0.0,0.0,0.0,0.0,0.0,0.0,0.0,0.0,0.0,0.0,0.0,0.0,0.0,0.0,0.0,0.0,0.0,0.0,0.0,0.0,0.0,0.0,0.0,0.0,0.0,0.0,0.0,0.0,0.0,0.0,0.0,0.0,0.0,0.0,0.0,0.0,0.0,0.0,0.0,0.0,0.0,0.0,0.0,0.0,0.0,0.0,0.0,0.0,0.0,0.0,0.0,0.0,0.0,0.0,0.0,0.0,0.0,0.0,0.0,0.0,0.0,0.0,0.0,0.0,0.0,0.0,0.0,0.0,0.0,0.0,0.0,0.0,0.0,0.0,0.0,0.0,0.0,0.0,0.0,0.0,0.0,0.0,0.0,0.0,0.0,0.0,0.0,0.0,0.0,0.0,0.0,0.0,0.0,0.0,0.0,0.0,0.0,0.0,0.0,0.0,0.0,0.0,0.0,0.0,0.0,0.0,0.0,0.0,0.0,0.0,0.0,0.0,0.0,0.0,0.0,0.0,0.0,0.0,0.0,0.0,0.0,0.0,0.0,0.0,0.0,0.0,0.0,0.0,0.0,0.0,0.0,0.0,0.0,0.0,0.0,0.0,0.0,0.0,0.0,0.0,0.0,0.0,0.0,0.0,0.0,0.0,0.0,0.0,0.0,0.0,0.0,0.0,0.0,0.0,0.0,0.0,0.0,0.0,0.0,0.0,0.0,0.0,0.0,0.0,0.0,0.0,0.0,0.0,0.0,0.0,0.0,0.0,0.0,0.0,0.0,0.0,0.0,0.0,0.0,0.0,0.0,0.0,0.0,0.0,0.0,0.0,0.0,0.0,0.0,0.0,0.0,0.0,0.0,0.0,0.0,0.0,0.0,0.0,0.0,0.0,0.0,0.0,0.0,0.0,0.0,0.0,0.0,0.0,0.0,0.0,0.0,0.0,0.0,0.0,0.0,0.0,0.0,0.0,0.0,0.0,0.0,0.0,0.0,0.0,0.0,0.0,0.0,0.0,0.0,0.0,0.0,0.0,0.0,0.0,0.0,0.0,0.0,0.0,0.0,0.0,0.0,0.0,0.0,0.0,0.0,0.0,0.0,0.0,0.0,0.0,0.0,0.0,0.0,0.0,0.0,0.0,0.0,0.0,0.0,0.0,0.0,0.0,0.0,0.0,0.0,0.0,0.0,0.0,0.0,0.0,0.0,0.0,0.0,0.0,0.0,0.0,0.0,0.0,0.0,0.0,0.0,0.0,0.0,0.0,0.0,0.0,0.0,0.0,0.0,0.0,0.0,0.0,0.0,0.0,0.0,0.0,0.0,0.0,0.0,0.0,0.0,0.0,0.0,0.0,0.0,0.0,0.0,0.0,0.0,0.0,0.0,0.0,0.0,0.0,0.0,0.0,0.0,0.0,0.0,0.0,0.0,0.0,0.0,0.0,0.0,0.0,0.0,0.0,0.0,0.0,0.0,0.0,0.0,0.0,0.0,0.0,0.0,0.0,0.0,0.0,0.0,0.0,0.0,0.0,0.0,0.0,0.0,0.0,0.0,0.0,0.0,0.0,0.0,0.0,0.0,0.0,0.0,0.0,0.0,0.0,0.0,0.0,0.0,0.0,0.0,0.0,0.0,0.0,0.0,0.0,0.0,0.0,0.0,0.0,0.0,0.0,0.0,0.0,0.0,0.0,0.0,0.0,0.0,0.0,0.0,0.0,0.0,0.0,0.0,0.0,0.0,0.0,0.0,0.0,0.0,0.0,0.0,0.0,0.0,0.0,0.0,0.0,0.0,0.0,0.0,0.0,0.0,0.0,0.0,0.0,0.0,0.0,0.0,0.0,0.0,0.0,0.0,0.0,0.0,0.0,0.0,0.0,0.0,0.0,0.0,0.0,0.0,0.0,0.0,0.0,0.0,0.0,0.0,0.0,0.0,0.0,0.0,0.0,0.0,0.0,0.0,0.0,0.0,0.0,0.0,0.0,0.0,0.0,0.0,0.0,0.0,0.0,0.0,0.0,0.0,0.0,0.0,0.0,0.0,0.0,0.0,0.0,0.0,0.0,0.0,0.0,0.0,0.0,0.0,0.0,0.0,0.0,0.0,0.0,0.0,0.0,0.0,0.0,0.0,0.0,0.0,0.0,0.0,0.0,0.0,0.0,0.0,0.0,0.0,0.0,0.0,0.0,0.0,0.0,0.0,0.0,0.0,0.0,0.0,0.0,0.0,0.0,0.0,0.0,0.0,0.0,0.0,0.0,0.0,0.0,0.0,0.0,0.0,0.0,0.0,0.0,0.0,0.0,0.0,0.0,0.0,0.0,0.0,0.0,0.0,0.0,0.0,0.0,0.0,0.0,0.0,0.0,0.0,0.0,0.0,0.0,0.0,0.0,0.0,0.0,0.0,0.0,0.0,0.0,0.0,0.0,0.0,0.0,0.0,0.0,0.0,0.0,0.0,0.0,0.0,0.0,0.0,0.0,0.0,0.0,0.0,0.0,0.0,0.0,0.0,0.0,0.0,0.0,0.0,0.0,0.0,0.0,0.0,0.0,0.0,0.0,0.0,0.0,0.0,0.0,0.0,0.0,0.0,0.0,0.0,0.0,0.0,0.0,0.0,0.0,0.0,0.0,0.0,0.0,0.0,0.0,0.0,0.0,0.0,0.0,0.0,0.0,0.0,0.0,0.0,0.0,0.0,0.0,0.0,0.0,0.0,0.0,0.0,0.0,0.0,0.0,0.0,0.0,0.0,0.0,0.0,0.0,0.0,0.0,0.0,0.0,0.0,0.0,0.0,0.0,0.0,0.0,0.0,0.0,0.0,0.0,0.0,0.0,0.0,0.0,0.0,0.0,0.0,0.0,0.0,0.0,0.0,0.0,0.0,0.0,0.0,0.0,0.0,0.0,0.0,0.0,0.0,0.0,0.0,0.0,0.0,0.0,0.0,0.0,0.0,0.0,0.0,0.0,0.0,0.0,0.0,0.0,0.0,0.0,0.0,0.0,0.0,0.0,0.0,0.0,0.0,0.0,0.0,0.0,0.0,0.0,0.0,0.0,0.0,0.0,0.0,0.0,0.0,0.0,0.0,0.0,0.0,0.0,0.0,0.0,0.0,0.0,0.0,0.0,0.0,0.0,0.0,0.0,0.0,0.0,0.0,0.0,0.0,0.0,0.0,0.0,0.0,0.0,0.0,0.0,0.0,0.0,0.0,0.0,0.0,0.0,0.0,0.0,0.0,0.0,0.0,0.0,0.0,0.0,0.0,0.0,0.0,0.0,0.0,0.0,0.0,0.0,0.0,0.0,0.0,0.0,0.0,0.0,0.0,0.0,0.0,0.0,0.0,0.0,0.0,0.0,0.0,0.0,0.0,0.0,0.0,0.0,0.0,0.0,0.0,0.0,0.0,0.0,0.0,0.0,0.0,0.0,0.0,0.0,0.0,0.0,0.0,0.0,0.0,0.0,0.0,0.0,0.0,0.0,0.0,0.0,0.0,0.0,0.0,0.0,0.0,0.0,0.0,0.0,0.0,0.0,0.0,0.0,0.0,0.0,0.0,0.0,0.0,0.0,0.0,0.0,0.0,0.0,0.0,0.0,0.0,0.0,0.0,0.0,0.0,0.0,0.0,0.0,0.0,0.0,0.0,0.0,0.0,0.0,0.0,0.0,-0.8937,0.0,0.0,0.0,0.0,0.0,0.0,0.0,0.0,0.0,0.0,0.0,0.0,0.0,0.0,0.0,0.0,0.0,0.0,0.0,0.0,0.0,0.0,0.0,0.0,0.0,0.0,0.0,0.0,0.0,0.0,0.0,0.0,0.0,0.0,0.0,0.0,0.0,0.0,0.0,0.0,0.0,0.0,0.0,0.0,0.0,0.0,0.0,0.0,0.0,0.0,0.0,0.0,0.0,0.0,0.0,0.0,0.0,0.0,0.0,0.0,0.0,0.0,0.0,0.0,0.0,0.0,0.0,0.0,0.0,0.0,0.0,0.0,0.0,0.0,0.0,0.0,0.0,0.0,0.0,0.0,0.0,0.0,0.0,0.0,0.0,0.0,0.0,0.0,0.0,0.0,0.0,0.0,0.0,0.0,0.0,0.0,0.0,0.0,0.0,0.0,0.0,0.0,0.0,0.0,0.0,0.0,0.0,0.0,0.0,0.0,0.0,0.0,0.0,0.0,0.0,0.0,0.0,0.0,0.0,0.0,0.0,0.0,0.0,0.0,0.0,0.0,0.0,0.0,0.0,0.0,0.0,0.0,0.0,0.0,0.0,0.0,0.0,0.0,0.0,0.0,0.0,0.0,0.0,0.0,0.0,0.0,0.0,0.0,0.0,0.0,0.0,0.0,0.0,0.0,0.0,0.0,0.0,0.0,0.0,0.0,0.0,0.0,0.0,0.0,0.0,0.0,0.0,0.0,0.0,0.0,0.0,0.0,0.0,0.0,0.0,0.0,0.0,0.0,0.0,0.0,0.0,0.0,0.0,0.0,0.0,0.0,0.0,0.0,0.0,0.0,0.0,0.0,0.0,0.0,0.0,0.0,0.0,0.0,0.0,0.0,0.0,0.0,0.0,0.0,0.0,0.0,0.0,0.0,0.0,0.0,0.0,0.0,0.0,0.0,0.0,0.0,0.0,0.0,0.0,0.0,-0.8183,-0.8866,0.0,0.0,0.0,0.0,0.0,0.0,0.0,0.0,-0.8937,0.0,0.0,0.0,0.0,0.0,0.0,0.0,0.0,0.0,0.0,0.0,0.0,0.0,0.0,0.0,0.0,0.0,0.0,0.0,0.0,0.0,0.0,0.0,0.0,0.0,0.0,0.0,0.0,0.0,0.0,0.0,0.0,0.0,0.0,0.0,0.0,0.0,0.0,0.0,0.0,0.0,0.0,0.0,0.0,0.0,0.0,0.0,0.0,0.0,0.0,0.0,0.0,0.0,0.0,0.0,0.0,0.0,0.0,0.0,0.0,0.0,0.0,0.0,0.0,0.0,0.0,0.0,0.0,0.0,0.0,0.0,0.0,0.0,0.0,0.0,0.0,0.0,0.0,0.0,0.0,0.0,0.0,0.0,0.0,0.0,0.0,0.0,0.0,0.0,0.0,0.0,0.0,0.0,0.0,0.0,0.0,0.0,0.0,0.0,0.0,0.0,0.0,0.0,0.0,0.0,-0.9387,-0.9676,0.0,0.0,0.0,0.0,0.0,0.0,0.0,0.0,-0.8937,0.0,0.0,0.0,0.0,0.0,0.0,0.0,0.0,0.0,0.0,0.0,0.0,0.0,0.0,0.0,0.0,0.0,0.0,0.0,0.0,0.0,0.0,0.0,0.0,0.0,0.0,0.0,0.0,0.0,0.0,0.0,0.0,0.0,0.0,0.0,0.0,0.0,0.0,0.0,0.0,0.0,0.0,0.0,0.0,0.0,0.0,0.0,0.0,0.0,0.0,0.0,0.0,0.0,0.0,0.0,0.0,0.0,0.0,0.0,0.0,0.0,0.0,0.0,0.0,0.0,0.0,0.0,0.0,0.0,0.0,0.0,0.0,0.0,0.0,0.0,0.0,0.0,0.0,0.0,0.0,0.0,0.0,0.0,0.0,0.0,0.0,0.0,0.0,0.0,0.0,0.0,0.0,0.0,0.0,0.0,0.0,0.0,0.0,0.0,0.0,0.0,0.0,0.0,0.0,-0.9571,-0.9824,-0.969,0.0,0.0,0.0,0.0,0.0,0.0,-0.9273,-0.9245,0.0,0.0,0.0,0.0,0.0,0.0,0.0,0.0,0.0,0.0,0.0,0.0,0.0,0.0,0.0,0.0,0.0,0.0,0.0,0.0,0.0,0.0,0.0,0.0,0.0,0.0,0.0,0.0,0.0,0.0,0.0,0.0,0.0,0.0,0.0,0.0,0.0,0.0,0.0,0.0,0.0,0.0,0.0,0.0,0.0,0.0,0.0,0.0,0.0,0.0,0.0,0.0,0.0,0.0,0.0,0.0,0.0,0.0,0.0,0.0,0.0,0.0,0.0,0.0,0.0,0.0,0.0,0.0,0.0,0.0,0.0,0.0,0.0,0.0,0.0,0.0,0.0,0.0,0.0,0.0,0.0,0.0,0.0,0.0,0.0,0.0,0.0,0.0,0.0,0.0,0.0,0.0,0.0,0.0,0.0,0.0,0.0,0.0,0.0,0.0,0.0,0.0,0.0,0.0,0.0,-0.9849,-0.9778,-0.97,0.0,0.0,0.0,0.0,-0.9628,-0.9712,0.0,0.0,0.0,0.0,0.0,0.0,0.0,0.0,0.0,0.0,0.0,0.0,0.0,0.0,0.0,0.0,0.0,0.0,0.0,0.0,0.0,0.0,0.0,0.0,0.0,0.0,0.0,0.0,0.0,0.0,0.0,0.0,0.0,0.0,0.0,0.0,0.0,0.0,0.0,0.0,0.0,0.0,0.0,0.0,0.0,0.0,0.0,0.0,0.0,0.0,0.0,0.0,0.0,0.0,0.0,0.0,0.0,0.0,0.0,0.0,0.0,0.0,0.0,0.0,0.0,0.0,0.0,0.0,0.0,0.0,0.0,0.0,0.0,0.0,0.0,0.0,0.0,0.0,0.0,0.0,0.0,0.0,0.0,0.0,0.0,0.0,0.0,0.0,0.0,0.0,0.0,0.0,0.0,0.0,0.0,0.0,0.0,0.0,0.0,0.0,0.0,0.0,0.0,0.0,0.0,0.0,-0.9849,-0.9781,-0.97,-0.9612,0.0,0.0,-0.9788,-0.9628,-1.0051,0.0,0.0,0.0,0.0,0.0,0.0,0.0,0.0,0.0,0.0,0.0,0.0,0.0,0.0,0.0,0.0,0.0,0.0,0.0,0.0,0.0,0.0,0.0,0.0,0.0,0.0,0.0,0.0,0.0,0.0,0.0,0.0,0.0,0.0,0.0,0.0,0.0,0.0,0.0,0.0,0.0,0.0,0.0,0.0,0.0,0.0,0.0,0.0,0.0,0.0,0.0,0.0,0.0,0.0,0.0,0.0,0.0,0.0,0.0,0.0,0.0,0.0,0.0,0.0,0.0,0.0,0.0,0.0,0.0,0.0,0.0,0.0,0.0,0.0,0.0,0.0,0.0,0.0,0.0,0.0,0.0,0.0,0.0,0.0,0.0,0.0,0.0,0.0,0.0,0.0,0.0,0.0,0.0,0.0,0.0,0.0,0.0,0.0,0.0,0.0,0.0,0.0,0.0,0.0,0.0,0.0,0.0,-0.9673,-0.9717,0.0,0.0,0.0,-1.0255,-1.0459,0.0,0.0,0.0,0.0,0.0,0.0,0.0,0.0,0.0,0.0,0.0,0.0,0.0,0.0,0.0,0.0,0.0,0.0,0.0,0.0,0.0,0.0,0.0,0.0,0.0,0.0,0.0,0.0,0.0,0.0,0.0,0.0,0.0,0.0,0.0,0.0,0.0,0.0,0.0,0.0,0.0,0.0,0.0,0.0,0.0,0.0,0.0,0.0,0.0,0.0,0.0,0.0,0.0,0.0,0.0,0.0,0.0,0.0,0.0,0.0,0.0,0.0,0.0,0.0,0.0,0.0,0.0,0.0,0.0,0.0,0.0,0.0,0.0,0.0,0.0,0.0,0.0,0.0,0.0,0.0,0.0,0.0,0.0,0.0,0.0,0.0,0.0,0.0,0.0,0.0,0.0,0.0,-0.5834,0.0,0.0,0.0,0.0,0.0,0.0,0.0,0.0,0.0,0.0,0.0,0.0,0.0,0.0,-0.9676,-0.971,-0.9851,-1.0065,0.0,0.0,-1.0797,-1.1161,-1.1454,-1.1785,0.0,0.0,0.0,0.0,0.0,0.0,0.0,0.0,0.0,0.0,0.0,0.0,0.0,0.0,0.0,0.0,0.0,0.0,0.0,0.0,0.0,0.0,0.0,0.0,0.0,0.0,0.0,0.0,0.0,0.0,0.0,0.0,0.0,0.0,0.0,0.0,0.0,0.0,0.0,0.0,0.0,0.0,0.0,0.0,0.0,0.0,0.0,0.0,0.0,0.0,0.0,0.0,0.0,0.0,0.0,0.0,0.0,0.0,0.0,0.0,0.0,0.0,0.0,0.0,0.0,0.0,0.0,0.0,0.0,0.0,0.0,0.0,0.0,0.0,0.0,0.0,0.0,0.0,0.0,0.0,0.0,0.0,0.0,0.0,0.0,0.0,0.0,0.0,0.0,0.0,0.0,0.0,0.0,0.0,0.0,0.0,0.0,0.0,0.0,0.0,0.0,0.0,0.0,0.0,0.0,-0.9555,-0.9713,-1.0095,-1.0304,0.0,-1.1152,-1.163,-1.1277,-1.2144,-1.2805,-1.2398,0.0,0.0,0.0,0.0,0.0,0.0,0.0,0.0,0.0,0.0,0.0,0.0,0.0,0.0,0.0,0.0,0.0,0.0,0.0,0.0,0.0,0.0,0.0,0.0,0.0,0.0,0.0,0.0,0.0,0.0,0.0,0.0,0.0,0.0,0.0,0.0,0.0,0.0,0.0,0.0,0.0,0.0,0.0,0.0,0.0,0.0,0.0,0.0,0.0,0.0,0.0,0.0,0.0,0.0,0.0,0.0,0.0,0.0,0.0,0.0,0.0,-0.0673,-0.1005,0.0,0.0,0.0,0.0,0.0,0.0,0.0,0.0,0.0,0.0,0.0,0.0,0.0,0.0,0.0,0.0,0.0,0.0,0.0,0.0,0.0,0.0,0.0,0.0,0.0,0.0,0.0,0.0,-0.6437,-0.6437,-0.6437,0.0,0.0,0.0,0.0,0.0,0.0,0.0,0.0,0.0,0.0,-0.9178,-0.9566,-0.9951,0.0,0.0,-1.1394,-1.1869,-1.2201,-1.2831,-1.3257,-1.3485,-1.3414,0.0,0.0,0.0,0.0,0.0,0.0,0.0,0.0,0.0,0.0,0.0,0.0,0.0,0.0,0.0,0.0,0.0,0.0,0.0,0.0,0.0,0.0,0.0,0.0,0.0,0.0,0.0,0.0,0.0,0.0,0.0,0.0,0.0,0.0,0.0,0.0,0.0,0.0,0.0,0.0,0.0,0.0,0.0,0.0,0.0,0.0,0.0,0.0,0.0,0.0,0.0,0.0,0.0,0.0,0.0,0.0,0.0,0.0,-0.0112,-0.0448,-0.1228,-0.1551,0.0,0.0,0.0,0.0,0.0,0.0,0.0,0.0,0.0,0.0,0.0,0.0,0.0,0.0,0.0,0.0,0.0,0.0,0.0,0.0,0.0,0.0,0.0,0.0,0.0,0.0,0.0,0.0,-0.6437,-0.6437,-0.6437,0.0,0.0,0.0,0.0,0.0,0.0,0.0,0.0,0.0,0.0,-0.9071,-0.953,-0.9909,-1.0399,-1.1105,-1.1717,-1.2312,-1.2904,-1.3419,-1.3857,-1.4234,0.0,0.0,0.0,0.0,0.0,0.0,0.0,0.0,0.0,0.0,0.0,0.0,0.0,0.0,0.0,0.0,0.0,0.0,0.0,0.0,0.0,0.0,0.0,0.0,0.0,0.0,0.0,0.6437,0.0,0.0,0.6042,0.0,0.0,0.0,0.0,0.0,0.0,0.0,0.0,0.0,0.0,0.0,0.0,0.0,0.0,0.0,0.0,0.0,0.0,0.0,0.0,0.0,0.0,0.0,0.0,0.0,0.0,0.0,0.0,-0.056,-0.1456,-0.1547,-0.1644,-0.1642,0.0,0.0,0.0,0.0,0.0,0.0,0.0,0.0,0.0,0.0,0.0,0.0,0.0,0.0,0.0,0.0,0.0,0.0,0.0,0.0,0.0,0.0,0.0,0.0,0.0,0.0,-0.6437,-0.6437,-0.6437,0.0,0.0,0.0,0.0,0.0,0.0,0.0,0.0,0.0,-0.7641,-0.8426,-0.9144,-0.9727,-1.0089,-1.0543,-1.1129,-1.1936,-1.2662,-1.3121,-1.3871,-1.446,0.0,0.0,0.0,0.0,0.0,0.0,0.0,0.0,0.0,0.0,0.0,0.0,0.0,0.0,0.0,0.0,0.0,0.0,0.0,0.0,0.0,0.0,0.0,0.0,0.0,0.0,0.0,0.7039,0.6642,0.0,0.0,0.0,0.0,0.0,0.0,0.0,0.0,0.0,0.0,0.0,0.5436,0.5336,0.0,0.0,0.0,0.0,0.0,0.0,0.0,0.0,0.0,0.0,0.0,0.0,0.0441,0.0,0.0,0.0,0.0,-0.0759,-0.1194,-0.1628,-0.162,-0.1712,-0.2008,0.0,0.0,0.0,0.0,0.0,0.0,0.0,0.0,0.0,0.0,0.0,0.0,0.0,0.0,0.0,0.0,0.0,0.0,0.0,0.0,0.0,0.0,0.0,0.0,0.0,-0.6437,0.0,0.0,0.0,0.0,0.0,0.0,0.0,0.0,0.0,0.0,0.0,-0.7648,-0.8154,-0.8696,-0.9258,-0.9691,-1.0334,-1.098,0.0,0.0,0.0,0.0,0.0,0.0,0.0,0.0,0.0,0.0,0.0,0.0,0.0,0.0,-1.6112,-1.6031,-1.5971,-1.5859,-1.5588,0.0,0.0,0.0,0.0,0.0,0.0,0.0,0.0,0.0,0.0,0.0,0.0,0.0,0.0,0.7141,0.0,0.6642,0.0,0.0,0.0,0.0,0.0,0.0,0.0,0.0,0.5834,0.5834,0.5837,0.5839,0.5737,0.0,0.5236,0.4535,0.0,0.0,0.0,0.0,0.0,0.0,0.0,0.0,0.0651,0.0,0.0,-0.0213,-0.0533,-0.128,-0.1601,-0.16,-0.1697,-0.1886,-0.2159,-0.2237,-0.2323,0.0,0.0,0.0,0.0,0.0,0.0,0.0,0.0,0.0,0.0,0.0,0.0,0.0,0.0,0.0,0.0,0.0,0.0,0.0,0.0,0.0,0.0,0.0,-0.6437,0.0,0.0,0.0,0.0,0.0,0.0,0.0,0.0,0.0,-0.7138,-0.736,-0.7701,-0.8249,-0.8821,-0.9454,-1.0058,0.0,0.0,0.0,0.0,0.0,0.0,0.0,-1.5127,-1.5606,-1.5785,-1.5986,-1.6105,-1.6237,-1.6392,-1.6695,0.0,0.0,-1.6177,-1.6049,-1.5866,-1.5687,-1.5774,-1.592,-1.5677,-1.6588,-1.7725,0.0,0.0,0.0,0.0,0.0,0.0,0.0,0.0,0.7643,0.7347,0.0,0.6845,0.0,0.0,0.0,0.0,0.0,0.6437,0.0,0.0,0.6434,0.6437,0.6437,0.6139,0.6042,0.6042,0.5541,0.5037,0.4734,0.3732,0.0,0.0,0.0,0.0,0.0,0.0,0.0639,0.0,0.0,-0.0532,-0.1491,-0.1598,-0.1597,-0.1596,-0.1988,-0.2159,-0.2024,-0.2526,-0.2826,-0.2826,-0.3327,0.0,0.0,0.0,0.0,0.0,0.0,0.0,0.0,0.0,0.0,0.0,0.0,0.0,0.0,0.0,0.0,0.0,0.0,0.0,0.0,-0.6239,0.0,0.0,0.0,0.0,0.0,0.0,0.0,0.0,0.0,0.0,-0.7138,-0.7351,-0.7589,-0.7919,0.0,0.0,0.0,0.0,-1.1021,-1.19,-1.2555,-1.3315,-1.4504,-1.4826,-1.5256,-1.5779,0.0,0.0,-1.6605,-1.6488,-1.6413,-1.6626,-1.6691,-1.6593,-1.6092,-1.6176,-1.6186,-1.5905,-1.6109,-1.6358,-1.6553,-1.7246,-1.817,0.8272,0.0,0.0,0.0,0.0,0.8038,0.7939,0.7839,0.7646,0.7547,0.7347,0.7138,0.0,0.0,0.0,0.0,0.0,0.0,0.6936,0.6936,0.6939,0.6936,0.6939,0.6739,0.6545,0.6545,0.6042,0.5639,0.5336,0.4435,0.3734,0.3232,0.0,0.0,0.0,0.0,0.0942,0.0,0.0,-0.0513,-0.1539,-0.154,-0.1746,-0.2053,-0.2043,-0.2335,-0.2828,-0.3029,-0.3229,-0.363,-0.3831,0.0,0.0,0.0,0.0,0.0,0.0,0.0,0.0,0.0,0.0,0.0,0.0,0.0,0.0,0.0,0.0,0.0,0.0,0.0,-0.6239,-0.6337,-0.6437,0.0,0.0,0.0,0.0,0.0,0.0,0.0,0.0,0.0,-0.7138,-0.7272,-0.7446,0.0,0.0,-0.9788,-1.1173,-1.1289,-1.1678,-1.2555,-1.3098,0.0,-1.4713,-1.5148,-1.5583,-1.6105,-1.615,-1.6327,-1.6652,-1.6625,-1.6632,-1.6941,-1.699,-1.6876,-1.6981,-1.6821,-1.6739,-1.6672,-1.6864,-1.6922,-1.6685,-1.7569,-1.869,0.8255,0.8038,0.8038,0.8038,0.8038,0.8038,0.8038,0.8038,0.7842,0.7746,0.7543,0.7441,0.7338,0.7235,0.7235,0.0,0.0,0.0,0.7235,0.7235,0.7235,0.7235,0.7138,0.7042,0.6942,0.6745,0.6339,0.5937,0.5534,0.4935,0.4234,0.3534,0.0,0.0,0.1949,0.1745,0.1233,0.0308,-0.0305,-0.0909,-0.1617,-0.1718,-0.192,-0.2123,-0.2324,-0.2726,-0.313,-0.3533,-0.3833,-0.4334,-0.4435,-0.4636,0.0,0.0,0.0,0.0,0.0,0.0,0.0,0.0,0.0,0.0,0.0,-0.5236,-0.5541,0.0,0.0,0.0,-0.6142,-0.6239,-0.6337,-0.6437,0.0,0.0,0.0,0.0,0.0,0.0,0.0,-0.6539,-0.6739,-0.7042,-0.7341,-0.7338,-0.7491,-0.7932,-0.8752,-0.9823,-1.1085,0.0,-1.1763,-1.2515,-1.3153,-1.3794,-1.4633,-1.506,-1.5596,-1.6333,-1.6491,-1.6464,-1.6649,-1.672,-1.6943,-1.7099,-1.7168,-1.7244,-1.7449,-1.7435,-1.7384,-1.7305,-1.7527,-1.7677,-1.7223,-1.8103,-1.922,0.818,0.8038,0.8038,0.8038,0.8038,0.8038,0.8038,0.8038,0.8038,0.7839,0.7646,0.7646,0.7537,0.7217,0.7214,0.0,0.7223,0.722,0.7226,0.7238,0.7235,0.7235,0.7238,0.7238,0.7138,0.6842,0.6539,0.6137,0.5634,0.5035,0.4535,0.4033,0.2925,0.2422,0.2422,0.1919,0.1313,0.0808,-0.0808,-0.1617,-0.1617,-0.2022,-0.2123,-0.2022,-0.2828,-0.323,-0.333,-0.4034,-0.4537,-0.4834,-0.5138,-0.5338,-0.5636,0.0,0.0,0.0,0.0,0.0,0.0,0.0,0.0,0.0,0.0,0.0,0.0,0.0,0.0,-0.6337,-0.6437,0.0,-0.6437,-0.6437,0.0,0.0,0.0,-0.6434,-0.6437,-0.6634,-0.6828,-0.683,0.0,0.0,-0.7531,-0.764,-0.7788,-0.8004,-0.8653,-0.9548,-1.0664,-1.1209,-1.1615,-1.2255,-1.2967,-1.368,-1.4231,-1.4844,-1.5568,-1.639,-1.6707,-1.6673,-1.672,-1.6897,-1.7119,-1.7305,-1.7341,-1.7441,-1.7721,-1.8016,-1.8087,-1.7916,-1.8179,-1.8427,-1.8288,-1.878,-1.9671,0.818,0.8038,0.8038,0.8038,0.8038,0.8038,0.8038,0.8038,0.8038,0.7942,0.7942,0.7942,0.7779,0.7664,0.7561,0.7571,0.7667,0.767,0.7733,0.7836,0.7839,0.7839,0.7739,0.7643,0.7344,0.7138,0.6842,0.6339,0.5636,0.5238,0.4738,0.4033,0.3128,0.2623,0.2422,0.1818,0.1313,0.0808,-0.0808,-0.1617,-0.1617,-0.2022,-0.2324,-0.2625,-0.3029,-0.3632,-0.4435,-0.4634,-0.4935,-0.5336,-0.5436,-0.5639,-0.5839,-0.5939,0.0,0.0,0.0,0.0,0.0,0.0,0.0,0.0,0.0,-0.6039,-0.6239,0.0,-0.6337,0.0,-0.6437,-0.6437,-0.6437,-0.6539,0.0,0.0,-0.7039,-0.7036,-0.7036,-0.6955,-0.6994,-0.6997,-0.7189,-0.7381,-0.7482,-0.7868,-0.8141,-0.8062,-0.878,-0.9705,-1.0365,-1.1214,-1.1921,-1.2427,-1.3243,-1.3868,-1.4259,-1.5095,-1.5777,-1.606,-1.6407,-1.6778,-1.7065,-1.7191,-1.7254,-1.7356,-1.768,-1.7994,-1.8458,-1.855,-1.8735,-1.9028,-1.892,-1.8827,-1.9188,-1.9646,-2.0226,0.8119,0.8038,0.8038,0.8038,0.8038,0.8038,0.8038,0.8038,0.8038,0.8001,0.7936,0.7868,0.7797,0.7712,0.7634,0.7645,0.7716,0.7716,0.7763,0.7841,0.7845,0.7841,0.7845,0.7713,0.7448,0.7156,0.7012,0.6539,0.5636,0.5436,0.4935,0.4034,0.333,0.2826,0.2422,0.1818,0.1313,0.0808,-0.0505,-0.1415,-0.1819,-0.2121,-0.2524,-0.2928,-0.333,-0.3932,-0.4734,-0.4935,-0.5238,-0.5737,-0.5937,-0.6037,-0.6342,-0.6439,-0.6639,0.0,0.0,0.0,0.0,0.0,0.0,0.0,0.0,0.0,0.0,0.0,-0.6637,-0.6736,-0.6736,-0.6634,-0.6429,-0.6736,-0.7144,-0.7547,-0.7288,-0.7153,-0.7153,-0.7133,-0.7145,-0.705,-0.7337,-0.7528,-0.7624,-0.8042,-0.8325,-0.8402,-0.9149,-0.9975,-1.0693,-1.1281,-1.1942,-1.2445,-1.3252,-1.3945,-1.4547,-1.5239,-1.5718,-1.5862,-1.6353,-1.6861,-1.7559,-1.7588,-1.7527,-1.7893,-1.8172,-1.855,-1.902,-1.912,-1.9304,-1.9662,-1.9662,-1.9554,-1.9613,-2.0175,-2.0727,0.8038,0.8038,0.8038,0.8038,0.8038,0.8038,0.8028,0.8011,0.8007,0.7923,0.7777,0.7631,0.757,0.757,0.755,0.7553,0.757,0.757,0.758,0.7597,0.7597,0.7597,0.7604,0.7726,0.7508,0.7052,0.7162,0.6623,0.5634,0.5534,0.5035,0.4034,0.3432,0.2927,0.2422,0.1818,0.1212,0.0505,-0.0405,-0.1318,-0.2231,-0.2432,-0.2734,-0.3241,-0.3836,-0.4334,-0.4834,-0.5138,-0.5541,-0.6042,-0.6339,-0.6539,-0.6842,-0.7042,-0.7235,0.0,-0.7235,0.0,0.0,0.0,0.0,0.0,0.0,0.0,0.0,-0.6742,-0.6942,-0.7138,-0.7235,-0.703,-0.6523,-0.6918,-0.7415,-0.7819,-0.7397,-0.7118,-0.7115,-0.7181,-0.7276,-0.7279,-0.747,-0.7757,-0.7944,-0.8076,-0.8457,-0.8741,-0.9466,-1.028,-1.11,-1.1511,-1.1913,-1.2365,-1.3152,-1.3984,-1.4846,-1.5293,-1.5662,-1.5818,-1.6319,-1.6979,-1.7912,-1.7961,-1.8094,-1.8643,-1.8827,-1.9112,-1.9587,-1.9679,-1.9828,-2.0206,-2.0279,-2.0163,-2.0039,-2.0399,-2.0873,0.8237,0.8038,0.8038,0.8038,0.8038,0.8038,0.797,0.7855,0.7855,0.7773,0.7631,0.7478,0.7414,0.7407,0.7282,0.7299,0.7414,0.7414,0.7482,0.7597,0.7597,0.7597,0.76,0.7624,0.7416,0.7043,0.6976,0.6544,0.5636,0.5534,0.5033,0.4034,0.3432,0.2927,0.2422,0.0,0.0,0.0,-0.1436,-0.1756,-0.2271,-0.258,-0.3095,-0.3607,-0.4266,0.0,-0.5436,-0.5741,-0.6142,-0.6645,-0.6742,0.0,0.0,0.0,0.0,0.0,0.0,0.0,0.0,0.0,0.0,0.0,-0.7344,-0.7036,-0.7039,-0.7138,-0.7138,-0.7235,-0.7235,-0.7135,-0.7033,-0.7236,-0.7469,-0.7654,-0.7535,-0.7452,-0.7445,-0.7595,-0.759,-0.7587,-0.7869,-0.8059,-0.807,-0.8381,-0.8663,-0.8761,-0.9573,-1.0564,-1.1677,-1.1895,-1.2073,-1.2662,-1.3528,-1.44,-1.4981,-1.5458,-1.5805,-1.5859,-1.6539,-1.7347,-1.7961,-1.8404,-1.8558,-1.8827,-1.912,-1.9579,-2.0119,-2.0209,-2.018,-2.0333,-2.0536,-2.0729,-2.0677,-2.0738,-2.0875,0.8233,0.8038,0.8038,0.8038,0.0,0.7858,0.7744,0.7712,0.778,0.7689,0.7478,0.7322,0.7258,0.7255,0.7177,0.7183,0.7258,0.7255,0.7299,0.7373,0.7373,0.7373,0.7373,0.7451,0.7246,0.685,0.6885,0.6491,0.5563,0.561,0.5035,0.4034,0.3432,0.2927,0.2422,0.1615,0.0404,-0.1212,-0.1734,-0.2151,-0.2354,-0.2764,-0.3275,-0.3885,-0.4455,0.0,0.0,0.0,0.0,0.0,0.0,0.0,0.0,-0.7537,0.0,-0.764,-0.754,-0.764,-0.764,-0.754,-0.7611,-0.774,-0.757,-0.7394,-0.7431,-0.7378,-0.7334,-0.7432,-0.7472,-0.743,-0.7621,-0.7555,-0.7604,-0.7685,-0.7754,-0.7763,-0.7841,-0.7804,-0.78,-0.7796,-0.7889,-0.8068,-0.8337,-0.8568,-0.8754,-0.8762,-0.9651,-1.0637,-1.1447,-1.1884,-1.2268,-1.305,-1.4016,-1.4783,-1.5166,-1.5642,-1.6096,-1.623,-1.6814,-1.7636,-1.8636,-1.8783,-1.892,-1.9288,-1.9662,-2.0027,-2.0374,-2.0416,-2.0394,-2.0553,-2.0539,-2.0607,-2.0686,-2.0808,-2.0704,0.8237,0.8038,0.8038,0.8038,0.8024,0.7677,0.7614,0.7563,0.0,0.0,0.0,0.7197,0.7139,0.7139,0.7139,0.7139,0.7139,0.7139,0.7139,0.7139,0.7139,0.7051,0.7061,0.7178,0.707,0.656,0.6795,0.644,0.5494,0.549,0.5035,0.4033,0.3432,0.2826,0.2221,0.1212,0.0202,-0.0808,-0.1825,-0.2437,-0.2433,-0.3043,-0.3549,-0.3952,-0.4642,-0.5135,-0.5636,-0.6137,-0.6639,-0.6842,-0.7344,-0.7643,-0.7646,-0.7842,-0.8038,-0.8038,-0.8038,-0.8028,-0.8004,-0.8001,-0.7835,-0.7588,-0.7665,-0.761,-0.7655,-0.7459,-0.7584,-0.7773,-0.776,-0.7691,-0.7872,-0.784,-0.7826,-0.8005,-0.7964,-0.7967,-0.8053,-0.8031,-0.7948,-0.8028,-0.8124,-0.8204,-0.8648,-0.8864,-0.8853,-0.8943,-0.9726,-1.0716,-1.1344,-1.1936,-1.2592,-1.3522,-1.4406,-1.5172,-1.5445,-1.592,-1.6285,-1.6497,-1.7001,-1.7923,-1.91,-1.9261,-1.9204,-1.9754,-2.011,-2.0439,-2.0549,-2.0572,-2.0472,-2.0598,-2.0395,-2.0236,-2.0307,-2.0492,-2.0576,0.8432,0.8038,0.8038,0.8038,0.8028,0.7677,0.756,0.7397,0.7285,0.721,0.717,0.7149,0.7139,0.7139,0.7139,0.7139,0.7139,0.7139,0.7139,0.7139,0.7139,0.6966,0.6881,0.6903,0.6709,0.6374,0.6418,0.6159,0.5589,0.5293,0.4839,0.4033,0.3228,0.2423,0.1717,0.0606,-0.0202,-0.0809,-0.1848,-0.2483,-0.248,-0.3202,-0.3718,-0.392,-0.4974,-0.5636,-0.5839,-0.6442,-0.6842,-0.7138,-0.7444,-0.7743,-0.7939,-0.7939,-0.8038,-0.8038,-0.8038,-0.7984,-0.7955,-0.7942,-0.778,-0.7645,-0.7795,-0.7806,-0.7655,-0.755,-0.7628,-0.7904,-0.7875,-0.7775,-0.7657,-0.7742,-0.8044,-0.8413,-0.8271,-0.807,-0.7989,-0.8136,-0.8288,-0.8464,-0.864,-0.8823,-0.9087,-0.92,-0.9222,-0.9314,-0.991,-1.0734,-1.1736,-1.2554,-1.3282,-1.4046,-1.4694,-1.5267,-1.573,-1.6204,-1.656,-1.6591,-1.7375,-1.8295,-1.9393,-1.9545,-1.9579,-1.9845,-2.0292,-2.0532,-2.0519,-2.0658,-2.0499,-2.0272,-2.009,-2.0033,-1.9734,-2.0061,-2.0407,0.8531,0.8038,0.8038,0.7991,0.7899,0.7573,0.7448,0.7244,0.7173,0.7139,0.7139,0.7139,0.7054,0.6969,0.6969,0.6877,0.6697,0.6697,0.6697,0.6697,0.6697,0.6697,0.6609,0.6609,0.6376,0.5995,0.6089,0.5731,0.5026,0.4967,0.4535,0.3531,0.2827,0.202,0.101,0.0303,-0.0505,-0.1516,-0.2241,-0.2556,-0.2657,-0.3472,-0.398,-0.408,-0.5054,-0.5737,-0.6139,-0.6739,-0.7138,-0.7441,-0.7839,-0.8137,-0.8237,-0.8333,-0.8396,-0.8318,-0.8311,-0.824,-0.7984,-0.7897,-0.7823,-0.7848,-0.7854,-0.7898,-0.7807,-0.7798,-0.7937,-0.8026,-0.7953,-0.7891,-0.7782,-0.7811,-0.8224,-0.8877,-0.8882,-0.8736,-0.8648,-0.8732,-0.8815,-0.8995,-0.9082,-0.9174,-0.9432,-0.9432,-0.951,-0.968,-1.0314,-1.1165,-1.2092,-1.2496,-1.3078,-1.3908,-1.4772,-1.5439,-1.592,-1.6581,-1.6929,-1.6958,-1.7848,-1.8743,-1.9445,-1.9687,-1.9945,-2.0292,-2.0645,-2.0757,-2.0658,-2.0589,-2.0473,-2.0182,-1.9885,-1.9743,-1.9696,-2.0245,-2.0703,0.8531,0.8038,0.8004,0.7882,0.7597,0.7468,0.7282,0.7146,0.7139,0.7139,0.7051,0.7054,0.6966,0.6792,0.6704,0.6526,0.6343,0.6346,0.634,0.6251,0.6254,0.6166,0.6074,0.6074,0.5824,0.5512,0.5611,0.5244,0.452,0.4462,0.4033,0.3029,0.2324,0.1414,0.0202,-0.0101,-0.101,-0.2324,-0.2725,-0.2925,-0.2927,-0.3731,-0.4232,-0.4329,-0.5231,-0.6034,-0.6539,-0.7042,-0.7441,-0.7643,-0.8137,-0.8432,-0.8528,-0.8693,-0.8721,-0.8605,-0.8553,-0.8365,-0.8102,-0.8044,-0.8046,-0.8046,-0.8019,-0.8032,-0.804,-0.824,-0.823,-0.8121,-0.8116,-0.8032,-0.8028,-0.8097,-0.8448,-0.9275,-0.945,-0.9354,-0.9349,-0.9349,-0.9349,-0.9349,-0.9345,-0.9432,-0.9694,-0.9777,-0.9854,-1.0289,-1.0916,-1.1712,-1.2207,-1.2451,-1.2962,-1.3786,-1.4784,-1.5543,-1.617,-1.6857,-1.7304,-1.7446,-1.8126,-1.892,-1.9496,-1.9862,-2.011,-2.0555,-2.0817,-2.0864,-2.0743,-2.0674,-2.043,-2.0123,-1.994,-1.9882,-2.0148,-2.0916,-2.1353,0.8528,0.8018,0.7997,0.7668,0.7237,0.7289,0.7278,0.7149,0.7139,0.7139,0.7051,0.6881,0.6792,0.6792,0.652,0.6257,0.6083,0.6083,0.5988,0.5719,0.5808,0.5542,0.5099,0.5102,0.4881,0.4606,0.4714,0.4518,0.4002,0.3789,0.3226,0.2324,0.1516,0.0606,-0.0606,-0.101,-0.1818,-0.3029,-0.3328,-0.3429,-0.3229,-0.4234,-0.4529,-0.4024,-0.5532,-0.6539,-0.715,-0.735,-0.7643,-0.7942,-0.8237,-0.8528,-0.8707,-0.8691,-0.8609,-0.8583,-0.8441,-0.8199,-0.8135,-0.8345,-0.8344,-0.7967,-0.8132,-0.8288,-0.8548,-0.8748,-0.8673,-0.8316,-0.8388,-0.8548,-0.8548,-0.8536,-0.8894,-0.9722,-0.9901,-0.9809,-0.9441,-0.9349,-0.9345,-0.9519,-0.9602,-0.9777,-1.0125,-1.0212,-1.0386,-1.0738,-1.1359,-1.1905,-1.2025,-1.2616,-1.3258,-1.4032,-1.478,-1.5531,-1.6397,-1.6958,-1.7512,-1.7971,-1.8218,-1.8904,-1.9704,-1.997,-2.0002,-2.0645,-2.0782,-2.0784,-2.0535,-2.0503,-2.0476,-1.9981,-2.0017,-2.0342,-2.0819,-2.1507,-2.1998,0.8531,0.8024,0.7976,0.7641,0.7187,0.7182,0.72,0.7143,0.7139,0.7054,0.6877,0.67,0.6523,0.6349,0.5991,0.5636,0.5282,0.4924,0.4741,0.465,0.4472,0.4383,0.4208,0.417,0.4124,0.4079,0.4199,0.4184,0.3734,0.27,0.1716,0.0908,0.0202,-0.0605,-0.1514,-0.2522,-0.3229,-0.3632,-0.4228,-0.4531,-0.4634,-0.5035,-0.5331,-0.5532,-0.6237,-0.7144,-0.7952,-0.7949,-0.8041,-0.8432,-0.8829,-0.9083,-0.9073,-0.93,-0.9362,-0.9157,-0.8679,-0.8551,-0.8763,-0.8962,-0.8915,-0.8732,-0.8819,-0.8907,-0.8995,-0.9082,-0.9087,-0.8907,-0.8995,-0.9078,-0.9082,-0.9069,-0.9248,-0.9887,-1.0241,-1.0231,-0.9951,-1.0038,-1.0125,-1.0212,-1.0207,-1.0294,-1.0467,-1.0554,-1.0646,-1.1008,-1.1543,-1.1974,-1.2055,-1.2475,-1.3237,-1.4121,-1.4847,-1.5684,-1.6642,-1.7333,-1.79,-1.8357,-1.8703,-1.9288,-1.9987,-2.0252,-2.0283,-2.0826,-2.0739,-2.0694,-2.048,-2.0366,-2.0289,-1.9953,-2.0167,-2.0634,-2.1128,-2.1911,-2.2227,0.8502,0.795,0.787,0.7543,0.7118,0.7098,0.7139,0.7139,0.7139,0.6962,0.6792,0.6435,0.6169,0.5813,0.5549,0.5196,0.4572,0.3851,0.3413,0.3246,0.3069,0.2987,0.2914,0.2863,0.2896,0.2829,0.29,0.2849,0.2473,0.1102,0.0101,-0.0504,-0.1512,-0.2218,-0.2825,-0.3934,-0.4437,-0.4533,-0.5131,-0.5732,-0.6037,-0.6237,-0.6437,-0.6739,-0.7039,-0.7743,-0.8652,-0.8446,-0.8535,-0.9027,-0.9383,-0.9591,-0.9556,-0.9746,-0.9824,-0.9422,-0.9063,-0.8894,-0.9262,-0.9441,-0.9441,-0.9349,-0.9349,-0.9349,-0.9345,-0.9437,-0.9519,-0.9607,-0.9607,-0.9694,-0.9611,-0.951,-0.968,-1.0139,-1.0579,-1.0564,-1.0467,-1.0646,-1.0646,-1.0733,-1.0641,-1.0733,-1.0819,-1.0819,-1.0997,-1.1267,-1.171,-1.2055,-1.2215,-1.2552,-1.3243,-1.4035,-1.4947,-1.5861,-1.6829,-1.7584,-1.8249,-1.8727,-1.9088,-1.9571,-2.0169,-2.0326,-2.0473,-2.0881,-2.0651,-2.0479,-2.0425,-2.0366,-2.0363,-2.0339,-2.0479,-2.0934,-2.1425,-2.2043,-2.2412,0.8441,0.779,0.7512,0.7312,0.7149,0.7143,0.7139,0.7139,0.7139,0.6966,0.6704,0.6349,0.5725,0.5097,0.5374,0.5112,0.422,0.2962,0.2085,0.1565,0.1475,0.1397,0.1138,0.114,0.0863,0.0583,0.0587,0.0297,-0.0201,-0.1108,-0.1513,-0.1613,-0.3226,-0.4237,-0.4539,-0.4736,-0.5035,-0.5534,-0.6134,-0.6634,-0.7135,-0.7637,-0.7739,-0.7543,-0.8035,-0.8538,-0.905,-0.9141,-0.9232,-0.9529,-0.9656,-0.9844,-0.9997,-0.978,-0.9494,-0.9398,-0.927,-0.9257,-0.9349,-0.9717,-0.9809,-0.9437,-0.9432,-0.9432,-0.9689,-0.9864,-1.0038,-1.0207,-1.0386,-1.0386,-1.0125,-1.0028,-1.0197,-1.0651,-1.0738,-1.0733,-1.0646,-1.0733,-1.0733,-1.0733,-1.0727,-1.0819,-1.1008,-1.1181,-1.1354,-1.1613,-1.1871,-1.2123,-1.2369,-1.2966,-1.3512,-1.4176,-1.4994,-1.5949,-1.6828,-1.7619,-1.8249,-1.8827,-1.9296,-1.977,-2.0252,-2.0616,-2.0852,-2.0935,-2.0819,-2.0652,-2.0585,-2.0595,-2.0656,-2.0752,-2.0906,-2.1262,-2.1721,-2.2101,-2.2488,0.8376,0.7658,0.7455,0.7282,0.7146,0.7139,0.7139,0.7139,0.7139,0.6877,0.6523,0.6257,0.5455,0.4295,0.3758,0.3247,0.2556,0.1371,0.0462,-0.0094,-0.0282,-0.0472,-0.0666,-0.0771,-0.0778,-0.098,-0.119,-0.1802,-0.2819,-0.3429,-0.3629,-0.3726,-0.4429,-0.5135,-0.5541,-0.6039,-0.6434,-0.6634,-0.7335,-0.7832,-0.7935,-0.8535,-0.8733,-0.8832,-0.8832,-0.9038,-0.9438,-0.9628,-0.9772,-0.9951,-1.0066,-1.0108,-0.9956,-0.9867,-0.9777,-0.9791,-0.9777,-0.9777,-0.9951,-1.0226,-1.0405,-1.0212,-1.0207,-1.0212,-1.0294,-1.0381,-1.0472,-1.0554,-1.0641,-1.0646,-1.0651,-1.0554,-1.0549,-1.0733,-1.0921,-1.1008,-1.0916,-1.1003,-1.1089,-1.1089,-1.1084,-1.1089,-1.1176,-1.1267,-1.144,-1.1705,-1.2152,-1.2404,-1.2631,-1.3045,-1.3613,-1.4321,-1.5088,-1.5922,-1.6936,-1.7834,-1.8535,-1.9104,-1.9571,-1.9837,-2.0209,-2.0698,-2.0951,-2.0953,-2.0855,-2.078,-2.0689,-2.0585,-2.0771,-2.1025,-2.1185,-2.1385,-2.1863,-2.2434,-2.2735,0.8034,0.7522,0.736,0.7238,0.7146,0.7139,0.7139,0.7139,0.7139,0.6871,0.6432,0.608,0.5277,0.4028,0.2956,0.2001,0.1116,-0.0278,-0.122,-0.1823,-0.2017,-0.2217,-0.2428,-0.2457,-0.2571,-0.2772,-0.3103,-0.383,-0.4636,-0.5041,-0.5142,-0.5135,-0.5534,-0.5934,-0.6342,-0.7042,-0.7437,-0.7637,-0.8134,-0.8531,-0.873,-0.9038,-0.9331,-0.9529,-0.9529,-0.9628,-0.9826,-1.0117,-1.0227,-1.0345,-1.0545,-1.0505,-1.0206,-1.0207,-1.0212,-1.0212,-1.0115,-1.0115,-1.0381,-1.0743,-1.0835,-1.0733,-1.0733,-1.0733,-1.0733,-1.0733,-1.0824,-1.0824,-1.0906,-1.0992,-1.1003,-1.1003,-1.0906,-1.0906,-1.11,-1.1278,-1.1094,-1.1176,-1.1267,-1.1267,-1.1267,-1.1267,-1.1267,-1.1262,-1.1435,-1.1791,-1.2324,-1.2661,-1.2887,-1.3137,-1.3646,-1.4341,-1.512,-1.5958,-1.6896,-1.7913,-1.87,-1.9322,-1.9646,-1.9903,-2.0275,-2.0671,-2.1024,-2.0935,-2.0916,-2.082,-2.0791,-2.0646,-2.082,-2.1158,-2.1298,-2.14,-2.208,-2.2778,-2.3067,0.7519,0.737,0.721,0.7149,0.7139,0.7139,0.7139,0.7139,0.7139,0.6874,0.6432,0.5988,0.5275,0.4208,0.3314,0.1921,0.0282,-0.14,-0.2655,-0.3427,-0.3529,-0.3658,-0.3912,-0.4016,-0.4219,-0.472,-0.5231,-0.5536,-0.5639,-0.5839,-0.6042,-0.6139,-0.6542,-0.6742,-0.6845,-0.754,-0.8041,-0.8137,-0.8531,-0.8928,-0.9137,-0.9232,-0.9335,-0.9628,-1.0019,-1.0314,-1.0408,-1.0605,-1.0807,-1.0805,-1.0885,-1.0834,-1.066,-1.0651,-1.0646,-1.0549,-1.0269,-1.0269,-1.0641,-1.1013,-1.1105,-1.0824,-1.0733,-1.0814,-1.0819,-1.0911,-1.1008,-1.1008,-1.1154,-1.1235,-1.123,-1.1289,-1.1219,-1.1267,-1.1267,-1.1267,-1.1267,-1.1267,-1.1267,-1.1267,-1.1267,-1.1267,-1.1262,-1.1251,-1.1505,-1.1952,-1.2478,-1.2906,-1.3058,-1.3307,-1.3724,-1.4355,-1.5113,-1.597,-1.6957,-1.7976,-1.8693,-1.9348,-1.9596,-1.9894,-2.0275,-2.0753,-2.1024,-2.1025,-2.1207,-2.12,-2.1078,-2.0973,-2.1016,-2.1255,-2.1308,-2.1532,-2.222,-2.2906,-2.3301,0.7509,0.7356,0.7204,0.7139,0.7139,0.7139,0.7139,0.7139,0.7139,0.6962,0.6612,0.6169,0.5455,0.4472,0.3403,0.2091,0.0652,-0.094,-0.2409,-0.3479,-0.3995,-0.4409,-0.4832,-0.524,-0.5539,-0.5937,-0.6239,-0.6439,-0.6439,-0.6739,-0.6942,-0.7144,-0.7247,-0.7447,-0.7643,-0.8233,-0.8531,-0.863,-0.9027,-0.9426,-0.943,-0.943,-0.9628,-0.9826,-1.0216,-1.0511,-1.0708,-1.09,-1.1094,-1.1091,-1.0963,-1.0829,-1.0742,-1.0733,-1.0733,-1.0727,-1.0549,-1.0549,-1.0916,-1.1105,-1.1283,-1.1089,-1.1089,-1.1084,-1.1089,-1.117,-1.117,-1.1149,-1.1123,-1.1101,-1.1079,-1.1216,-1.1282,-1.1322,-1.1267,-1.1257,-1.1267,-1.1267,-1.1267,-1.1267,-1.1267,-1.1267,-1.1262,-1.1332,-1.1499,-1.1952,-1.2655,-1.3174,-1.3319,-1.3652,-1.4075,-1.4594,-1.5331,-1.59,-1.6766,-1.7731,-1.8612,-1.9347,-1.9703,-1.9985,-2.0456,-2.0843,-2.1114,-2.1266,-2.1434,-2.1494,-2.1365,-2.1379,-2.141,-2.1517,-2.169,-2.2059,-2.2467,-2.2938,-2.3416,0.7478,0.7282,0.718,0.7139,0.7139,0.7139,0.7139,0.7139,0.7139,0.6966,0.6704,0.6346,0.5722,0.4919,0.3849,0.2718,0.1477,0.0094,-0.1346,-0.2784,-0.4026,-0.4738,-0.5438,-0.6139,-0.6539,-0.6839,-0.7141,-0.7244,-0.7241,-0.7441,-0.754,-0.7743,-0.7743,-0.7842,-0.8038,-0.8528,-0.8825,-0.8825,-0.9327,-0.9628,-0.9624,-0.9624,-0.9727,-0.9924,-1.0216,-1.0511,-1.0703,-1.1002,-1.1293,-1.1357,-1.1271,-1.1105,-1.0947,-1.0906,-1.0906,-1.0906,-1.0906,-1.0997,-1.1094,-1.1186,-1.1278,-1.1267,-1.1267,-1.1267,-1.1251,-1.1295,-1.1214,-1.1182,-1.0999,-1.0853,-1.0914,-1.092,-1.1057,-1.1042,-1.125,-1.1257,-1.1322,-1.1267,-1.1267,-1.1267,-1.1267,-1.1348,-1.1435,-1.1327,-1.158,-1.2118,-1.2826,-1.3442,-1.3496,-1.3835,-1.4243,-1.4741,-1.5278,-1.5888,-1.6568,-1.7494,-1.8534,-1.9179,-1.9709,-2.0206,-2.0564,-2.1059,-2.1437,-2.1551,-2.1752,-2.1873,-2.1791,-2.1727,-2.1698,-2.1845,-2.2053,-2.2241,-2.2628,-2.3161,-2.3553,0.7421,0.7153,0.7139,0.7139,0.7139,0.7139,0.7139,0.7139,0.7139,0.6966,0.6789,0.652,0.6077,0.5371,0.4654,0.3707,0.2485,0.1296,0.0,-0.1561,-0.3184,-0.452,-0.5734,-0.6639,-0.7138,-0.7543,-0.7739,-0.7939,-0.7839,-0.7939,-0.8038,-0.7939,-0.7939,-0.8038,-0.8137,-0.8528,-0.8825,-0.8928,-0.9327,-0.9628,-0.9624,-0.9624,-0.9628,-0.9727,-1.0117,-1.0413,-1.0605,-1.0998,-1.1381,-1.1517,-1.1613,-1.1572,-1.1326,-1.1267,-1.1262,-1.1262,-1.1267,-1.1267,-1.1267,-1.1267,-1.1267,-1.1267,-1.1267,-1.1267,-1.1246,-1.1165,-1.1031,-1.1009,-1.0778,-1.0616,-1.0616,-1.0557,-1.0579,-1.0643,-1.0968,-1.1191,-1.1289,-1.1241,-1.1267,-1.1348,-1.1348,-1.1435,-1.1613,-1.1494,-1.174,-1.218,-1.2887,-1.3411,-1.3672,-1.4004,-1.4328,-1.4824,-1.5401,-1.5914,-1.6576,-1.7626,-1.8564,-1.8962,-1.9639,-2.0296,-2.0744,-2.1239,-2.1715,-2.1915,-2.2048,-2.216,-2.2279,-2.2247,-2.2341,-2.2631,-2.2692,-2.2573,-2.2789,-2.3273,-2.3731,0.7421,0.7149,0.7139,0.7139,0.7139,0.7139,0.7139,0.7139,0.7139,0.7054,0.6966,0.6792,0.6438,0.5905,0.5369,0.4493,0.3264,0.2204,0.0936,-0.048,-0.1958,-0.4076,-0.5919,-0.6839,-0.7341,-0.7643,-0.7842,-0.8038,-0.8038,-0.8038,-0.8038,-0.8038,-0.8038,-0.8137,-0.8333,-0.8627,-0.8928,-0.913,-0.943,-0.9624,-0.9624,-0.9624,-0.9727,-0.992,-1.0216,-1.0507,-1.0703,-1.1394,-1.1596,-1.1429,-1.1763,-1.1763,-1.1316,-1.1267,-1.1267,-1.1267,-1.1267,-1.1267,-1.1267,-1.1267,-1.1267,-1.1267,-1.1267,-1.1267,-1.1257,-1.1122,-1.0999,-1.0918,-1.0638,-1.0385,-1.0353,-1.0229,-1.0135,-1.0142,-1.0724,-1.1088,-1.1101,-1.1155,-1.1267,-1.1267,-1.144,-1.1613,-1.1693,-1.1757,-1.1901,-1.2339,-1.2954,-1.358,-1.3926,-1.425,-1.4573,-1.5159,-1.5658,-1.6027,-1.6635,-1.7709,-1.8481,-1.8725,-1.947,-2.0421,-2.0925,-2.1392,-2.1839,-2.2129,-2.2356,-2.2438,-2.2808,-2.2945,-2.3176,-2.3259,-2.2977,-2.2762,-2.3019,-2.336,-2.3906,0.7421,0.7143,0.7139,0.7139,0.7139,0.7139,0.7139,0.7139,0.7139,0.7139,0.7054,0.6966,0.67,0.6169,0.5725,0.4924,0.3864,0.3021,0.1682,0.0,-0.1863,-0.3988,-0.5724,-0.6637,-0.7141,-0.7543,-0.7743,-0.7942,-0.7939,-0.8038,-0.8038,-0.8038,-0.8137,-0.8233,-0.8435,-0.8829,-0.9034,-0.9236,-0.943,-0.9624,-0.9624,-0.9624,-0.9727,-1.0019,-1.0314,-1.0605,-1.0998,-1.1585,-1.1768,-1.1507,-1.1747,-1.1833,-1.1413,-1.1267,-1.1267,-1.1267,-1.1267,-1.1267,-1.1267,-1.1267,-1.1267,-1.1267,-1.1267,-1.1267,-1.1198,-1.1052,-1.0837,-1.0789,-1.0401,-1.0186,-1.0116,-0.9997,-0.9975,-1.021,-1.0536,-1.0875,-1.0966,-1.1203,-1.1246,-1.1354,-1.1527,-1.1785,-1.178,-1.1923,-1.2163,-1.251,-1.3228,-1.3763,-1.4284,-1.4594,-1.4908,-1.5409,-1.5824,-1.6102,-1.6695,-1.773,-1.8514,-1.8846,-1.9664,-2.061,-2.1122,-2.1571,-2.1909,-2.2264,-2.253,-2.2814,-2.311,-2.3476,-2.3546,-2.3493,-2.3163,-2.3238,-2.3562,-2.4113,-2.4493,0.7441,0.7166,0.7166,0.7153,0.7143,0.7139,0.7139,0.7139,0.7139,0.7051,0.7051,0.7051,0.6697,0.6343,0.5722,0.5104,0.4143,0.3302,0.178,-0.0096,-0.2271,-0.4327,-0.5534,-0.6234,-0.6839,-0.7444,-0.7543,-0.7743,-0.7939,-0.8038,-0.8038,-0.8137,-0.8233,-0.8432,-0.8634,-0.8931,-0.9232,-0.9331,-0.9529,-0.9624,-0.9723,-0.9727,-0.9826,-1.0216,-1.0413,-1.0806,-1.1194,-1.1663,-1.1788,-1.1364,-1.1789,-1.1811,-1.1348,-1.1267,-1.1267,-1.1267,-1.1267,-1.1267,-1.1267,-1.1267,-1.1267,-1.1267,-1.1267,-1.1267,-1.1193,-1.0988,-1.0751,-1.0762,-1.0239,-1.0067,-0.9942,-0.99,-1.011,-1.0431,-1.0654,-1.0767,-1.0966,-1.1203,-1.1267,-1.1354,-1.1607,-1.1785,-1.1946,-1.21,-1.2248,-1.2577,-1.33,-1.3926,-1.4355,-1.4587,-1.5075,-1.5575,-1.5914,-1.617,-1.6841,-1.7665,-1.8423,-1.9033,-2.0076,-2.0916,-2.1428,-2.1786,-2.2106,-2.2353,-2.2618,-2.3047,-2.3511,-2.3805,-2.3918,-2.4148,-2.4042,-2.426,-2.4592,-2.5238,-2.5768,0.759,0.7322,0.7319,0.7251,0.7153,0.7139,0.7146,0.7149,0.7149,0.6992,0.6887,0.6887,0.6447,0.5819,0.5481,0.4874,0.367,0.2592,0.1035,-0.156,-0.2789,-0.4228,-0.5238,-0.6037,-0.6736,-0.7238,-0.7543,-0.7743,-0.7939,-0.8038,-0.8137,-0.8333,-0.8432,-0.863,-0.8935,-0.9133,-0.9331,-0.943,-0.9624,-0.9727,-0.992,-0.992,-1.0117,-1.0507,-1.0801,-1.0998,-1.1292,-1.1683,-1.1849,-1.1706,-1.1863,-1.1871,-1.1483,-1.1273,-1.1267,-1.1267,-1.1267,-1.1267,-1.1267,-1.1267,-1.1267,-1.1267,-1.1354,-1.1267,-1.1251,-1.1085,-1.0918,-1.0832,-1.0498,-1.0151,-0.9953,-1.0129,-1.0331,-1.0621,-1.0756,-1.0912,-1.1015,-1.1209,-1.1424,-1.1613,-1.178,-1.2037,-1.2289,-1.2448,-1.2601,-1.2753,-1.3281,-1.4004,-1.4334,-1.4657,-1.5159,-1.5741,-1.5989,-1.626,-1.6838,-1.7657,-1.8634,-1.936,-2.0303,-2.1114,-2.1536,-2.1974,-2.2195,-2.253,-2.2794,-2.3232,-2.3744,-2.4079,-2.4206,-2.4619,-2.4924,-2.5024,-2.5306,-2.6186,-2.6634,0.7682,0.7485,0.7478,0.7431,0.7363,0.7356,0.7353,0.7265,0.7168,0.6989,0.681,0.6715,0.6165,0.543,0.5066,0.427,0.2906,0.1231,-0.0676,-0.2676,-0.3718,-0.4433,-0.5238,-0.6039,-0.6637,-0.7135,-0.7338,-0.764,-0.7939,-0.8137,-0.8237,-0.8432,-0.8634,-0.8931,-0.9236,-0.9331,-0.9529,-0.9723,-0.9826,-0.9924,-1.0117,-1.0216,-1.031,-1.0801,-1.0998,-1.1194,-1.1194,-1.1688,-1.1763,-1.1782,-1.1999,-1.2005,-1.1585,-1.1413,-1.1273,-1.1267,-1.1267,-1.1267,-1.1267,-1.1267,-1.1267,-1.1267,-1.144,-1.144,-1.1472,-1.1382,-1.1338,-1.1244,-1.1011,-1.0597,-1.0005,-1.0354,-1.0643,-1.0914,-1.099,-1.1109,-1.1313,-1.1445,-1.1527,-1.1785,-1.1952,-1.2198,-1.2448,-1.2705,-1.2772,-1.2832,-1.3646,-1.4277,-1.458,-1.4901,-1.5409,-1.5824,-1.6072,-1.6448,-1.6798,-1.7657,-1.8887,-1.9715,-2.0523,-2.1131,-2.1563,-2.1965,-2.2264,-2.253,-2.2882,-2.3406,-2.3841,-2.411,-2.4454,-2.4882,-2.5189,-2.5527,-2.5768,-2.6173,-2.6676,0.7763,0.7631,0.7631,0.7617,0.76,0.759,0.7577,0.749,0.7308,0.6898,0.6646,0.6364,0.5764,0.5128,0.4454,0.3425,0.1728,-0.0195,-0.2184,-0.3518,-0.413,-0.4738,-0.5441,-0.6139,-0.6637,-0.7135,-0.7338,-0.7537,-0.7939,-0.8233,-0.8432,-0.8528,-0.8935,-0.9133,-0.9335,-0.9529,-0.9723,-0.992,-1.0023,-1.0216,-1.0413,-1.0507,-1.0605,-1.09,-1.1096,-1.1194,-1.1292,-1.158,-1.1803,-1.1718,-1.2057,-1.2106,-1.1876,-1.1553,-1.1408,-1.1321,-1.1305,-1.1267,-1.1267,-1.1267,-1.1267,-1.1348,-1.1527,-1.1699,-1.1643,-1.1714,-1.1702,-1.1666,-1.1424,-1.0989,-1.0288,-1.0735,-1.1133,-1.1311,-1.121,-1.1393,-1.1627,-1.1785,-1.1871,-1.1871,-1.2118,-1.2363,-1.2534,-1.2796,-1.2857,-1.3014,-1.3919,-1.4544,-1.4846,-1.5068,-1.5575,-1.5906,-1.6154,-1.6949,-1.7443,-1.7835,-1.9054,-1.9843,-2.0736,-2.1149,-2.1644,-2.2045,-2.2362,-2.2618,-2.2969,-2.3493,-2.3937,-2.4196,-2.4615,-2.5041,-2.5295,-2.5486,-2.5833,-2.6085,-2.6534,0.7815,0.7677,0.7777,0.7712,0.7708,0.7604,0.7422,0.7214,0.6954,0.6558,0.6094,0.5613,0.5251,0.4678,0.343,0.1728,-0.0,-0.1687,-0.2911,-0.3932,-0.4535,-0.5138,-0.5839,-0.6239,-0.6736,-0.7135,-0.7437,-0.7739,-0.8038,-0.8233,-0.8528,-0.8726,-0.9031,-0.9331,-0.9529,-0.9826,-0.992,-1.0117,-1.0216,-1.0507,-1.0708,-1.0703,-1.0801,-1.11,-1.1194,-1.1194,-1.1292,-1.1487,-1.1765,-1.1915,-1.204,-1.2104,-1.2122,-1.1881,-1.1688,-1.1607,-1.1385,-1.131,-1.1305,-1.1273,-1.1267,-1.1354,-1.1613,-1.1705,-1.1768,-1.1826,-1.2014,-1.1968,-1.1824,-1.1492,-1.1139,-1.141,-1.1628,-1.1798,-1.1781,-1.1798,-1.1935,-1.2118,-1.2198,-1.2289,-1.2363,-1.2448,-1.2705,-1.2881,-1.3039,-1.3288,-1.3906,-1.4628,-1.5132,-1.5347,-1.5575,-1.5989,-1.6245,-1.7151,-1.8071,-1.851,-1.9246,-1.9954,-2.0654,-2.114,-2.1616,-2.2036,-2.2451,-2.2618,-2.3057,-2.3667,-2.4013,-2.4282,-2.4615,-2.5126,-2.5306,-2.5497,-2.5749,-2.6085,-2.6324,0.7898,0.7831,0.7736,0.7697,0.7544,0.7437,0.7243,0.6949,0.6657,0.6171,0.5586,0.5003,0.4612,0.4027,0.2748,0.0789,-0.1294,-0.2707,-0.3629,-0.4435,-0.5138,-0.5639,-0.6239,-0.6637,-0.7039,-0.7341,-0.7643,-0.7939,-0.8237,-0.8531,-0.873,-0.9031,-0.9331,-0.9525,-0.9723,-0.992,-1.0117,-1.0314,-1.0507,-1.0703,-1.1002,-1.0998,-1.1096,-1.1194,-1.1194,-1.1194,-1.1292,-1.1487,-1.1688,-1.176,-1.1976,-1.2123,-1.2199,-1.2103,-1.1822,-1.1876,-1.1572,-1.134,-1.1308,-1.1261,-1.1267,-1.1348,-1.1613,-1.1871,-1.1957,-1.2118,-1.2289,-1.2339,-1.2304,-1.2175,-1.2079,-1.2079,-1.2167,-1.226,-1.2215,-1.2123,-1.2203,-1.2369,-1.2448,-1.2534,-1.2534,-1.2619,-1.2705,-1.296,-1.3222,-1.3646,-1.399,-1.4608,-1.5322,-1.5619,-1.5831,-1.6186,-1.6581,-1.7395,-1.8284,-1.8844,-1.9354,-2.0065,-2.0564,-2.105,-2.1428,-2.1848,-2.2185,-2.2441,-2.2969,-2.3667,-2.3937,-2.4196,-2.4615,-2.5031,-2.5211,-2.5391,-2.5738,-2.6074,-2.6229,0.7942,0.7942,0.7646,0.7441,0.7238,0.7138,0.6933,0.6642,0.6329,0.5724,0.5039,0.4535,0.3927,0.2924,0.1309,-0.0504,-0.2321,-0.363,-0.4334,-0.4937,-0.5541,-0.6142,-0.6539,-0.6939,-0.7338,-0.7543,-0.7842,-0.8137,-0.8333,-0.8627,-0.8931,-0.9133,-0.943,-0.9727,-0.9924,-1.0117,-1.0413,-1.0703,-1.09,-1.0998,-1.1194,-1.1194,-1.1194,-1.1194,-1.1194,-1.1194,-1.1194,-1.1389,-1.1487,-1.1683,-1.177,-1.2068,-1.2242,-1.2198,-1.211,-1.2096,-1.1738,-1.151,-1.1332,-1.1372,-1.1369,-1.1369,-1.1721,-1.1877,-1.2037,-1.2203,-1.2619,-1.2705,-1.2693,-1.2589,-1.2577,-1.2522,-1.2534,-1.2546,-1.2381,-1.2203,-1.2369,-1.2534,-1.2534,-1.2619,-1.2705,-1.2705,-1.279,-1.3045,-1.3307,-1.3646,-1.4075,-1.4685,-1.5307,-1.5778,-1.6042,-1.6468,-1.7007,-1.7696,-1.8352,-1.8904,-1.9462,-2.015,-2.0572,-2.0942,-2.132,-2.1679,-2.1928,-2.2353,-2.296,-2.358,-2.3841,-2.4196,-2.4615,-2.4956,-2.5115,-2.5369,-2.5728,-2.5906,-2.6063,0.7749,0.7952,0.7441,0.693,0.6625,0.6736,0.6639,0.6337,0.5639,0.5039,0.4438,0.3937,0.3027,0.1412,-0.121,-0.2623,-0.333,-0.4131,-0.4836,-0.5238,-0.5842,-0.6342,-0.6742,-0.7039,-0.7441,-0.7643,-0.7942,-0.8137,-0.8432,-0.8726,-0.8928,-0.9229,-0.9529,-0.9727,-1.0019,-1.0216,-1.0511,-1.0806,-1.1002,-1.1194,-1.1194,-1.1194,-1.1194,-1.1194,-1.1194,-1.1194,-1.1194,-1.1292,-1.1394,-1.1585,-1.1585,-1.1785,-1.2068,-1.2257,-1.2328,-1.2369,-1.2208,-1.1903,-1.1582,-1.16,-1.1535,-1.1398,-1.1647,-1.1727,-1.1871,-1.2118,-1.2534,-1.2705,-1.2705,-1.2699,-1.2699,-1.2705,-1.2705,-1.2711,-1.2625,-1.2534,-1.2619,-1.2619,-1.2619,-1.2619,-1.2705,-1.2705,-1.2705,-1.3052,-1.3398,-1.373,-1.4075,-1.4776,-1.5322,-1.5831,-1.6383,-1.6828,-1.7282,-1.7993,-1.8498,-1.9052,-1.9545,-2.0235,-2.0499,-2.0744,-2.1105,-2.1482,-2.1839,-2.2264,-2.2872,-2.3309,-2.3667,-2.4013,-2.4529,-2.4871,-2.5115,-2.5454,-2.5812,-2.5895,-2.5979,0.7344,0.7547,0.6939,0.6431,0.6024,0.5937,0.5739,0.5436,0.4836,0.4338,0.3835,0.2925,0.1614,-0.0202,-0.2322,-0.3229,-0.363,-0.4533,-0.5135,-0.5539,-0.6139,-0.6642,-0.7039,-0.7341,-0.7543,-0.7743,-0.7939,-0.8233,-0.8528,-0.8726,-0.9027,-0.9426,-0.9529,-0.9826,-1.0117,-1.0314,-1.0605,-1.09,-1.11,-1.1194,-1.1194,-1.1194,-1.1194,-1.1194,-1.1194,-1.1194,-1.1194,-1.1194,-1.1198,-1.1389,-1.1394,-1.1487,-1.178,-1.1975,-1.217,-1.2446,-1.2491,-1.2398,-1.2248,-1.2129,-1.177,-1.152,-1.1668,-1.1854,-1.1922,-1.2037,-1.2283,-1.2534,-1.2534,-1.2534,-1.2699,-1.2699,-1.2705,-1.2705,-1.2705,-1.2705,-1.2705,-1.2705,-1.2705,-1.2705,-1.2705,-1.2705,-1.279,-1.313,-1.3398,-1.3568,-1.4082,-1.4783,-1.5471,-1.601,-1.6584,-1.7122,-1.7652,-1.8217,-1.8669,-1.9192,-1.962,-2.0152,-2.0309,-2.0564,-2.0907,-2.1266,-2.1633,-2.1998,-2.253,-2.296,-2.3319,-2.3841,-2.4368,-2.4786,-2.5115,-2.5475,-2.5749,-2.5906,-2.599,0.6739,0.6736,0.6337,0.5832,0.5225,0.5135,0.4937,0.4533,0.4135,0.3734,0.2927,0.1614,-0.0,-0.1514,-0.2725,-0.3531,-0.383,-0.4834,-0.5436,-0.5837,-0.6439,-0.6939,-0.7138,-0.7441,-0.7743,-0.8038,-0.7939,-0.8333,-0.8627,-0.8825,-0.9027,-0.9525,-0.9628,-0.9924,-1.0216,-1.0413,-1.0605,-1.1096,-1.1194,-1.1194,-1.1194,-1.1194,-1.1194,-1.1194,-1.1194,-1.1194,-1.1194,-1.1194,-1.1194,-1.1194,-1.1194,-1.1292,-1.1487,-1.1883,-1.2078,-1.2268,-1.2501,-1.2742,-1.2574,-1.2379,-1.2038,-1.1743,-1.1612,-1.1745,-1.1905,-1.1957,-1.2037,-1.2283,-1.2289,-1.2454,-1.2625,-1.2619,-1.2619,-1.2705,-1.2705,-1.2705,-1.2705,-1.2705,-1.2705,-1.2705,-1.2705,-1.2705,-1.2875,-1.313,-1.3392,-1.3476,-1.4088,-1.4888,-1.5565,-1.6282,-1.6837,-1.7408,-1.7858,-1.8409,-1.8715,-1.924,-1.9754,-2.0061,-2.0218,-2.0374,-2.0709,-2.0979,-2.1356,-2.1722,-2.2176,-2.2696,-2.3135,-2.3754,-2.4196,-2.4615,-2.4956,-2.5412,-2.5687,-2.5844,-2.599,0.6339,0.5737,0.5634,0.5031,0.4123,0.463,0.4533,0.4033,0.3835,0.2927,0.1513,-0.0101,-0.1414,-0.2522,-0.3126,-0.383,-0.4336,-0.5236,-0.5636,-0.6039,-0.6542,-0.6942,-0.7238,-0.754,-0.7746,-0.7939,-0.8038,-0.8333,-0.8726,-0.8829,-0.913,-0.9529,-0.9628,-0.992,-1.0216,-1.0413,-1.0703,-1.1096,-1.1194,-1.1194,-1.1194,-1.1194,-1.1194,-1.1194,-1.1194,-1.1194,-1.1194,-1.1194,-1.1194,-1.1194,-1.1194,-1.1194,-1.1389,-1.1785,-1.198,-1.2175,-1.2565,-1.2727,-1.2737,-1.2596,-1.2285,-1.1989,-1.1709,-1.1576,-1.1771,-1.1721,-1.1791,-1.2049,-1.2037,-1.2209,-1.2466,-1.2546,-1.2534,-1.2625,-1.2711,-1.2705,-1.2705,-1.2705,-1.2705,-1.2705,-1.2711,-1.2729,-1.2973,-1.3255,-1.3338,-1.3502,-1.459,-1.5403,-1.6007,-1.6662,-1.7228,-1.7687,-1.8079,-1.8454,-1.8716,-1.9204,-1.9587,-1.987,-2.0036,-2.0175,-2.0413,-2.0692,-2.1087,-2.1544,-2.1998,-2.252,-2.296,-2.3396,-2.3927,-2.4444,-2.4882,-2.5327,-2.5676,-2.5844,-2.6001,0.5839,0.5541,0.4734,0.4028,0.3524,0.3729,0.3732,0.333,0.2524,0.1312,-0.0202,-0.1313,-0.2223,-0.2927,-0.3428,-0.4029,-0.4636,-0.5336,-0.5739,-0.6139,-0.6642,-0.7039,-0.7338,-0.764,-0.7942,-0.8038,-0.8134,-0.8432,-0.8726,-0.8931,-0.9229,-0.9525,-0.9624,-0.9821,-1.0117,-1.0511,-1.0801,-1.1096,-1.1194,-1.1194,-1.1194,-1.1194,-1.1194,-1.1194,-1.1194,-1.1194,-1.1194,-1.1194,-1.1194,-1.1194,-1.1194,-1.1194,-1.1292,-1.1683,-1.198,-1.2078,-1.2467,-1.2764,-1.2759,-1.2657,-1.2522,-1.2285,-1.1978,-1.1804,-1.1762,-1.1745,-1.1734,-1.1766,-1.1819,-1.2025,-1.2141,-1.2289,-1.2443,-1.2625,-1.2741,-1.2759,-1.2777,-1.2819,-1.2819,-1.2868,-1.2819,-1.2783,-1.3046,-1.3405,-1.3458,-1.3534,-1.4822,-1.5899,-1.6431,-1.6956,-1.752,-1.7885,-1.8273,-1.8451,-1.8788,-1.9112,-1.9396,-1.9662,-1.9845,-2.0093,-2.024,-2.0529,-2.0925,-2.1374,-2.182,-2.2176,-2.2608,-2.3047,-2.357,-2.4186,-2.47,-2.5137,-2.5486,-2.5833,-2.6001,0.5539,0.5244,0.4133,0.3528,0.3226,0.2925,0.2725,0.2423,0.1313,-0.0101,-0.1615,-0.2223,-0.2727,-0.323,-0.3831,-0.4232,-0.4935,-0.5436,-0.5939,-0.6339,-0.6839,-0.7235,-0.7437,-0.7739,-0.8041,-0.8137,-0.8333,-0.8531,-0.8931,-0.9137,-0.9331,-0.9529,-0.9624,-0.9723,-1.0117,-1.0511,-1.09,-1.1096,-1.1194,-1.1194,-1.1194,-1.1194,-1.1194,-1.1194,-1.1194,-1.1194,-1.1194,-1.1194,-1.1194,-1.1194,-1.1194,-1.1194,-1.1389,-1.159,-1.1785,-1.2078,-1.237,-1.2667,-1.2764,-1.2775,-1.2693,-1.2377,-1.2161,-1.1951,-1.1855,-1.1801,-1.1915,-1.1816,-1.1855,-1.1811,-1.197,-1.2113,-1.2592,-1.2833,-1.2903,-1.2915,-1.2991,-1.3091,-1.3061,-1.3055,-1.3025,-1.3067,-1.3291,-1.3679,-1.3995,-1.4401,-1.5606,-1.6389,-1.6499,-1.7101,-1.7697,-1.8117,-1.8378,-1.8648,-1.8827,-1.9112,-1.9288,-1.9347,-1.953,-2.0011,-2.0266,-2.0464,-2.0744,-2.1186,-2.1544,-2.182,-2.2255,-2.2784,-2.3396,-2.3927,-2.4433,-2.4925,-2.5486,-2.576,-2.5917,0.524,0.4744,0.4039,0.3433,0.2724,0.2321,0.1716,0.1009,0.0202,-0.1009,-0.2522,-0.3029,-0.323,-0.3531,-0.4334,-0.4836,-0.524,-0.5741,-0.6242,-0.6642,-0.7039,-0.7341,-0.764,-0.7842,-0.8137,-0.8333,-0.8531,-0.8832,-0.9137,-0.9236,-0.943,-0.9529,-0.9628,-0.9821,-1.0023,-1.0511,-1.0904,-1.1198,-1.1194,-1.1194,-1.1194,-1.1194,-1.1194,-1.1194,-1.1194,-1.1194,-1.1194,-1.1194,-1.1194,-1.1194,-1.1194,-1.1194,-1.1292,-1.1487,-1.1683,-1.1688,-1.2175,-1.2478,-1.2775,-1.2767,-1.2596,-1.2468,-1.2307,-1.2145,-1.2162,-1.2129,-1.2091,-1.1972,-1.201,-1.1844,-1.1775,-1.1951,-1.2581,-1.3033,-1.3003,-1.3075,-1.3231,-1.3219,-1.3177,-1.3242,-1.3375,-1.3483,-1.367,-1.3966,-1.4533,-1.5258,-1.6512,-1.6901,-1.6803,-1.7172,-1.7827,-1.8149,-1.8395,-1.8603,-1.8835,-1.9012,-1.918,-1.9147,-1.9322,-1.9812,-2.0192,-2.0473,-2.0744,-2.1006,-2.1275,-2.1633,-2.2078,-2.2608,-2.3232,-2.3744,-2.4221,-2.4723,-2.5295,-2.5771,-2.5844,0.4636,0.4142,0.2726,0.0807,-0.0706,0.0202,0.0303,-0.0505,-0.1615,-0.2522,-0.3027,-0.3531,-0.3932,-0.4334,-0.4736,-0.534,-0.5741,-0.6039,-0.6539,-0.6845,-0.7241,-0.7444,-0.7743,-0.8041,-0.8336,-0.8432,-0.8733,-0.8935,-0.9236,-0.9335,-0.943,-0.9624,-0.9727,-1.0023,-1.0216,-1.0511,-1.0708,-1.1096,-1.1194,-1.1194,-1.1194,-1.1194,-1.1194,-1.1194,-1.1194,-1.1194,-1.1194,-1.1194,-1.1194,-1.1194,-1.1194,-1.1194,-1.1194,-1.1487,-1.1585,-1.1585,-1.198,-1.2181,-1.2278,-1.2297,-1.2469,-1.2512,-1.2549,-1.2409,-1.2328,-1.2296,-1.221,-1.2113,-1.2118,-1.1999,-1.2021,-1.2011,-1.2467,-1.2859,-1.303,-1.3205,-1.3194,-1.3188,-1.317,-1.3339,-1.3507,-1.3768,-1.4019,-1.4087,-1.4581,-1.5239,-1.626,-1.6829,-1.6843,-1.7272,-1.7863,-1.8048,-1.8357,-1.855,-1.8835,-1.892,-1.8988,-1.8948,-1.9239,-1.9646,-2.0019,-2.0391,-2.0564,-2.0826,-2.1096,-2.1365,-2.19,-2.2432,-2.3057,-2.356,-2.4024,-2.4423,-2.4946,-2.5423,-2.5782,0.3932,0.3536,0.1615,-0.0706,-0.2725,-0.1311,-0.1109,-0.2018,-0.3027,-0.3533,-0.3734,-0.4236,-0.4535,-0.4937,-0.5438,-0.5739,-0.6139,-0.6539,-0.6839,-0.7045,-0.7347,-0.7643,-0.7939,-0.8237,-0.8535,-0.8634,-0.8931,-0.9232,-0.9335,-0.9533,-0.9628,-0.9624,-0.9727,-1.0019,-1.0314,-1.0511,-1.0806,-1.1096,-1.1194,-1.1194,-1.1194,-1.1194,-1.1194,-1.1194,-1.1194,-1.1194,-1.1194,-1.1194,-1.1194,-1.1194,-1.1194,-1.1194,-1.1292,-1.1389,-1.1487,-1.1487,-1.1585,-1.178,-1.1975,-1.1765,-1.194,-1.2344,-1.2467,-1.2399,-1.2379,-1.2347,-1.2273,-1.2277,-1.2285,-1.2285,-1.228,-1.2346,-1.2434,-1.2932,-1.2932,-1.3118,-1.3321,-1.3234,-1.342,-1.3576,-1.3755,-1.3987,-1.4166,-1.437,-1.4533,-1.5201,-1.5879,-1.6317,-1.6835,-1.7239,-1.7636,-1.7916,-1.8195,-1.8473,-1.8651,-1.8735,-1.8796,-1.8848,-1.9147,-1.9463,-1.9962,-2.0335,-2.049,-2.0654,-2.0843,-2.1203,-2.1731,-2.2264,-2.2909,-2.3408,-2.3702,-2.4155,-2.4646,-2.5126,-2.5562,0.3124,0.2826,0.0806,-0.1311,-0.2927,-0.2218,-0.252,-0.3629,-0.3932,-0.4236,-0.4438,-0.5039,-0.534,-0.5441,-0.6037,-0.6437,-0.6537,-0.6936,-0.7241,-0.7444,-0.7646,-0.7942,-0.8137,-0.8333,-0.8531,-0.8935,-0.9137,-0.9232,-0.9533,-0.9628,-0.9628,-0.9628,-0.9727,-0.992,-1.0314,-1.0511,-1.0806,-1.11,-1.1194,-1.1194,-1.1194,-1.1194,-1.1194,-1.1194,-1.1194,-1.1194,-1.1194,-1.1194,-1.1194,-1.1194,-1.1194,-1.1194,-1.1194,-1.1194,-1.1194,-1.1189,-1.1282,-1.158,-1.1775,-1.1468,-1.1565,-1.1878,-1.198,-1.197,-1.2052,-1.2211,-1.2255,-1.2346,-1.2411,-1.2566,-1.27,-1.2673,-1.2742,-1.2844,-1.2838,-1.3041,-1.3352,-1.355,-1.364,-1.3909,-1.4076,-1.4214,-1.4291,-1.437,-1.4465,-1.5032,-1.5576,-1.6062,-1.648,-1.7052,-1.7441,-1.7721,-1.8001,-1.8381,-1.8566,-1.8651,-1.8727,-1.878,-1.8964,-1.9371,-1.987,-2.0269,-2.0335,-2.0499,-2.0689,-2.1112,-2.1971,-2.2469,-2.2881,-2.3297,-2.3701,-2.4206,-2.4872,-2.4979,-2.5335,0.2015,0.1311,-0.0605,-0.2521,-0.4137,-0.4234,-0.4332,-0.4533,-0.4736,-0.5039,-0.5238,-0.5839,-0.6139,-0.6342,-0.6739,-0.6839,-0.7039,-0.7241,-0.7441,-0.7643,-0.7746,-0.7942,-0.8137,-0.8333,-0.8531,-0.8737,-0.8939,-0.9256,-0.9343,-0.9438,-0.9648,-0.9628,-0.9681,-0.9962,-1.0151,-1.0323,-1.0735,-1.1035,-1.1142,-1.111,-1.111,-1.1114,-1.111,-1.1203,-1.1096,-1.1096,-1.1096,-1.1096,-1.1096,-1.1194,-1.1194,-1.1194,-1.1194,-1.1194,-1.1194,-1.1194,-1.1189,-1.1287,-1.1385,-1.1282,-1.1282,-1.1385,-1.1487,-1.1683,-1.1878,-1.2073,-1.2073,-1.2175,-1.237,-1.2473,-1.2673,-1.277,-1.2759,-1.2754,-1.2748,-1.2948,-1.3249,-1.3346,-1.3539,-1.3829,-1.4016,-1.4202,-1.4202,-1.4286,-1.4472,-1.4879,-1.5267,-1.5642,-1.6116,-1.669,-1.716,-1.7441,-1.7721,-1.8001,-1.8381,-1.8566,-1.8643,-1.8812,-1.8996,-1.9204,-1.9553,-1.9946,-2.0178,-2.0429,-2.0859,-2.1582,-2.2435,-2.2862,-2.2997,-2.3616,-2.4117,-2.4505,-2.4976,-2.5231,-2.5394,0.0503,-0.0705,-0.2116,-0.3729,-0.5039,-0.5441,-0.5438,-0.5436,-0.5639,-0.5837,-0.6137,-0.6537,-0.6839,-0.6942,-0.7138,-0.7238,-0.7341,-0.764,-0.7739,-0.7839,-0.7842,-0.8038,-0.8237,-0.824,-0.8432,-0.8645,-0.8899,-0.9156,-0.9145,-0.9311,-0.9447,-0.9454,-0.9633,-0.973,-0.9855,-1.0078,-1.0365,-1.0637,-1.0884,-1.0888,-1.0964,-1.0978,-1.0982,-1.103,-1.0927,-1.0923,-1.082,-1.082,-1.0913,-1.0909,-1.09,-1.09,-1.09,-1.09,-1.09,-1.0904,-1.111,-1.1007,-1.1002,-1.11,-1.11,-1.1096,-1.1096,-1.1389,-1.1585,-1.1683,-1.1785,-1.1883,-1.2181,-1.2375,-1.2575,-1.2775,-1.277,-1.2759,-1.2861,-1.2861,-1.2958,-1.305,-1.334,-1.3636,-1.3925,-1.4016,-1.4202,-1.4292,-1.4382,-1.4682,-1.4975,-1.5159,-1.573,-1.6218,-1.6784,-1.716,-1.7434,-1.7714,-1.8001,-1.8396,-1.8589,-1.8666,-1.8819,-1.9044,-1.9418,-1.9759,-2.0129,-2.0628,-2.1138,-2.1861,-2.2573,-2.2923,-2.3149,-2.3786,-2.4248,-2.4643,-2.5235,-2.5767,-2.5947,-0.1108,-0.282,-0.3728,-0.4636,-0.5536,-0.5839,-0.6039,-0.6337,-0.6237,-0.6539,-0.6742,-0.7042,-0.7138,-0.7141,-0.7341,-0.7441,-0.7441,-0.7637,-0.7739,-0.7942,-0.7743,-0.7852,-0.7979,-0.8258,-0.8019,-0.8435,-0.869,-0.8582,-0.8826,-0.887,-0.8924,-0.9115,-0.9078,-0.9042,-0.9235,-0.9239,-0.9431,-0.9618,-0.9981,-1.012,-1.0406,-1.051,-1.0654,-1.0631,-1.0496,-1.0388,-1.0285,-1.0371,-1.0358,-1.0367,-1.0474,-1.0496,-1.0505,-1.0569,-1.0564,-1.0533,-1.0847,-1.082,-1.0609,-1.0708,-1.0801,-1.09,-1.0998,-1.11,-1.1198,-1.1487,-1.1585,-1.159,-1.1785,-1.2083,-1.2278,-1.2678,-1.2775,-1.2764,-1.2764,-1.2764,-1.2861,-1.2953,-1.3244,-1.3534,-1.3636,-1.3829,-1.4027,-1.4112,-1.4304,-1.4496,-1.4675,-1.486,-1.5255,-1.5838,-1.6326,-1.6798,-1.716,-1.7434,-1.7721,-1.8024,-1.845,-1.8629,-1.883,-1.9183,-1.962,-1.993,-2.021,-2.0844,-2.1405,-2.1865,-2.2398,-2.2862,-2.3373,-2.3781,-2.4315,-2.4746,-2.5273,-2.5862,-2.6176,-0.1613,-0.3633,-0.464,-0.514,-0.5338,-0.5536,-0.5839,-0.6139,-0.6142,-0.6342,-0.6742,-0.6842,-0.6939,-0.7138,-0.7241,-0.7341,-0.7238,-0.716,-0.7341,-0.726,-0.7166,-0.714,-0.728,-0.7088,-0.7129,-0.7214,-0.7473,-0.7694,-0.7935,-0.7957,-0.796,-0.796,-0.7986,-0.8017,-0.8014,-0.812,-0.8143,-0.8268,-0.8498,-0.9079,-0.9711,-1.0067,-1.0265,-1.0223,-1.0108,-1.0088,-1.0088,-1.0309,-1.0429,-1.0441,-1.0643,-1.075,-1.0745,-1.0615,-1.065,-1.0619,-1.0531,-1.0496,-1.0375,-1.0272,-1.0362,-1.0533,-1.0623,-1.0712,-1.0904,-1.1194,-1.1292,-1.1389,-1.1487,-1.1688,-1.1986,-1.2386,-1.2683,-1.2673,-1.2662,-1.2764,-1.2764,-1.2953,-1.3147,-1.3244,-1.3437,-1.3636,-1.3835,-1.413,-1.4226,-1.4406,-1.4382,-1.4567,-1.4867,-1.5363,-1.5885,-1.636,-1.6892,-1.7167,-1.7471,-1.7826,-1.8206,-1.8714,-1.8973,-1.9368,-1.9902,-2.0241,-2.0565,-2.1218,-2.1769,-2.2114,-2.2619,-2.3242,-2.3655,-2.3923,-2.4217,-2.4566,-2.4906,-2.5372,-2.5978,-0.121,-0.3128,-0.4843,-0.5347,-0.5142,-0.5443,-0.5648,-0.5851,-0.5849,-0.5949,-0.625,-0.6348,-0.6545,-0.6642,-0.6642,-0.655,-0.6456,-0.6398,-0.642,-0.6428,-0.6261,-0.6228,-0.6157,-0.5967,-0.5879,-0.5941,-0.6323,-0.6562,-0.6929,-0.6953,-0.6961,-0.6956,-0.698,-0.6907,-0.6806,-0.684,-0.6754,-0.6677,-0.6826,-0.747,-0.8464,-0.8814,-0.9286,-0.9358,-0.9429,-0.9541,-0.9634,-0.9739,-0.9951,-0.9947,-1.0032,-1.0136,-1.0115,-1.0054,-1.0125,-1.0096,-1.0141,-1.0163,-1.0146,-1.0125,-0.9987,-1.0267,-1.0445,-1.0671,-1.0614,-1.0806,-1.0998,-1.1096,-1.1292,-1.1492,-1.1585,-1.198,-1.2278,-1.237,-1.2575,-1.2775,-1.277,-1.2861,-1.2953,-1.2953,-1.3152,-1.3346,-1.3545,-1.4051,-1.4142,-1.4124,-1.4196,-1.4406,-1.47,-1.5088,-1.5486,-1.5979,-1.647,-1.6968,-1.7413,-1.7669,-1.8125,-1.8548,-1.9012,-1.9657,-2.0295,-2.0563,-2.0923,-2.1412,-2.1903,-2.2295,-2.2841,-2.3229,-2.3655,-2.3872,-2.4079,-2.4322,-2.4655,-2.4951,-2.5285,-0.0101,-0.1914,-0.3932,-0.4539,-0.4236,-0.464,-0.474,-0.4744,-0.4859,-0.4764,-0.4671,-0.4873,-0.5367,-0.566,-0.5354,-0.526,-0.5088,-0.4951,-0.5079,-0.5101,-0.4839,-0.4657,-0.4568,-0.4581,-0.4496,-0.4753,-0.5247,-0.5643,-0.5926,-0.5949,-0.5971,-0.61,-0.6032,-0.5979,-0.5775,-0.5576,-0.5468,-0.5332,-0.5462,-0.549,-0.6327,-0.7217,-0.7938,-0.8233,-0.8461,-0.867,-0.8779,-0.8977,-0.9199,-0.9308,-0.9444,-0.9561,-0.964,-0.961,-0.968,-0.9758,-0.9916,-0.9892,-1.0003,-1.0083,-1.0125,-1.028,-1.0455,-1.0474,-1.0432,-1.0496,-1.0794,-1.0978,-1.1077,-1.1212,-1.1404,-1.1497,-1.1795,-1.2191,-1.2402,-1.2705,-1.2791,-1.278,-1.2786,-1.278,-1.2975,-1.3072,-1.3374,-1.3876,-1.3966,-1.3949,-1.4165,-1.4455,-1.4697,-1.5064,-1.5464,-1.5765,-1.6155,-1.6669,-1.7197,-1.7635,-1.7894,-1.8505,-1.9003,-1.9844,-2.0564,-2.0684,-2.0889,-2.1391,-2.1887,-2.2181,-2.2601,-2.2937,-2.3347,-2.3655,-2.3981,-2.418,-2.4223,-2.4421,-2.451,0.1908,0.0201,-0.0703,-0.1004,-0.0904,-0.1005,-0.1105,-0.1108,-0.1228,-0.1338,-0.1238,-0.1253,-0.2193,-0.485,-0.3606,-0.3202,-0.3022,-0.3053,-0.2953,-0.2857,-0.2666,-0.2686,-0.2598,-0.2614,-0.285,-0.3329,-0.3938,-0.4667,-0.446,-0.4623,-0.4777,-0.4654,-0.478,-0.4805,-0.4808,-0.4482,-0.4021,-0.3904,-0.3783,-0.3901,-0.4717,-0.5702,-0.6849,-0.7342,-0.7615,-0.7809,-0.7991,-0.8459,-0.8533,-0.8736,-0.9043,-0.9356,-0.9425,-0.9359,-0.9422,-0.9499,-0.9667,-0.973,-0.9832,-0.9723,-0.9766,-0.9924,-1.0103,-1.019,-1.0211,-1.0408,-1.0595,-1.0861,-1.1006,-1.1114,-1.1175,-1.126,-1.155,-1.1855,-1.2165,-1.2459,-1.2557,-1.2753,-1.2856,-1.2856,-1.2954,-1.3051,-1.3149,-1.3447,-1.3545,-1.378,-1.452,-1.4728,-1.4857,-1.5084,-1.532,-1.5644,-1.6043,-1.6481,-1.7038,-1.7428,-1.7803,-1.8332,-1.8932,-1.9595,-2.0163,-2.0523,-2.0925,-2.1326,-2.1623,-2.1912,-2.2232,-2.2644,-2.2946,-2.3264,-2.3909,-2.4108,-2.4044,-2.4016,-2.4322]}]]